[[{"header":{"parameterUnit":"m.s-1","parameterCategory":1,"la1":31.0,"la2":29.5877,"lo1":-88.7671,"lo2":-86.6584,"dy":0.0162,"dx":0.0185,"nx":115,"ny":88,"refTime":"2023-07-24T06:00:00:Z","depth":0,"parameterNumber":2,"parameterNumberName":"U-component_of_WINDS"},"data":[0.0,0.0,0.0,0.0,0.0,0.0,0.0,0.0,0.0,0.0,0.0,0.0,0.0,0.0,0.0,0.0,0.0,0.0,0.0,0.0,0.0,0.0,0.0,0.0,0.0,0.0,0.0,0.0,0.0,0.0,0.0,0.0,0.0,0.0,0.0,0.0,0.0,0.0,0.0,0.0,0.0,0.0,0.0,0.0,0.0,0.0,0.0,0.0,0.0,0.0,0.0,0.0,0.0,0.0,0.0,0.0,0.0,0.0,0.0,0.0,0.0,0.0,0.0,0.0,0.0,0.0,0.0,0.0,0.0,0.0,0.0,0.0,0.0,0.0,0.0,0.0,0.0,0.0,0.0,0.0,0.0,0.0,0.0,0.0,0.0,0.0,0.0,0.0,0.0,0.0,0.0,0.0,0.0,0.0,0.0,0.0,0.0,0.0,0.0,0.0,0.0,0.0,0.0,0.0,0.0,0.0,0.0,0.0,0.0,0.0,0.0,0.0,0.0,0.0,0.0,0.0,0.0,0.0,0.0,0.0,0.0,0.0,0.0,0.0,0.0,0.0,0.0,0.0,0.0,0.0,0.0,0.0,0.0,0.0,0.0,0.0,0.0,0.0,0.0,0.0,0.0,0.0,0.0,0.0,0.0,0.0,0.0,0.0,0.0,0.0,0.0,0.0,0.0,0.0,0.0,0.0,0.0,0.0,0.0,0.0,0.0,0.0,0.0,0.0,0.0,0.0,0.0,0.0,0.0,0.0,0.0,0.0,0.0,0.0,0.0,0.0,0.0,0.0,0.0,0.0,0.0,0.0,0.0,0.0,0.0,0.0,0.0,0.0,0.0,0.0,0.0,0.0,0.0,0.0,0.0,0.0,0.0,0.0,0.0,0.0,0.0,0.0,0.0,0.0,0.0,0.0,0.0,0.0,0.0,0.0,0.0,0.0,0.0,0.0,0.0,0.0,0.0,0.0,0.0,0.0,0.0,0.0,0.0,0.0,0.0,0.0,0.0,0.0,0.0,0.0,0.0,0.0,0.0,0.0,0.0,0.0,0.0,0.0,0.0,0.0,0.0,0.0,0.0,0.0,0.0,0.0,0.0,0.0,0.0,0.0,0.0,0.0,0.0,0.0,0.0,0.0,0.0,0.0,0.0,0.0,0.0,0.0,0.0,0.0,0.0,0.0,0.0,0.0,0.0,0.0,0.0,0.0,0.0,0.0,0.0,0.0,0.0,0.0,0.0,0.0,0.0,0.0,0.0,0.0,0.0,0.0,0.0,0.0,0.0,0.0,0.0,0.0,0.0,0.0,0.0,0.0,0.0,0.0,0.0,0.0,0.0,0.0,0.0,0.0,0.0,0.0,0.0,0.0,0.0,0.0,0.0,0.0,0.0,0.0,0.0,0.0,0.0,0.0,0.0,0.0,0.0,0.0,0.0,0.0,0.0,0.0,0.0,0.0,0.0,0.0,0.0,0.0,0.0,0.0,0.0,0.0,0.0,0.0,0.0,0.0,0.0,0.0,0.0,0.0,0.0,0.0,0.0,0.0,0.0,0.0,0.0,0.0,0.0,0.0,0.0,0.0,0.0,0.0,0.0,0.0,0.0,0.0,0.0,0.0,0.0,0.0,0.0,0.0,0.0,0.0,0.0,0.0,0.0,0.0,0.0,0.0,0.0,0.0,0.0,0.0,0.0,0.0,0.0,0.0,0.0,0.0,0.0,0.0,0.0,0.0,0.0,0.0,0.0,0.0,0.0,0.0,0.0,0.0,0.0,0.0,0.0,0.0,0.0,0.0,0.0,0.0,0.0,0.0,0.0,0.0,0.0,0.0,0.0,0.0,0.0,0.0,0.0,0.0,0.0,0.0,0.0,0.0,0.0,0.0,0.0,0.0,0.0,0.0,0.0,0.0,0.0,0.0,0.0,0.0,0.0,0.0,0.0,0.0,0.0,0.0,0.0,0.0,0.0,0.0,0.0,0.0,0.0,0.0,0.0,0.0,0.0,0.0,0.0,0.0,0.0,0.0,0.0,0.0,0.0,0.0,0.0,0.0,0.0,0.0,0.0,0.0,0.0,0.0,0.0,0.0,0.0,0.0,0.0,0.0,0.0,0.0,0.0,0.0,0.0,0.0,0.0,0.0,0.0,0.0,0.0,0.0,0.0,0.0,0.0,0.0,0.0,0.0,0.0,0.0,0.0,0.0,0.0,0.0,0.0,0.0,0.0,0.0,0.0,0.0,0.0,0.0,0.0,0.0,0.0,0.0,0.0,0.0,0.0,0.0,0.0,0.0,0.0,0.0,0.0,0.0,0.0,0.0,0.0,0.0,0.0,0.0,0.0,0.0,0.0,0.0,0.0,0.0,0.0,0.0,0.0,0.0,0.0,0.0,0.0,0.0,0.0,0.0,0.0,0.0,0.0,0.0,0.0,0.0,0.0,0.0,0.0,0.0,0.0,0.0,0.0,0.0,0.0,0.0,0.0,0.0,0.0,0.0,0.0,0.0,0.0,0.0,0.0,0.0,0.0,0.0,0.0,0.0,0.0,0.0,0.0,0.0,0.0,0.0,0.0,0.0,0.0,0.0,0.0,0.0,0.0,0.0,0.0,0.0,0.0,0.0,0.0,0.0,0.0,0.0,0.0,0.0,0.0,0.0,0.0,0.0,0.0,0.0,0.0,0.0,0.0,0.0,0.0,0.0,0.0,0.0,0.0,0.0,0.0,0.0,0.0,0.0,0.0,0.0,0.0,0.0,0.0,0.0,0.0,0.0,0.0,0.0,0.0,0.0,0.0,0.0,0.0,0.0,0.0,0.0,0.0,0.0,0.0,0.0,0.0,0.0,0.0,0.0,0.0,0.0,0.0,0.0,0.0,0.0,0.0,0.0,0.0,0.0,0.0,0.0,0.0,0.0,0.0,0.0,0.0,0.0,0.0,0.0,0.0,0.0,0.0,0.0,0.0,0.0,0.0,0.0,0.0,0.0,0.0,0.0,0.0,0.0,0.0,0.0,0.0,0.0,0.0,0.0,0.0,0.0,0.0,0.0,0.0,0.0,0.0,0.0,0.0,0.0,0.0,0.0,0.0,0.0,0.0,0.0,0.0,0.0,0.0,0.0,0.0,0.0,0.0,0.0,0.0,0.0,0.0,0.0,0.0,0.0,0.0,0.0,0.0,0.0,0.0,0.0,0.0,0.0,0.0,0.0,0.0,0.0,0.0,0.0,0.0,0.0,0.0,0.0,0.0,0.0,0.0,0.0,0.0,0.0,0.0,0.0,0.0,0.0,0.0,0.0,0.0,0.0,0.0,0.0,0.0,0.0,0.0,0.0,0.0,0.0,0.0,0.0,0.0,0.0,0.0,0.0,0.0,0.0,0.0,0.0,0.0,0.0,0.0,0.0,0.0,0.0,0.0,0.0,0.0,0.0,0.0,0.0,0.0,0.0,0.0,0.0,0.0,0.0,0.0,0.0,0.0,0.0,0.0,0.0,0.0,0.0,0.0,0.0,0.0,0.0,0.0,0.0,0.0,0.0,0.0,0.0,0.0,0.0,0.0,0.0,0.0,0.0,0.0,0.0,0.0,0.0,0.0,0.0,0.0,0.0,0.0,0.0,0.0,0.0,0.0,0.0,0.0,0.0,0.0,0.0,0.0,0.0,0.0,0.0,0.0,0.0,0.0,0.0,0.0,0.0,0.0,0.0,0.0,0.0,0.0,0.0,0.0,0.0,0.0,0.0,0.0,0.0,0.0,0.0,0.0,0.0,0.0,0.0,0.0,0.0,0.0,0.0,0.0,0.0,0.0,0.0,0.0,0.0,0.0,0.0,0.0,0.0,0.0,0.0,0.0,0.0,0.0,0.0,0.0,0.0,0.0,0.0,0.0,0.0,0.0,0.0,0.0,0.0,0.0,0.0,0.0,0.0,0.0,0.0,0.0,0.0,0.0,0.0,0.0,0.0,0.0,0.0,0.0,0.0,0.0,0.0,0.0,0.0,0.0,0.0,0.0,0.0,0.0,0.0,0.0,0.0,0.0,0.0,0.0,0.0,0.0,0.0,0.0,0.0,0.0,0.0,0.0,0.0,0.0,0.0,0.0,0.0,0.0,0.0,0.0,0.0,0.0,0.0,0.0,0.0,0.0,0.0,0.0,0.0,0.0,0.0,0.0,0.0,0.0,0.0,0.0,0.0,0.0,0.0,0.0,0.0,0.0,0.0,0.0,0.0,0.0,0.0,0.0,0.0,0.0,0.0,0.0,0.0,0.0,0.0,0.0,0.0,0.0,0.0,-2.0605,0.0,0.0,0.0,0.0,0.0,0.0,0.0,0.0,0.0,0.0,0.0,0.0,0.0,0.0,0.0,0.0,0.0,0.0,0.0,0.0,0.0,0.0,0.0,0.0,0.0,0.0,0.0,0.0,0.0,0.0,0.0,0.0,0.0,0.0,0.0,0.0,0.0,0.0,0.0,0.0,0.0,0.0,0.0,0.0,0.0,0.0,0.0,0.0,0.0,0.0,0.0,0.0,0.0,0.0,0.0,0.0,0.0,0.0,0.0,0.0,0.0,0.0,0.0,0.0,0.0,0.0,0.0,0.0,0.0,0.0,0.0,0.0,0.0,0.0,0.0,0.0,0.0,0.0,0.0,0.0,0.0,0.0,0.0,0.0,0.0,0.0,0.0,0.0,0.0,0.0,0.0,0.0,0.0,0.0,0.0,0.0,0.0,0.0,0.0,0.0,0.0,0.0,0.0,0.0,0.0,0.0,0.0,0.0,0.0,0.0,-2.0605,-2.0605,-2.0605,-2.0605,-2.0605,0.0,0.0,0.0,0.0,0.0,0.0,0.0,0.0,0.0,0.0,0.0,0.0,0.0,0.0,0.0,0.0,0.0,0.0,0.0,0.0,0.0,0.0,0.0,0.0,0.0,0.0,0.0,0.0,0.0,0.0,0.0,0.0,0.0,0.0,0.0,0.0,0.0,0.0,0.0,0.0,0.0,0.0,0.0,0.0,0.0,0.0,0.0,0.0,0.0,0.0,0.0,0.0,0.0,0.0,0.0,0.0,0.0,0.0,0.0,0.0,0.0,0.0,0.0,0.0,0.0,0.0,0.0,0.0,0.0,0.0,0.0,0.0,0.0,0.0,0.0,0.0,0.0,0.0,0.0,0.0,0.0,0.0,0.0,0.0,0.0,0.0,0.0,0.0,0.0,0.0,0.0,0.0,0.0,0.0,0.0,0.0,0.0,0.0,0.0,0.0,0.0,0.0,0.0,0.0,0.0,0.0,0.0,0.0,0.0,0.0,0.0,0.0,-2.0605,-2.0605,-2.0605,0.0,0.0,0.0,0.0,0.0,0.0,0.0,0.0,0.0,0.0,0.0,0.0,0.0,0.0,0.0,0.0,0.0,0.0,0.0,0.0,0.0,0.0,0.0,0.0,0.0,0.0,0.0,0.0,0.0,0.0,0.0,0.0,0.0,0.0,0.0,0.0,0.0,0.0,0.0,0.0,0.0,0.0,0.0,0.0,0.0,0.0,0.0,0.0,0.0,0.0,0.0,0.0,0.0,0.0,0.0,0.0,0.0,0.0,0.0,0.0,0.0,0.0,0.0,0.0,0.0,0.0,0.0,0.0,0.0,0.0,0.0,0.0,0.0,0.0,0.0,0.0,0.0,0.0,0.0,0.0,0.0,0.0,0.0,0.0,0.0,0.0,0.0,0.0,0.0,0.0,0.0,0.0,0.0,0.0,0.0,0.0,0.0,0.0,0.0,0.0,0.0,0.0,0.0,0.0,0.0,0.0,0.0,0.0,0.0,0.0,-2.0605,-2.0605,-2.0605,0.0,-2.0605,0.0,0.0,0.0,0.0,0.0,0.0,0.0,0.0,0.0,0.0,0.0,0.0,0.0,0.0,0.0,0.0,0.0,0.0,0.0,0.0,0.0,0.0,0.0,0.0,0.0,0.0,0.0,0.0,0.0,0.0,0.0,0.0,0.0,0.0,0.0,0.0,0.0,0.0,0.0,0.0,0.0,0.0,0.0,0.0,0.0,0.0,0.0,0.0,0.0,0.0,0.0,0.0,0.0,0.0,0.0,0.0,0.0,0.0,0.0,0.0,0.0,0.0,0.0,0.0,0.0,0.0,0.0,0.0,0.0,0.0,0.0,0.0,0.0,0.0,0.0,0.0,0.0,0.0,0.0,0.0,0.0,0.0,0.0,0.0,0.0,0.0,0.0,0.0,0.0,0.0,0.0,0.0,0.0,0.0,0.0,0.0,0.0,0.0,0.0,0.0,0.0,0.0,0.0,0.0,0.0,0.0,0.0,0.0,0.0,0.0,-2.0605,-2.0605,-2.0605,-2.0605,0.0,0.0,0.0,0.0,0.0,0.0,0.0,0.0,0.0,0.0,0.0,0.0,0.0,0.0,0.0,0.0,0.0,0.0,0.0,0.0,0.0,0.0,0.0,0.0,0.0,0.0,0.0,0.0,0.0,0.0,0.0,0.0,0.0,0.0,0.0,0.0,0.0,0.0,0.0,0.0,0.0,0.0,0.0,0.0,0.0,0.0,0.0,0.0,0.0,0.0,0.0,0.0,0.0,0.0,0.0,0.0,0.0,0.0,0.0,0.0,0.0,0.0,0.0,0.0,0.0,0.0,0.0,0.0,0.0,0.0,0.0,0.0,0.0,0.0,0.0,0.0,0.0,0.0,0.0,0.0,0.0,0.0,0.0,0.0,0.0,0.0,0.0,0.0,0.0,0.0,0.0,0.0,0.0,0.0,0.0,0.0,0.0,0.0,0.0,0.0,0.0,0.0,0.0,0.0,0.0,0.0,0.0,0.0,0.0,0.0,-2.0605,-2.0605,-2.0605,-2.0605,-2.0605,-2.0605,0.0,0.0,0.0,0.0,0.0,0.0,0.0,0.0,0.0,0.0,0.0,0.0,0.0,0.0,0.0,0.0,0.0,0.0,0.0,0.0,0.0,0.0,0.0,0.0,0.0,0.0,0.0,0.0,0.0,0.0,0.0,0.0,0.0,0.0,0.0,0.0,0.0,0.0,0.0,0.0,0.0,0.0,0.0,0.0,0.0,0.0,0.0,0.0,0.0,0.0,0.0,0.0,0.0,0.0,0.0,0.0,0.0,0.0,0.0,0.0,0.0,0.0,0.0,0.0,0.0,0.0,0.0,0.0,0.0,0.0,0.0,0.0,0.0,0.0,0.0,0.0,0.0,0.0,0.0,0.0,0.0,0.0,0.0,0.0,0.0,0.0,0.0,0.0,0.0,0.0,0.0,0.0,0.0,0.0,0.0,0.0,0.0,0.0,0.0,0.0,0.0,0.0,0.0,0.0,0.0,0.0,0.0,0.0,-2.0605,-2.0605,-2.0605,-2.0605,-2.0605,-2.0605,0.0,0.0,0.0,0.0,0.0,0.0,0.0,0.0,0.0,0.0,0.0,0.0,0.0,0.0,0.0,0.0,0.0,0.0,0.0,0.0,0.0,0.0,0.0,0.0,0.0,0.0,0.0,0.0,0.0,0.0,0.0,0.0,0.0,0.0,0.0,0.0,0.0,0.0,0.0,0.0,0.0,0.0,0.0,0.0,0.0,0.0,0.0,0.0,0.0,0.0,0.0,0.0,0.0,0.0,0.0,0.0,0.0,0.0,0.0,0.0,0.0,0.0,0.0,0.0,0.0,0.0,0.0,0.0,0.0,0.0,0.0,0.0,0.0,0.0,0.0,0.0,0.0,0.0,0.0,0.0,0.0,0.0,0.0,0.0,0.0,0.0,0.0,0.0,0.0,0.0,0.0,0.0,0.0,0.0,0.0,0.0,0.0,0.0,0.0,0.0,0.0,0.0,0.0,0.0,0.0,0.0,0.0,0.0,0.0,-2.0605,-2.0605,-2.0605,-2.0605,-2.0605,-2.0605,0.0,0.0,0.0,0.0,0.0,0.0,0.0,0.0,0.0,0.0,0.0,0.0,0.0,0.0,0.0,0.0,0.0,0.0,0.0,0.0,0.0,0.0,0.0,0.0,0.0,0.0,0.0,0.0,0.0,0.0,0.0,0.0,0.0,0.0,0.0,0.0,0.0,0.0,0.0,0.0,0.0,0.0,0.0,0.0,0.0,0.0,0.0,0.0,0.0,0.0,0.0,0.0,0.0,0.0,0.0,0.0,0.0,0.0,0.0,0.0,0.0,0.0,0.0,0.0,0.0,0.0,0.0,0.0,0.0,0.0,0.0,0.0,0.0,0.0,0.0,0.0,0.0,0.0,0.0,0.0,0.0,0.0,0.0,0.0,0.0,0.0,0.0,0.0,0.0,0.0,0.0,0.0,0.0,0.0,0.0,0.0,0.0,0.0,0.0,0.0,0.0,0.0,0.0,0.0,0.0,0.0,0.0,0.0,0.0,-2.0605,0.0,-2.0605,-2.0605,-2.0605,-2.0605,0.0,0.0,0.0,0.0,0.0,0.0,0.0,0.0,0.0,0.0,0.0,0.0,0.0,0.0,0.0,0.0,0.0,0.0,0.0,0.0,0.0,0.0,0.0,0.0,0.0,0.0,0.0,0.0,0.0,0.0,0.0,0.0,0.0,0.0,0.0,0.0,0.0,0.0,0.0,0.0,0.0,0.0,0.0,0.0,0.0,0.0,0.0,0.0,0.0,0.0,0.0,0.0,0.0,0.0,0.0,0.0,0.0,0.0,0.0,0.0,0.0,0.0,0.0,0.0,0.0,0.0,0.0,0.0,0.0,0.0,0.0,0.0,0.0,0.0,0.0,0.0,0.0,0.0,0.0,0.0,0.0,0.0,0.0,0.0,0.0,0.0,0.0,0.0,0.0,0.0,0.0,0.0,0.0,0.0,0.0,0.0,0.0,0.0,0.0,0.0,0.0,0.0,0.0,0.0,0.0,0.0,0.0,0.0,-2.0625,-2.0664,-2.0625,-2.0625,-2.0625,-2.0625,-2.0605,0.0,0.0,0.0,0.0,0.0,0.0,0.0,0.0,0.0,0.0,0.0,0.0,0.0,0.0,0.0,0.0,0.0,0.0,0.0,0.0,0.0,0.0,0.0,0.0,0.0,0.0,0.0,0.0,0.0,0.0,0.0,0.0,0.0,0.0,0.0,0.0,0.0,0.0,0.0,0.0,0.0,0.0,0.0,0.0,0.0,0.0,0.0,0.0,0.0,0.0,0.0,0.0,0.0,0.0,0.0,0.0,0.0,0.0,0.0,0.0,0.0,0.0,0.0,0.0,0.0,0.0,0.0,0.0,0.0,0.0,0.0,0.0,0.0,0.0,0.0,0.0,0.0,0.0,0.0,0.0,0.0,0.0,0.0,0.0,0.0,0.0,0.0,0.0,0.0,0.0,0.0,0.0,0.0,0.0,0.0,0.0,0.0,0.0,0.0,0.0,0.0,0.0,0.0,0.0,0.0,0.0,0.0,0.0,0.0,-2.2344,-2.1211,-2.0879,-2.1445,-2.0918,-2.0605,0.0,0.0,0.0,0.0,0.0,0.0,0.0,0.0,0.0,0.0,0.0,0.0,0.0,0.0,0.0,0.0,0.0,0.0,0.0,0.0,0.0,0.0,0.0,0.0,0.0,0.0,0.0,0.0,0.0,0.0,0.0,0.0,0.0,0.0,0.0,0.0,0.0,0.0,0.0,0.0,0.0,0.0,0.0,0.0,0.0,0.0,0.0,0.0,0.0,0.0,0.0,0.0,0.0,0.0,0.0,0.0,0.0,0.0,0.0,0.0,0.0,0.0,0.0,0.0,0.0,0.0,0.0,0.0,0.0,0.0,0.0,0.0,0.0,0.0,0.0,0.0,0.0,0.0,0.0,0.0,0.0,0.0,0.0,0.0,0.0,0.0,0.0,0.0,0.0,0.0,0.0,0.0,0.0,0.0,0.0,0.0,0.0,0.0,0.0,0.0,0.0,0.0,0.0,0.0,0.0,0.0,0.0,0.0,0.0,-2.3984,-2.2422,-2.1797,-2.2324,-2.1836,-2.125,-2.0625,0.0,0.0,0.0,0.0,0.0,0.0,0.0,0.0,0.0,0.0,0.0,0.0,0.0,0.0,0.0,0.0,0.0,0.0,0.0,0.0,0.0,0.0,0.0,0.0,0.0,0.0,0.0,0.0,0.0,0.0,0.0,0.0,0.0,0.0,0.0,0.0,0.0,0.0,0.0,0.0,0.0,0.0,0.0,0.0,0.0,0.0,0.0,0.0,0.0,0.0,0.0,0.0,0.0,0.0,0.0,0.0,0.0,0.0,0.0,0.0,0.0,0.0,0.0,0.0,0.0,0.0,0.0,0.0,0.0,0.0,0.0,0.0,0.0,0.0,0.0,0.0,0.0,0.0,0.0,0.0,0.0,0.0,0.0,0.0,0.0,0.0,0.0,0.0,0.0,0.0,0.0,0.0,0.0,0.0,0.0,0.0,0.0,0.0,0.0,0.0,0.0,0.0,0.0,0.0,0.0,0.0,0.0,0.0,-2.5742,-2.4199,-2.3398,-2.334,-2.3223,-2.2422,0.0,0.0,0.0,0.0,0.0,0.0,0.0,0.0,0.0,0.0,0.0,0.0,0.0,0.0,0.0,0.0,0.0,0.0,0.0,0.0,0.0,0.0,0.0,0.0,0.0,0.0,0.0,0.0,0.0,0.0,0.0,0.0,0.0,0.0,0.0,0.0,0.0,0.0,0.0,0.0,0.0,0.0,0.0,0.0,0.0,0.0,0.0,0.0,0.0,0.0,0.0,0.0,0.0,0.0,0.0,0.0,0.0,0.0,0.0,0.0,0.0,0.0,0.0,0.0,0.0,0.0,0.0,0.0,0.0,0.0,0.0,0.0,0.0,0.0,0.0,0.0,0.0,0.0,0.0,0.0,0.0,0.0,0.0,0.0,0.0,0.0,0.0,0.0,0.0,0.0,0.0,0.0,0.0,0.0,0.0,0.0,0.0,0.0,0.0,0.0,0.0,0.0,0.0,0.0,0.0,0.0,0.0,0.0,0.0,-2.6543,-2.6836,-2.6641,-2.5957,-2.4121,-2.291,0.0,0.0,0.0,0.0,0.0,0.0,0.0,0.0,0.0,0.0,0.0,0.0,0.0,0.0,0.0,0.0,0.0,0.0,0.0,0.0,0.0,0.0,0.0,0.0,0.0,0.0,0.0,0.0,0.0,0.0,0.0,0.0,0.0,0.0,0.0,0.0,0.0,0.0,0.0,0.0,0.0,0.0,0.0,0.0,0.0,0.0,0.0,0.0,0.0,0.0,0.0,0.0,0.0,0.0,0.0,0.0,0.0,0.0,0.0,0.0,0.0,0.0,0.0,0.0,0.0,0.0,0.0,0.0,0.0,0.0,0.0,0.0,0.0,0.0,0.0,0.0,0.0,0.0,0.0,0.0,0.0,0.0,0.0,0.0,0.0,0.0,0.0,0.0,0.0,0.0,0.0,0.0,0.0,0.0,0.0,0.0,0.0,0.0,0.0,0.0,0.0,0.0,0.0,0.0,0.0,0.0,0.0,0.0,-2.4922,-2.6445,-2.8398,-2.916,-2.8652,-2.5742,-2.3848,0.0,0.0,0.0,0.0,0.0,0.0,0.0,0.0,0.0,0.0,0.0,0.0,0.0,0.0,0.0,0.0,0.0,0.0,0.0,0.0,0.0,0.0,0.0,0.0,0.0,0.0,0.0,0.0,0.0,0.0,0.0,0.0,0.0,0.0,0.0,0.0,0.0,0.0,0.0,0.0,0.0,0.0,0.0,0.0,0.0,0.0,0.0,0.0,0.0,0.0,0.0,0.0,0.0,0.0,0.0,0.0,0.0,0.0,0.0,0.0,0.0,0.0,0.0,0.0,0.0,0.0,0.0,0.0,0.0,0.0,0.0,0.0,0.0,0.0,0.0,0.0,0.0,0.0,0.0,0.0,0.0,0.0,0.0,0.0,0.0,0.0,0.0,0.0,0.0,0.0,0.0,0.0,0.0,0.0,0.0,0.0,0.0,0.0,0.0,0.0,0.0,0.0,0.0,0.0,0.0,0.0,0.0,0.0,-2.5801,-2.5996,-2.9199,-3.0918,-3.082,-2.7519,-2.5,0.0,0.0,0.0,0.0,0.0,0.0,0.0,0.0,0.0,0.0,0.0,0.0,0.0,0.0,0.0,0.0,0.0,0.0,0.0,0.0,0.0,0.0,0.0,0.0,0.0,0.0,0.0,0.0,0.0,0.0,0.0,0.0,0.0,0.0,0.0,0.0,0.0,0.0,0.0,0.0,0.0,0.0,0.0,0.0,0.0,0.0,0.0,0.0,0.0,0.0,0.0,0.0,0.0,0.0,0.0,0.0,0.0,0.0,0.0,0.0,0.0,0.0,0.0,0.0,0.0,0.0,0.0,0.0,0.0,0.0,0.0,0.0,0.0,0.0,0.0,0.0,0.0,0.0,0.0,0.0,0.0,0.0,0.0,0.0,0.0,0.0,0.0,0.0,0.0,0.0,0.0,0.0,0.0,0.0,0.0,0.0,0.0,0.0,0.0,0.0,0.0,0.0,0.0,0.0,0.0,0.0,0.0,0.0,-2.6367,-2.7754,-2.9824,-3.0918,-3.0898,-2.7519,-2.5547,0.0,0.0,0.0,0.0,0.0,0.0,0.0,0.0,0.0,0.0,0.0,0.0,0.0,0.0,0.0,0.0,0.0,0.0,0.0,0.0,0.0,0.0,0.0,0.0,0.0,0.0,0.0,0.0,0.0,0.0,0.0,0.0,0.0,0.0,0.0,0.0,0.0,0.0,0.0,0.0,0.0,0.0,0.0,0.0,0.0,0.0,0.0,0.0,-1.7156,0.0,0.0,0.0,0.0,0.0,0.0,0.0,0.0,0.0,0.0,0.0,0.0,0.0,0.0,0.0,0.0,0.0,0.0,0.0,0.0,0.0,0.0,0.0,0.0,0.0,0.0,0.0,0.0,0.0,0.0,0.0,0.0,0.0,0.0,0.0,0.0,0.0,0.0,0.0,0.0,0.0,0.0,0.0,0.0,0.0,0.0,0.0,0.0,0.0,0.0,0.0,0.0,0.0,0.0,0.0,0.0,0.0,0.0,0.0,-2.6543,-2.8262,-3.0,-3.0918,-3.082,-2.832,-2.6543,0.0,0.0,0.0,0.0,0.0,0.0,0.0,0.0,0.0,0.0,0.0,0.0,0.0,0.0,0.0,0.0,0.0,0.0,0.0,0.0,0.0,0.0,0.0,0.0,0.0,0.0,0.0,0.0,0.0,0.0,0.0,0.0,0.0,0.0,0.0,0.0,0.0,0.0,0.0,0.0,0.0,0.0,0.0,0.0,0.0,0.0,0.0,0.0,0.0,0.0,0.0,0.0,0.0,0.0,0.0,0.0,0.0,0.0,0.0,0.0,0.0,0.0,0.0,0.0,0.0,0.0,0.0,0.0,0.0,0.0,0.0,0.0,0.0,0.0,0.0,0.0,0.0,0.0,0.0,0.0,0.0,0.0,0.0,0.0,0.0,0.0,0.0,0.0,0.0,0.0,0.0,0.0,0.0,0.0,0.0,0.0,0.0,0.0,0.0,0.0,0.0,0.0,0.0,0.0,0.0,0.0,0.0,-2.498,-2.668,-2.8652,-3.0137,-3.0918,-3.0879,-2.9219,-2.748,-2.5742,0.0,0.0,0.0,0.0,0.0,0.0,0.0,0.0,0.0,0.0,0.0,0.0,0.0,0.0,0.0,0.0,0.0,0.0,0.0,0.0,0.0,0.0,0.0,0.0,0.0,0.0,0.0,0.0,0.0,0.0,0.0,0.0,0.0,0.0,0.0,0.0,0.0,0.0,-1.5762,-1.5586,0.0,0.0,0.0,0.0,0.0,0.0,0.0,0.0,-1.6781,0.0,0.0,0.0,0.0,0.0,0.0,0.0,0.0,0.0,0.0,0.0,0.0,0.0,0.0,0.0,0.0,0.0,0.0,0.0,0.0,0.0,0.0,0.0,0.0,0.0,0.0,0.0,0.0,0.0,0.0,0.0,0.0,0.0,0.0,0.0,0.0,0.0,0.0,0.0,0.0,0.0,0.0,0.0,0.0,0.0,0.0,0.0,0.0,0.0,0.0,0.0,0.0,0.0,0.0,0.0,0.0,-2.5234,-2.5547,-2.7246,-3.0371,-3.0762,-3.0918,-3.0859,-2.9219,-2.744,-2.5673,0.0,0.0,0.0,0.0,0.0,0.0,0.0,0.0,0.0,0.0,0.0,0.0,0.0,0.0,0.0,0.0,0.0,0.0,0.0,0.0,0.0,0.0,0.0,0.0,0.0,0.0,0.0,0.0,0.0,0.0,0.0,0.0,0.0,0.0,0.0,0.0,0.0,0.0,0.0,-1.6309,-1.6035,0.0,0.0,0.0,0.0,0.0,0.0,0.0,0.0,-1.7975,0.0,0.0,0.0,0.0,0.0,0.0,0.0,0.0,0.0,0.0,0.0,0.0,0.0,0.0,0.0,0.0,0.0,0.0,0.0,0.0,0.0,0.0,0.0,0.0,0.0,0.0,0.0,0.0,0.0,0.0,0.0,0.0,0.0,0.0,0.0,0.0,0.0,0.0,0.0,0.0,0.0,0.0,0.0,0.0,0.0,0.0,0.0,0.0,0.0,0.0,0.0,0.0,0.0,0.0,0.0,-2.5605,-2.6582,-2.8301,-3.0801,-3.0918,-3.0878,-3.0755,-2.9136,-2.7409,0.0,0.0,0.0,0.0,0.0,0.0,0.0,0.0,0.0,0.0,0.0,0.0,0.0,0.0,0.0,0.0,0.0,0.0,0.0,0.0,0.0,0.0,0.0,0.0,0.0,0.0,0.0,0.0,0.0,0.0,0.0,0.0,0.0,0.0,0.0,0.0,0.0,0.0,0.0,0.0,-1.7285,-1.7383,-1.9102,0.0,0.0,0.0,0.0,0.0,0.0,-1.8382,-1.8078,0.0,0.0,0.0,0.0,0.0,0.0,0.0,0.0,0.0,0.0,0.0,0.0,0.0,0.0,0.0,0.0,0.0,0.0,0.0,0.0,0.0,0.0,0.0,0.0,0.0,0.0,0.0,0.0,0.0,0.0,0.0,0.0,0.0,0.0,0.0,0.0,0.0,0.0,0.0,0.0,0.0,0.0,0.0,0.0,0.0,0.0,0.0,0.0,0.0,0.0,0.0,0.0,0.0,0.0,0.0,-2.5663,-2.738,-2.9119,-3.0801,-3.0878,-3.0814,-3.0657,-2.8731,-2.6978,0.0,0.0,0.0,0.0,0.0,0.0,0.0,0.0,0.0,0.0,0.0,0.0,0.0,0.0,0.0,0.0,0.0,0.0,0.0,0.0,0.0,0.0,0.0,0.0,0.0,0.0,0.0,0.0,0.0,0.0,0.0,0.0,0.0,0.0,0.0,0.0,0.0,0.0,0.0,0.0,0.0,-1.8633,-2.0332,-1.9102,0.0,0.0,0.0,0.0,-1.8347,-1.8597,0.0,0.0,0.0,0.0,0.0,0.0,0.0,0.0,0.0,0.0,0.0,0.0,0.0,0.0,0.0,0.0,0.0,0.0,0.0,0.0,0.0,0.0,0.0,0.0,0.0,0.0,0.0,0.0,0.0,0.0,0.0,0.0,0.0,0.0,0.0,0.0,0.0,0.0,0.0,0.0,0.0,0.0,0.0,0.0,0.0,0.0,0.0,0.0,0.0,0.0,0.0,0.0,0.0,0.0,0.0,0.0,-2.5591,-2.7262,-2.9037,-3.0781,-3.0791,-3.0699,-3.0656,-2.7597,-2.5753,0.0,0.0,0.0,0.0,0.0,0.0,0.0,0.0,0.0,0.0,0.0,0.0,0.0,0.0,0.0,0.0,0.0,0.0,0.0,0.0,0.0,0.0,0.0,0.0,0.0,0.0,0.0,0.0,0.0,0.0,0.0,0.0,0.0,0.0,0.0,0.0,0.0,0.0,0.0,0.0,0.0,-1.8633,-2.0352,-1.9102,-1.8008,0.0,0.0,-2.0106,-2.0099,-2.1301,0.0,0.0,0.0,0.0,0.0,0.0,0.0,0.0,0.0,0.0,0.0,0.0,0.0,0.0,0.0,0.0,0.0,0.0,0.0,0.0,0.0,0.0,0.0,0.0,0.0,0.0,0.0,0.0,0.0,0.0,0.0,0.0,0.0,0.0,0.0,0.0,0.0,0.0,0.0,0.0,0.0,0.0,0.0,0.0,0.0,0.0,0.0,0.0,0.0,0.0,0.0,0.0,0.0,0.0,0.0,-2.4781,-2.5611,-2.8165,-2.991,-3.0702,-3.0663,-3.0614,-3.0574,-2.7279,-2.5443,0.0,0.0,0.0,0.0,0.0,0.0,0.0,0.0,0.0,0.0,0.0,0.0,0.0,0.0,0.0,0.0,0.0,0.0,0.0,0.0,0.0,0.0,0.0,0.0,0.0,0.0,0.0,0.0,0.0,0.0,0.0,0.0,0.0,0.0,0.0,0.0,0.0,0.0,0.0,0.0,0.0,0.0,-2.0508,-1.9941,0.0,0.0,0.0,-2.0043,-1.9094,0.0,0.0,0.0,0.0,0.0,0.0,0.0,0.0,0.0,0.0,0.0,0.0,0.0,0.0,0.0,0.0,0.0,0.0,0.0,0.0,0.0,0.0,0.0,0.0,0.0,0.0,0.0,0.0,0.0,0.0,0.0,0.0,0.0,0.0,0.0,0.0,0.0,0.0,0.0,0.0,0.0,0.0,0.0,0.0,0.0,0.0,0.0,0.0,0.0,0.0,0.0,0.0,0.0,0.0,0.0,0.0,0.0,-2.5546,-2.8822,-3.0561,-3.0603,-3.0584,-3.054,-3.0445,-2.7613,0.0,0.0,0.0,0.0,0.0,0.0,0.0,0.0,0.0,0.0,0.0,0.0,0.0,0.0,0.0,0.0,0.0,0.0,0.0,0.0,0.0,0.0,0.0,0.0,0.0,0.0,0.0,0.0,0.0,0.0,0.0,0.0,0.0,0.0,0.0,0.0,0.0,0.0,0.0,0.0,0.0,0.0,-2.0605,-2.0605,-2.0605,-2.0742,0.0,0.0,-2.0095,-1.9212,-2.1531,-2.2274,0.0,0.0,0.0,0.0,0.0,0.0,0.0,0.0,0.0,0.0,0.0,0.0,0.0,0.0,0.0,0.0,0.0,0.0,0.0,0.0,0.0,0.0,0.0,0.0,0.0,0.0,0.0,0.0,0.0,0.0,0.0,0.0,0.0,0.0,0.0,0.0,0.0,0.0,0.0,0.0,0.0,0.0,0.0,0.0,0.0,0.0,0.0,0.0,0.0,0.0,0.0,0.0,0.0,0.0,0.0,-2.5534,-2.8714,-3.0487,-3.0594,-3.0541,-3.0507,-3.046,-2.8764,-2.7031,0.0,0.0,0.0,0.0,0.0,0.0,0.0,0.0,0.0,0.0,0.0,0.0,0.0,0.0,0.0,0.0,0.0,0.0,0.0,0.0,0.0,0.0,0.0,0.0,0.0,0.0,0.0,0.0,0.0,0.0,0.0,0.0,0.0,0.0,0.0,0.0,0.0,0.0,0.0,0.0,0.0,-2.0605,-2.0605,-2.0605,-2.1171,0.0,0.0,-2.0895,-2.2326,-2.3962,-2.3981,-2.0635,0.0,0.0,0.0,0.0,0.0,0.0,0.0,0.0,0.0,0.0,0.0,0.0,0.0,0.0,0.0,0.0,0.0,0.0,0.0,0.0,0.0,0.0,0.0,0.0,0.0,0.0,0.0,0.0,0.0,0.0,0.0,0.0,0.0,0.0,0.0,0.0,0.0,0.0,0.0,0.0,0.0,0.0,0.0,0.0,0.0,0.0,0.0,0.0,0.0,0.0,0.0,0.0,0.0,-2.5335,-2.5372,-2.8667,-3.0422,-3.0463,-3.0462,-3.0436,-3.0436,-2.882,-2.7123,0.0,0.0,0.0,0.0,0.0,0.0,0.0,0.0,0.0,0.0,0.0,0.0,0.0,0.0,0.0,0.0,0.0,0.0,0.0,0.0,0.0,0.0,0.0,0.0,0.0,0.0,0.0,0.0,-1.9199,-1.918,-1.8125,0.0,0.0,0.0,0.0,0.0,0.0,0.0,0.0,0.0,0.0,-2.0957,-2.1973,-2.2148,0.0,0.0,-2.2471,-2.1823,-2.1375,-2.2689,-2.2601,-1.9234,-1.8696,0.0,0.0,0.0,0.0,0.0,0.0,0.0,0.0,0.0,0.0,0.0,0.0,0.0,0.0,0.0,0.0,0.0,0.0,0.0,0.0,0.0,0.0,0.0,0.0,0.0,0.0,0.0,0.0,0.0,0.0,0.0,0.0,0.0,0.0,0.0,0.0,0.0,0.0,0.0,0.0,0.0,0.0,0.0,0.0,0.0,0.0,0.0,0.0,0.0,0.0,0.0,0.0,-2.5308,-2.5308,-2.8654,-3.0404,-3.0404,-3.0404,-3.0404,-3.0365,-2.9275,-2.7832,0.0,0.0,0.0,0.0,0.0,0.0,0.0,0.0,0.0,0.0,0.0,0.0,0.0,0.0,0.0,0.0,0.0,0.0,0.0,0.0,0.0,0.0,0.0,0.0,0.0,0.0,0.0,0.0,-1.9469,-1.9313,-1.8104,0.0,0.0,0.0,0.0,0.0,0.0,0.0,0.0,0.0,0.0,-2.1601,-2.2245,-2.2343,-2.2318,-2.2281,-2.1807,-2.1164,-2.0421,-2.129,-2.1216,-1.8853,0.0,0.0,0.0,0.0,0.0,0.0,0.0,0.0,0.0,0.0,0.0,0.0,0.0,0.0,0.0,0.0,0.0,0.0,0.0,0.0,0.0,0.0,0.0,0.0,0.0,0.0,0.0,0.0,0.0,0.0,-1.7603,0.0,0.0,0.0,0.0,0.0,0.0,0.0,0.0,0.0,0.0,0.0,0.0,0.0,0.0,0.0,0.0,0.0,0.0,0.0,0.0,0.0,0.0,-2.5308,-2.5346,-2.8673,-3.0404,-3.0404,-3.0404,-3.0404,-3.0404,-3.0346,-2.9538,-2.7838,0.0,0.0,0.0,0.0,0.0,0.0,0.0,0.0,0.0,0.0,0.0,0.0,0.0,0.0,0.0,0.0,0.0,0.0,0.0,0.0,0.0,0.0,0.0,0.0,0.0,0.0,-1.5749,-1.6964,-1.7974,0.0,0.0,0.0,0.0,0.0,0.0,0.0,0.0,0.0,0.0,-2.0957,-2.248,-2.0831,-2.0575,-2.0636,-2.0558,-1.9101,-1.8531,-2.0073,-2.0331,-2.0327,0.0,0.0,0.0,0.0,0.0,0.0,0.0,0.0,0.0,0.0,0.0,0.0,0.0,0.0,0.0,0.0,0.0,0.0,0.0,0.0,0.0,0.0,0.0,0.0,0.0,0.0,0.0,-1.9423,-1.9442,0.0,0.0,0.0,0.0,0.0,0.0,0.0,0.0,0.0,0.0,0.0,-2.4442,-2.4442,0.0,0.0,0.0,0.0,0.0,0.0,0.0,0.0,0.0,0.0,0.0,0.0,-2.5308,-2.5462,-2.8654,-3.0404,-3.0404,-3.0404,-3.0404,-3.0404,-3.0404,-2.9615,-2.7953,0.0,0.0,0.0,0.0,0.0,0.0,0.0,0.0,0.0,0.0,0.0,0.0,0.0,0.0,0.0,0.0,0.0,0.0,0.0,0.0,0.0,0.0,0.0,0.0,0.0,-1.7606,0.0,0.0,0.0,0.0,0.0,0.0,0.0,0.0,0.0,0.0,0.0,-1.8396,-1.9442,-1.9653,-1.9876,-2.0418,-2.0516,-2.0889,0.0,0.0,0.0,0.0,0.0,0.0,0.0,0.0,0.0,0.0,0.0,0.0,0.0,0.0,-1.8231,-1.7061,-1.7792,-1.8577,-1.8596,0.0,0.0,0.0,0.0,0.0,0.0,0.0,0.0,0.0,0.0,0.0,0.0,0.0,0.0,0.0,0.0,-2.1793,0.0,0.0,0.0,0.0,0.0,0.0,0.0,0.0,-2.4909,-2.5717,-2.6212,-2.6197,-2.6212,0.0,-2.5596,-2.4168,0.0,0.0,0.0,0.0,0.0,0.0,0.0,0.0,-2.5308,-2.5442,-2.8654,-3.0404,-3.0404,-3.0404,-3.0404,-3.0404,-3.0404,-2.9885,-2.8794,-2.7121,-2.5697,0.0,0.0,0.0,0.0,0.0,0.0,0.0,0.0,0.0,0.0,0.0,0.0,0.0,0.0,0.0,0.0,0.0,0.0,0.0,0.0,0.0,0.0,0.0,-1.8019,0.0,0.0,0.0,0.0,0.0,0.0,0.0,0.0,0.0,-1.7856,-1.8433,-1.9239,-2.0299,-2.0012,-1.9694,-1.9597,0.0,0.0,0.0,0.0,0.0,0.0,0.0,-1.7545,-1.7038,-1.7465,-1.8212,-1.9277,-1.9927,-2.0288,-2.0288,0.0,0.0,-1.8927,-1.9523,-2.0288,-2.0288,-2.0288,-2.0288,-2.0288,-2.0288,-2.0288,0.0,0.0,0.0,0.0,0.0,0.0,0.0,0.0,-2.5346,-2.4462,0.0,-2.4654,0.0,0.0,0.0,0.0,0.0,-2.4481,0.0,0.0,-2.8654,-2.9486,-2.8049,-2.7967,-2.7972,-2.7876,-2.6327,-2.55,-2.5462,-2.5462,0.0,0.0,0.0,0.0,0.0,0.0,-2.5322,-2.5519,-2.8712,-3.0404,-3.0404,-3.0404,-3.0404,-3.0404,-3.0404,-3.0385,-3.0327,-2.8813,-2.7928,-2.7794,-2.3197,0.0,0.0,0.0,0.0,0.0,0.0,0.0,0.0,0.0,0.0,0.0,0.0,0.0,0.0,0.0,0.0,0.0,0.0,0.0,0.0,-1.7757,0.0,0.0,0.0,0.0,0.0,0.0,0.0,0.0,0.0,0.0,-1.7946,-1.9272,-2.0347,-2.0376,0.0,0.0,0.0,0.0,-1.925,-1.6081,-1.5494,-1.5548,-1.5589,-1.683,-1.835,-1.9981,0.0,0.0,-2.2759,-2.1504,-2.0558,-2.05,-2.187,-2.235,-2.0788,-2.0596,-2.0615,-2.0596,-2.0673,-2.0519,-2.0481,-2.0808,-2.0712,-2.8102,0.0,0.0,0.0,0.0,-2.5505,-2.614,-2.7159,-2.714,-2.6895,-2.6467,-2.6948,0.0,0.0,0.0,0.0,0.0,0.0,-2.5962,-2.7178,-2.8159,-2.8986,-2.9673,-2.9692,-2.9698,-2.9654,-2.9173,-2.8942,-2.8942,-2.8942,-2.6846,-2.2851,0.0,0.0,0.0,0.0,-2.5904,-2.7198,-2.9308,-3.0404,-3.0404,-3.0404,-3.0404,-3.0404,-3.0404,-3.0404,-3.0404,-2.9942,-2.914,-2.7934,-2.5909,0.0,0.0,0.0,0.0,0.0,0.0,0.0,0.0,0.0,0.0,0.0,0.0,0.0,0.0,0.0,0.0,0.0,0.0,0.0,-1.7696,-1.8815,-1.8788,0.0,0.0,0.0,0.0,0.0,0.0,0.0,0.0,0.0,-1.9571,-1.901,-1.8595,0.0,0.0,-1.7252,-1.6254,-1.7522,-1.8657,-1.891,0.0,0.0,0.0,-2.0023,-1.9735,-2.0231,-2.1696,-2.2797,-2.2797,-2.3365,-2.3861,-2.3846,-2.4269,-2.4409,-2.4019,-2.3865,-2.3827,-2.3885,-2.3865,-2.3865,-2.3861,-2.3865,-2.3827,-3.3295,-3.1679,-2.903,-2.7986,-2.8096,-2.8096,-2.8775,-2.989,-2.9871,-2.9525,-2.8948,-2.9602,-2.8563,-2.6308,-2.5981,0.0,0.0,0.0,-2.7442,-2.939,-2.9044,-2.9596,-3.0846,-3.0558,-3.0404,-3.0404,-3.0404,-3.0404,-3.0385,-2.9712,-2.7871,-2.4913,0.0,0.0,-2.3832,-2.5486,-2.6851,-2.7934,-2.9538,-3.0404,-3.0404,-3.0404,-3.0404,-3.0404,-3.0404,-3.0404,-3.0404,-3.0404,-2.9942,-2.8909,-2.7428,-2.5288,0.0,0.0,0.0,0.0,0.0,0.0,0.0,0.0,0.0,0.0,0.0,-1.7273,0.0,0.0,0.0,0.0,-1.8715,-1.8734,-1.8738,-1.9061,0.0,0.0,0.0,0.0,0.0,0.0,0.0,-1.7327,-1.9023,-2.0294,-2.028,-1.9473,-1.9078,-1.9723,-1.8984,-1.8141,-1.747,0.0,-2.0468,-2.0826,-2.1136,-2.1663,-2.2633,-2.2235,-2.1908,-2.225,-2.3081,-2.3774,-2.3832,-2.4654,-2.5269,-2.5308,-2.5308,-2.5308,-2.5308,-2.5308,-2.5308,-2.5308,-2.5308,-2.5308,-2.5308,-2.5308,-2.5308,-3.8296,-3.7757,-3.1468,-2.966,-3.0865,-3.0885,-3.1698,-3.2968,-3.3006,-3.2096,-3.075,-3.2218,-3.1198,-2.8261,-2.7448,0.0,-2.8299,-2.8313,-2.9544,-3.1756,-3.0962,-3.1019,-3.1737,-3.0981,-3.0596,-3.0596,-3.0596,-3.0615,-3.0558,-2.9025,-2.8126,-2.7986,-2.7928,-2.7024,-2.5481,-2.689,-2.7761,-2.7909,-2.9404,-3.025,-3.0404,-3.0404,-3.0404,-3.0404,-3.0404,-3.0404,-3.0404,-3.0404,-3.0404,-3.0327,-2.8154,-2.6442,-2.5365,0.0,0.0,0.0,0.0,0.0,0.0,0.0,0.0,0.0,0.0,0.0,0.0,0.0,0.0,0.0,-2.0327,0.0,-2.05,-1.9042,0.0,0.0,0.0,-1.8523,-2.0115,-2.0404,-2.0446,-2.0308,0.0,0.0,-2.0614,0.0,-2.1336,-2.306,-2.3007,-2.2258,-2.0811,-2.2621,-2.3727,-2.2207,-2.272,-2.3288,-2.3556,-2.4009,-2.4606,-2.5231,-2.55,-2.5481,-2.5385,-2.5404,-2.5423,-2.5308,-2.5308,-2.5308,-2.5308,-2.5308,-2.5303,-2.5269,-2.5279,-2.5308,-2.5308,-2.5308,-2.5308,-4.0904,-4.0654,-3.7796,-3.6065,-3.5212,-3.5192,-3.4699,-3.391,-3.3898,-3.3295,-3.2352,-3.2737,-3.2468,-3.1698,-3.1487,-3.1525,-3.1718,-3.1698,-3.2025,-3.2583,-3.2391,-3.2429,-3.2602,-3.241,-3.2314,-3.2295,-3.2314,-3.2295,-3.2256,-3.1295,-3.0121,-2.8838,-2.8203,-2.7024,-2.538,-2.5712,-2.6577,-2.7895,-2.8294,-2.9121,-3.0346,-3.0404,-3.0404,-3.0404,-3.0404,-3.0404,-3.0404,-3.0404,-3.0404,-3.0385,-2.9808,-2.8519,-2.639,-2.3505,0.0,0.0,0.0,0.0,0.0,0.0,0.0,0.0,0.0,-1.7157,-1.5907,0.0,-1.7869,0.0,-2.0677,-2.2216,-2.2197,-2.1835,0.0,0.0,-1.9923,-1.985,-2.0269,-2.1423,-2.1696,-2.0442,-2.2011,-2.3207,-2.3193,-2.3774,-2.4825,-2.641,-2.3918,-2.1995,-2.2272,-2.3899,-2.4989,-2.471,-2.5725,-2.6679,-2.6606,-2.6837,-2.701,-2.726,-2.7255,-2.7044,-2.6409,-2.6288,-2.6096,-2.5462,-2.5308,-2.5308,-2.5322,-2.5308,-2.5243,-2.5116,-2.5203,-2.5308,-2.5308,-2.5284,-2.5308,-4.2374,-4.2297,-4.1393,-4.0431,-3.945,-3.7923,-3.6757,-3.5911,-3.5892,-3.5622,-3.518,-3.518,-3.4968,-3.4584,-3.4218,-3.3833,-3.3468,-3.3083,-3.3103,-3.3449,-3.3083,-3.3103,-3.3449,-3.3083,-3.2891,-3.2891,-3.2891,-3.2891,-3.2872,-3.2449,-3.1737,-3.0794,-3.0333,-2.9275,-2.7577,-2.6053,-2.5769,-2.6717,-2.7505,-2.8717,-3.0327,-3.0404,-3.0038,-2.9313,-2.9288,-2.8923,-2.8173,-2.8135,-2.8135,-2.811,-2.8135,-2.7332,-2.5543,-2.3081,-2.0873,0.0,0.0,0.0,0.0,0.0,0.0,0.0,0.0,0.0,0.0,0.0,-1.885,0.0,-2.1258,-2.2489,-2.1754,-2.1677,-2.1596,-2.1446,-2.1408,-2.185,-2.2966,-2.3928,-2.4293,-2.3755,-2.4927,-2.5784,-2.5803,-2.6217,-2.6978,-2.8247,-2.6424,-2.4969,-2.5178,-2.6244,-2.7051,-2.7109,-2.8167,-2.8871,-2.853,-2.8434,-2.8319,-2.7967,-2.789,-2.7736,-2.7274,-2.7178,-2.7024,-2.6558,-2.637,-2.6148,-2.5822,-2.5663,-2.5488,-2.5051,-2.5006,-2.508,-2.5086,-2.508,-2.508,-4.3412,-4.3412,-4.3297,-4.3239,-4.3028,-3.995,-3.8527,-3.8315,-3.8315,-3.82,-3.8007,-3.8007,-3.7584,-3.6827,-3.6135,-3.5411,-3.4648,-3.391,-3.3968,-3.4629,-3.3891,-3.3891,-3.4475,-3.3737,-3.3333,-3.3237,-3.3237,-3.3237,-3.3218,-3.3122,-3.2949,-3.2756,-3.2641,-3.1737,-3.0038,-2.7135,-2.5519,-2.5322,-2.7024,-2.8602,-3.0019,-2.9865,-2.9038,-2.7659,-2.7563,-2.6851,-2.5385,-2.5308,-2.5308,-2.5308,-2.5308,-2.5077,-2.4548,-2.2081,-2.0369,0.0,-1.7311,0.0,0.0,0.0,0.0,0.0,0.0,0.0,0.0,-2.0288,-2.0365,-2.0596,-2.1932,-2.2293,-2.1058,-2.0942,-2.1562,-2.3086,-2.3297,-2.4216,-2.6442,-2.6774,-2.7044,-2.7818,-2.7992,-2.8068,-2.7992,-2.8126,-2.8511,-2.9146,-2.9088,-2.8676,-2.8396,-2.8728,-2.9151,-2.9261,-2.9904,-2.9987,-2.9429,-2.9256,-2.9069,-2.8415,-2.8352,-2.8179,-2.8088,-2.8049,-2.8011,-2.7841,-2.7553,-2.721,-2.6562,-2.6292,-2.5887,-2.5137,-2.4986,-2.4952,-2.4856,-2.4832,-2.4804,-4.5133,-4.5056,-4.4355,-4.4066,-4.3951,-4.2681,-4.1335,-4.0035,-4.0035,-3.9258,-3.8027,-3.8007,-3.7911,-3.7738,-3.7603,-3.743,-3.7257,-3.7103,-3.7123,-3.7276,-3.7123,-3.6738,-3.6238,-3.6058,-3.5635,-3.5038,-3.5019,-3.5,-3.5,-3.4295,-3.3256,-3.1929,-3.1231,-3.0019,-2.8429,0.0,0.0,0.0,-2.7005,-2.8063,-2.8294,-2.6981,-2.6115,-2.5808,-2.5788,0.0,-2.5327,-2.5308,-2.5308,-2.5308,-2.5308,0.0,0.0,0.0,0.0,0.0,0.0,0.0,0.0,0.0,0.0,0.0,-1.9985,-1.9962,-2.025,-2.0288,-2.0846,-2.2182,-2.2624,-2.3235,-2.425,-2.4365,-2.4769,-2.5736,-2.587,-2.637,-2.7505,-2.7659,-2.7736,-2.7871,-2.8472,-2.8876,-2.8915,-2.9467,-2.9942,-3.0058,-3.0154,-3.0096,-2.9904,-3.0006,-3.0135,-3.0173,-3.0288,-3.0346,-3.0173,-3.0115,-3.0019,-2.9942,-2.9923,-2.9621,-2.903,-2.8871,-2.8602,-2.8115,-2.7675,-2.7501,-2.7298,-2.7104,-2.6649,-2.5728,-2.5526,-2.5379,-2.4911,-2.4816,-2.4804,-4.5594,0.0,-4.5124,-4.494,0.0,-4.4509,-4.3585,-4.2354,-4.195,-4.1066,-3.9892,-3.9873,-3.9642,-3.9219,-3.8815,-3.8649,-3.8611,-3.82,-3.8007,-3.8007,-3.8007,-3.7777,-3.7334,-3.7334,-3.6904,-3.6096,-3.6096,-3.5885,-3.5481,-3.5064,-3.441,-3.3596,-3.3115,-3.25,-3.1679,-3.1218,-2.9756,-2.7198,-2.7645,-2.8299,-2.9058,-2.8269,-2.7423,-2.6621,0.0,0.0,0.0,0.0,0.0,0.0,0.0,0.0,0.0,0.0,0.0,-2.3985,-2.2062,-2.1077,-2.1485,-2.1523,-2.1889,-2.2712,-2.2769,-2.2423,-2.16,-2.2288,-2.3115,-2.3947,-2.4024,-2.4538,-2.5769,-2.5923,-2.6288,-2.7121,-2.7255,-2.7582,-2.8338,-2.8492,-2.8679,-2.9083,-2.9486,-2.9737,-2.9756,-3.0096,-3.0385,-3.0404,-3.0404,-3.0404,-3.0404,-3.0404,-3.0404,-3.0404,-3.0404,-3.0404,-3.0404,-3.0404,-3.0404,-3.0404,-3.0404,-3.0212,-2.9833,-2.9633,-2.9404,-2.8977,-2.8673,-2.833,-2.7869,-2.7622,-2.7222,-2.6402,-2.6151,-2.5884,-2.5241,-2.4783,-2.4503,-4.5594,-4.5594,-4.5594,-4.5594,-4.5594,-4.5594,-4.521,-4.4451,0.0,0.0,0.0,-4.2019,-4.1623,-4.09,-4.0112,-3.9746,-3.9688,-3.8834,-3.845,-3.845,-3.843,-3.8354,-3.8238,-3.8219,-3.7777,-3.6962,-3.6942,-3.65,-3.5731,-3.5731,-3.5615,-3.5519,-3.55,-3.55,-3.5442,-3.4622,-3.282,-3.0088,-2.8761,-2.8794,-3.0115,-2.9731,-2.8852,-2.7467,-2.7448,-2.6774,-2.5365,-2.5308,-2.5308,-2.5308,-2.5308,-2.5427,-2.5632,-2.4971,-2.4288,-2.3664,-2.2852,-2.2658,-2.3197,-2.3254,-2.3832,-2.5212,-2.5442,-2.4885,-2.337,-2.45,-2.536,-2.55,-2.5538,-2.5885,-2.6736,-2.6832,-2.7178,-2.8025,-2.8107,-2.8434,-2.9184,-2.9338,-2.9583,-3.025,-3.0346,-3.0385,-3.0365,-3.0385,-3.0404,-3.0404,-3.0404,-3.0404,-3.0404,-3.0404,-3.0404,-3.0404,-3.0404,-3.0404,-3.0404,-3.0404,-3.0404,-3.0404,-3.0404,-3.0392,-3.0311,-3.0143,-3.0006,-2.9821,-2.9615,-2.9109,-2.8481,-2.8188,-2.7725,-2.695,-2.6814,-2.6521,-2.5595,-2.4879,-2.4439,-4.5594,-4.5594,-4.5594,-4.5594,-4.5594,-4.5594,-4.5537,-4.5287,-4.3778,-4.3028,-4.2931,-4.2931,-4.2835,-4.2701,-4.1827,-4.145,-4.1393,-4.0527,-4.015,0.0,-4.015,-3.9785,-3.913,-3.9104,-3.8661,-3.7873,-3.7815,-3.7373,-3.6615,-3.6519,-3.6192,-3.5577,-3.55,-3.55,-3.5423,-3.4641,-3.3975,-3.3417,-3.0473,-2.905,-2.9242,-2.7159,-2.5918,-2.5692,-2.5731,-2.5558,-2.5308,-2.5346,-2.5308,-2.5308,-2.5308,-2.5861,-2.7071,-2.6598,-2.6403,-2.6772,-2.6253,-2.562,-2.4995,-2.4962,-2.5038,-2.5308,-2.5981,-2.6,-2.5058,-2.5154,-2.5615,-2.6308,-2.6409,-2.6774,-2.7588,-2.7722,-2.8049,-2.8819,-2.8915,-2.9275,-3.0058,-3.0173,-3.0231,-3.0365,-3.0404,-3.0404,-3.0404,-3.0404,-3.0404,-3.0404,-3.0404,-3.0404,-3.0404,-3.0404,-3.0404,-3.0404,-3.0404,-3.0404,-3.0404,-3.0404,-3.0404,-3.0404,-3.0398,-3.0305,-3.011,-3.0006,-2.9908,-2.9763,-2.9523,-2.9319,-2.9121,-2.9004,-2.8481,-2.7787,-2.764,-2.7181,-2.5888,-2.5356,-2.4989,-4.5594,-4.5594,-4.5594,-4.5594,-4.5594,-4.5594,-4.5594,-4.5537,-4.4797,-4.4162,-4.3778,-4.3739,-4.3508,-4.3085,-4.2681,-4.2508,-4.247,-4.1604,-4.12,-4.1181,-4.0727,-4.0304,-3.9977,-3.9958,-3.9534,-3.8738,-3.8707,-3.8257,-3.743,-3.6942,-3.65,-3.6135,-3.5731,-3.55,-3.5462,-3.5103,-3.4911,-3.4853,-3.2429,-3.0948,-3.0506,-2.9371,-2.8538,-2.8096,-2.8077,-2.8077,-2.8071,-2.8077,-2.8077,-2.8077,-2.8058,-2.831,-2.8812,-2.8593,-2.8305,-2.8006,-2.7723,-2.7268,-2.6534,-2.6625,-2.6717,-2.6736,-2.7063,-2.7159,-2.6755,-2.6717,-2.689,-2.7255,-2.7294,-2.764,-2.8453,-2.8549,-2.8871,-2.9717,-2.9794,-2.9962,-3.0308,-3.0404,-3.0404,-3.0404,-3.0404,-3.0404,-3.0404,-3.0404,-3.0404,-3.0404,-3.0404,-3.0404,-3.0404,-3.0404,-3.0404,-3.0404,-3.0404,-3.0404,-3.0404,-3.0404,-3.0404,-3.0404,-3.0267,-3.015,-2.9991,-2.9861,-2.9671,-2.9542,-2.9353,-2.9203,-2.9171,-2.9089,-2.8815,-2.862,-2.8436,-2.7915,-2.699,-2.6072,-2.5154,-4.5594,-4.5594,-4.5594,-4.5594,-4.5594,-4.5594,-4.5594,-4.5594,-4.5594,-4.5229,-4.4643,-4.4586,-4.4239,-4.3682,-4.347,-4.3374,-4.3258,-4.2489,-4.2104,-4.2008,-4.12,-4.0777,-4.0766,-4.0612,-4.0169,-3.9631,-3.9573,-3.9142,-3.8296,-3.7603,-3.7058,-3.6654,-3.5904,-3.55,-3.55,-3.55,-3.55,-3.5404,-3.4173,-3.3006,-3.2006,-3.1814,-3.1269,-3.0481,-3.0385,-3.0404,-3.0404,-3.0404,-3.0404,-3.0404,-3.0404,-3.0273,-3.0021,-2.9999,-2.9536,-2.8552,-2.8414,-2.8102,-2.7533,-2.7663,-2.7785,-2.7744,-2.7971,-2.809,-2.8109,-2.8282,-2.8299,-2.8212,-2.8159,-2.8511,-2.9217,-2.939,-2.9679,-3.0308,-3.0404,-3.0365,-3.0404,-3.0404,-3.0404,-3.0404,-3.0404,-3.0404,-3.0404,-3.0404,-3.0404,-3.0404,-3.0404,-3.0404,-3.0404,-3.038,-3.0336,-3.0398,-3.0404,-3.0361,-3.0349,-3.0367,-3.0361,-3.0323,-3.015,-3.0025,-2.9901,-2.9616,-2.9384,-2.9312,-2.9149,-2.9033,-2.8998,-2.8987,-2.8968,-2.8913,-2.8895,-2.8656,-2.7805,-2.666,-2.5374,-4.5594,-4.5594,-4.5594,-4.5594,-4.5594,-4.5594,-4.5594,-4.5594,-4.5594,-4.5556,-4.5421,-4.5498,-4.5402,-4.5287,-4.4509,-4.4182,-4.4124,-4.3355,-4.297,-4.2874,-4.2085,-4.1673,-4.1577,-4.0893,-4.0477,-4.0362,-4.0342,-3.9919,-3.9207,-3.9034,-3.8219,-3.6769,-3.5904,-3.55,-3.55,-3.55,-3.55,-3.55,-3.5346,-3.4462,-3.2872,-3.2064,-3.1288,-3.0423,-3.0404,-3.0404,-3.0404,-3.0404,-3.0404,-3.0404,-3.0404,-3.0267,-3.0028,-2.9999,-2.9528,-2.8506,-2.8424,-2.8056,-2.7347,-2.7424,-2.7542,-2.7354,-2.822,-2.8718,-2.8757,-2.936,-2.955,-2.9127,-2.8986,-2.9371,-3.0135,-3.0231,-3.025,-3.0346,-3.0404,-3.0404,-3.0404,-3.0404,-3.0404,-3.0404,-3.0361,-3.0404,-3.0373,-3.0373,-3.0373,-3.0361,-3.0311,-3.0305,-3.0305,-3.0196,-3.015,-3.0317,-3.0398,-3.0305,-3.0182,-3.026,-3.0305,-3.0117,-3.0021,-2.9924,-2.9754,-2.9561,-2.9341,-2.9145,-2.9044,-2.8987,-2.8987,-2.8987,-2.8987,-2.8987,-2.895,-2.8748,-2.7952,-2.7108,-2.6025,-4.5594,-4.5594,-4.5594,-4.5594,-4.5594,-4.5594,-4.5594,-4.5594,-4.5594,-4.5594,-4.5594,-4.5594,-4.5594,-4.5575,-4.5229,-4.5075,-4.5009,-4.4209,-4.3816,-4.3739,-4.2951,-4.2308,-4.1797,-4.147,-4.1027,-4.0535,-4.0496,-4.0323,-3.9996,-3.9534,-3.843,-3.6846,-3.6346,-3.5981,-3.5538,-3.55,-3.55,-3.55,-3.55,-3.4891,-3.3744,-3.2833,-3.2006,-3.1212,-3.0673,-3.0404,-3.0404,-3.0404,-3.0404,-3.0404,-3.0404,-3.0273,-3.0013,-2.9999,-2.9756,-2.9231,-2.9168,-2.8985,-2.8521,-2.8697,-2.8769,-2.8669,-2.9082,-2.9309,-2.9328,-2.965,-2.969,-2.9536,-2.9698,-3.0038,-3.034,-3.0404,-3.0404,-3.0404,-3.0404,-3.0398,-3.0404,-3.0254,-3.0209,-3.0329,-3.0148,-3.0114,-3.0299,-3.026,-3.0182,-3.0136,-3.008,-3.0022,-2.9992,-2.9969,-3.0061,-3.015,-3.0299,-3.0355,-3.0254,-3.0311,-3.0323,-3.0209,-2.9988,-2.9771,-2.9677,-2.9367,-2.9123,-2.9017,-2.9005,-2.8987,-2.8987,-2.8987,-2.8987,-2.8987,-2.895,-2.8748,-2.7952,-2.753,-2.6796,-4.5594,-4.5594,-4.5594,-4.5594,-4.5594,-4.5594,-4.5594,-4.5594,-4.5594,-4.5594,-4.5594,-4.5594,-4.5594,-4.5594,-4.5594,-4.5594,-4.5518,-4.496,-4.4643,-4.4566,-4.3797,-4.3085,-4.2489,-4.197,-4.147,-4.0912,-4.0612,-4.0496,-4.0419,-3.9688,-3.8642,-3.7507,-3.6942,-3.6404,-3.5865,-3.5654,-3.55,-3.55,-3.55,-3.5192,-3.4526,-3.3718,-3.2756,-3.1756,-3.1096,-3.0654,-3.0404,-3.0404,-3.0361,-3.0299,-3.0292,-3.0182,-2.9931,-2.9869,-2.9782,-2.9662,-2.967,-2.9616,-2.9414,-2.9589,-2.9643,-2.9523,-2.9579,-2.9607,-2.9626,-2.9607,-2.9643,-2.9712,-3.0015,-3.0176,-3.0208,-3.0208,-3.0208,-3.0208,-3.0208,-3.0208,-3.0169,-3.0018,-2.9996,-3.0154,-2.9912,-2.9796,-3.0099,-3.0044,-2.9924,-2.9908,-2.9845,-2.9771,-2.979,-2.9877,-2.9931,-2.9984,-3.0087,-3.0135,-3.0267,-3.026,-3.0273,-3.0135,-2.984,-2.9626,-2.9588,-2.9249,-2.9017,-2.9005,-2.8987,-2.8987,-2.8987,-2.8987,-2.8987,-2.8987,-2.8968,-2.884,-2.8356,-2.8136,-2.7769,-4.5594,-4.5594,-4.5594,-4.5594,-4.5594,-4.5594,-4.5594,-4.5594,-4.5594,-4.5594,-4.5594,-4.5594,-4.5594,-4.5594,-4.5594,-4.5594,-4.5594,-4.5518,-4.546,-4.5383,-4.4624,-4.422,-4.4066,-4.2577,-4.1788,-4.1577,-4.0931,-4.0554,-4.0458,-3.9727,-3.9284,-3.9038,-3.7531,-3.6704,-3.6433,-3.5785,-3.5493,-3.546,-3.546,-3.5455,-3.5301,-3.4558,-3.3359,-3.1956,-3.1654,-3.1199,-3.0527,-3.0398,-3.0286,-3.004,-3.0013,-2.9924,-2.972,-2.9542,-2.9454,-2.9425,-2.9598,-2.9588,-2.9444,-2.9551,-2.9495,-2.9171,-2.9299,-2.9404,-2.9404,-2.9423,-2.9474,-2.967,-2.9696,-2.9731,-2.972,-2.979,-2.979,-2.979,-2.9765,-2.9773,-2.9756,-2.9756,-2.9703,-2.9841,-2.9928,-2.9996,-2.988,-2.9712,-2.9901,-2.9926,-2.9929,-3.0,-2.994,-2.9828,-2.9788,-2.9837,-2.9756,-2.9598,-2.9924,-3.0032,-2.995,-2.984,-2.9697,-2.9453,-2.933,-2.9203,-2.9078,-2.8987,-2.8987,-2.8987,-2.8987,-2.8987,-2.8987,-2.8987,-2.8987,-2.8822,-2.8656,-2.8858,-2.8546,-4.5594,-4.5594,-4.5594,-4.5594,-4.5594,-4.5594,-4.5594,-4.5594,-4.5594,-4.5594,-4.5594,-4.5594,-4.5594,-4.5594,-4.5594,-4.5594,-4.5594,-4.5594,-4.5594,-4.5575,-4.5267,-4.4844,-4.4259,-4.3643,-4.2777,-4.1846,-4.1489,-4.1027,-4.0516,-4.0189,-3.9668,-3.891,-3.7849,-3.6939,-3.6187,-3.5399,-3.507,-3.5223,-3.5239,-3.5258,-3.5219,-3.4932,-3.4124,-3.2843,-3.1901,-3.1305,-3.0972,-3.0323,-2.9904,-2.9804,-2.9804,-2.9771,-2.9705,-2.9625,-2.9532,-2.9414,-2.9455,-2.9395,-2.9192,-2.9225,-2.9185,-2.9033,-2.9078,-2.9138,-2.9127,-2.9145,-2.9181,-2.923,-2.9251,-2.9241,-2.9324,-2.9504,-2.9705,-2.9705,-2.9696,-2.9687,-2.967,-2.9598,-2.973,-3.0367,-3.0866,-3.1186,-3.1004,-3.1176,-3.1224,-3.104,-3.0668,-3.0368,-3.01,-2.979,-2.9636,-2.9626,-2.9616,-2.9625,-2.9765,-2.9823,-2.9782,-2.9687,-2.9551,-2.9444,-2.933,-2.9167,-2.9028,-2.8987,-2.8987,-2.8987,-2.8987,-2.8987,-2.8987,-2.8987,-2.8987,-2.8987,-2.8987,-2.8987,-2.8877,-4.5594,-4.5594,-4.5594,-4.5594,-4.5594,-4.5594,-4.5594,-4.5594,-4.5594,-4.5594,-4.5594,-4.5594,-4.5594,-4.5594,-4.5594,-4.5594,-4.5594,-4.5594,-4.5594,-4.5594,-4.5594,-4.5306,-4.4759,-4.4432,-4.372,-4.2643,-4.2019,-4.1354,-4.0558,-4.0406,-3.9952,-3.9223,-3.8309,-3.7307,-3.6319,-3.5495,-3.5086,-3.502,-3.4972,-3.4972,-3.4972,-3.4972,-3.4623,-3.3752,-3.2543,-3.1608,-3.12,-3.0463,-2.9915,-2.9673,-2.9607,-2.957,-2.9476,-2.9561,-2.9551,-2.9414,-2.9474,-2.9394,-2.9171,-2.9115,-2.91,-2.8998,-2.8987,-2.8987,-2.8987,-2.8987,-2.8987,-2.8987,-2.8987,-2.8987,-2.9037,-2.9293,-2.9466,-2.9466,-2.9485,-2.9597,-2.9831,-2.9744,-3.0124,-3.0862,-3.1406,-3.1696,-3.1745,-3.1821,-3.1773,-3.17,-3.121,-3.0928,-3.0701,-3.0443,-3.0035,-2.9849,-2.9863,-2.9705,-2.9558,-2.9436,-2.9542,-2.9504,-2.9395,-2.9322,-2.9278,-2.91,-2.9017,-2.8987,-2.8987,-2.8987,-2.8987,-2.8987,-2.8987,-2.8987,-2.8987,-2.8987,-2.8987,-2.8987,-2.8895,-4.5614,-4.5594,-4.5594,-4.5594,-4.5594,-4.5594,-4.5594,-4.5594,-4.5594,-4.5594,-4.5594,-4.5594,-4.5594,-4.5594,-4.5594,-4.5594,-4.5594,-4.5594,-4.5594,-4.5594,-4.5594,-4.5575,-4.5441,-4.4767,-4.4259,-4.3855,-4.2527,-4.1346,-4.0476,-4.0241,-4.0053,-3.9812,-3.8726,-3.7725,-3.703,-3.6087,-3.5386,-3.4854,-3.4694,-3.4684,-3.4694,-3.4694,-3.4626,-3.4461,-3.3481,-3.2337,-3.1064,-3.0876,-3.0358,-2.9572,-2.9402,-2.9267,-2.9115,-2.9249,-2.9392,-2.9412,-2.9551,-2.9551,-2.9384,-2.9322,-2.9192,-2.9044,-2.8987,-2.8987,-2.8987,-2.8987,-2.8987,-2.8987,-2.9005,-2.9023,-2.9078,-2.9173,-2.9188,-2.9053,-2.9237,-2.9524,-3.006,-3.0252,-3.0534,-3.1311,-3.1648,-3.1495,-3.1464,-3.1801,-3.1918,-3.1844,-3.1765,-3.179,-3.1651,-3.147,-3.1295,-3.0779,-3.0424,-3.0191,-2.9598,-2.9046,-2.92,-2.9289,-2.916,-2.9078,-2.9112,-2.8998,-2.8998,-2.8987,-2.8987,-2.8987,-2.8987,-2.8987,-2.8987,-2.8987,-2.8987,-2.8987,-2.8987,-2.8987,-2.8987,-4.6144,-4.5614,-4.5594,-4.5594,-4.5594,-4.5594,-4.5594,-4.5594,-4.5594,-4.5594,-4.5594,-4.5594,-4.5594,-4.5594,-4.5594,-4.5594,-4.5594,-4.5594,-4.5594,-4.5594,-4.5594,-4.5594,-4.5537,-4.5306,-4.4586,-4.347,-4.2354,-4.1272,-4.0404,-4.0129,-3.9901,-3.9312,-3.8509,-3.7516,-3.6578,-3.571,-3.4965,-3.4446,-3.4357,-3.4357,-3.4357,-3.4357,-3.4284,-3.4049,-3.3702,-3.3075,-3.2112,-3.1013,-3.0313,-2.9957,-2.9429,-2.9096,-2.904,-2.9067,-2.9104,-2.9134,-2.9181,-2.9195,-2.9138,-2.9134,-2.91,-2.8998,-2.8987,-2.8987,-2.8987,-2.8987,-2.9005,-2.9005,-2.9005,-2.9189,-2.9666,-2.9824,-2.9843,-2.9843,-2.9824,-3.0136,-3.0925,-3.1494,-3.1935,-3.2228,-3.2706,-3.2999,-3.3051,-3.3117,-3.3069,-3.2917,-3.2748,-3.2574,-3.2348,-3.1979,-3.1513,-3.1157,-3.0968,-3.0754,-3.0155,-2.9666,-2.9538,-2.9426,-2.9177,-2.9005,-2.8987,-2.8987,-2.8987,-2.8987,-2.8987,-2.8987,-2.8987,-2.8987,-2.8987,-2.8987,-2.8987,-2.8987,-2.8987,-2.8987,-2.8987,-4.6586,-4.6067,-4.5748,-4.5594,-4.5594,-4.5594,-4.5594,-4.5594,-4.5594,-4.5594,-4.5594,-4.5594,-4.5594,-4.5594,-4.5594,-4.5594,-4.5594,-4.5594,-4.5594,-4.5594,-4.5594,-4.5594,-4.5594,-4.5594,-4.4841,-4.3463,-4.2514,-4.1504,-4.0376,-3.9927,-3.9517,-3.9035,-3.8493,-3.7567,-3.6405,-3.5752,-3.5068,-3.4216,-3.4056,-3.4056,-3.4056,-3.4056,-3.3955,-3.3829,-3.3807,-3.355,-3.2981,-3.1788,-3.0944,-3.0595,-2.9879,-2.9354,-2.9042,-2.8987,-2.8987,-2.8987,-2.8987,-2.8998,-2.8987,-2.8998,-2.8987,-2.8987,-2.8987,-2.8987,-2.8987,-2.8987,-2.9078,-2.939,-2.9464,-2.9757,-3.0467,-3.065,-3.076,-3.1078,-3.0815,-3.1035,-3.177,-3.2559,-3.2999,-3.3146,-3.3458,-3.3752,-3.3855,-3.3915,-3.3981,-3.3758,-3.3511,-3.3259,-3.2996,-3.2664,-3.2284,-3.1984,-3.1825,-3.1421,-3.0797,-3.0356,-2.9989,-2.9627,-2.9267,-2.9097,-2.8987,-2.8987,-2.8987,-2.8987,-2.8987,-2.8987,-2.8987,-2.8987,-2.8987,-2.8987,-2.8987,-2.8987,-2.8987,-2.8987,-2.8987,-4.699,-4.6788,-4.6028,-4.5671,-4.5614,-4.5594,-4.5594,-4.5594,-4.5594,-4.5594,-4.5594,-4.5594,-4.5594,-4.5594,-4.5594,-4.5594,-4.5594,-4.5594,-4.5594,-4.5594,-4.5594,-4.5594,-4.5594,-4.5594,-4.492,-4.3776,-4.2926,-4.1909,-4.0614,-3.967,-3.9085,-3.9017,-3.8715,-3.7933,-3.6707,-3.6321,-3.5454,-3.4214,-3.3902,-3.3829,-3.3829,-3.3815,-3.3802,-3.3807,-3.3807,-3.377,-3.3568,-3.2926,-3.2192,-3.1421,-3.0613,-2.9934,-2.928,-2.906,-2.9133,-2.9042,-2.8987,-2.8987,-2.8987,-2.8987,-2.9078,-2.917,-2.9189,-2.9115,-2.9335,-2.9464,-2.9666,-3.0191,-3.0265,-3.0595,-3.1237,-3.1458,-3.1806,-3.2381,-3.2045,-3.2045,-3.2596,-3.333,-3.3605,-3.3715,-3.3807,-3.3807,-3.3807,-3.3847,-3.3815,-3.3815,-3.3742,-3.3668,-3.365,-3.3385,-3.3311,-3.3036,-3.2687,-3.2228,-3.1623,-3.1311,-3.084,-2.9934,-2.9567,-2.9317,-2.906,-2.8987,-2.8987,-2.8987,-2.8987,-2.8987,-2.8987,-2.8987,-2.8987,-2.8987,-2.8987,-2.8987,-2.8987,-2.8987,-2.8987,-4.8029,-4.6913,-4.6635,-4.6182,-4.5652,-4.5594,-4.5594,-4.5594,-4.5594,-4.5586,-4.5586,-4.5594,-4.5586,-4.5594,-4.5586,-4.5594,-4.5577,-4.5586,-4.5594,-4.5594,-4.5594,-4.5594,-4.5594,-4.5566,-4.4988,-4.3868,-4.2984,-4.1848,-4.0459,-3.9578,-3.9036,-3.8818,-3.8728,-3.8212,-3.7272,-3.6574,-3.5771,-3.4729,-3.4045,-3.3807,-3.3807,-3.3807,-3.3807,-3.3807,-3.3807,-3.3807,-3.3807,-3.3605,-3.2779,-3.1544,-3.125,-3.0736,-2.9977,-2.9879,-2.9666,-2.9225,-2.9078,-2.9042,-2.906,-2.906,-2.9299,-2.9824,-2.9867,-3.0155,-3.0736,-3.076,-3.087,-3.1091,-3.1091,-3.1403,-3.2082,-3.2284,-3.2656,-3.3293,-3.3146,-3.3128,-3.3403,-3.366,-3.3807,-3.3807,-3.3807,-3.3807,-3.3807,-3.3807,-3.3807,-3.3807,-3.3807,-3.3807,-3.3807,-3.3788,-3.3587,-3.3642,-3.3385,-3.2981,-3.2559,-3.2234,-3.1574,-3.0448,-2.9916,-2.9647,-2.9299,-2.8987,-2.8987,-2.8987,-2.8987,-2.8987,-2.8987,-2.8987,-2.8987,-2.8987,-2.8987,-2.8987,-2.8987,-2.8987,-2.8987,-4.8817,-4.7875,-4.7182,-4.6605,-4.6105,-4.5768,-4.5541,-4.5438,-4.5531,-4.5504,-4.5419,-4.54,-4.5476,-4.5577,-4.5448,-4.5381,-4.54,-4.5381,-4.5293,-4.5161,-4.515,-4.5303,-4.5448,-4.5362,-4.4808,-4.4125,-4.3135,-4.1948,-4.0729,-3.9826,-3.9213,-3.8805,-3.8707,-3.8285,-3.7474,-3.6688,-3.5866,-3.5004,-3.4229,-3.3807,-3.3807,-3.3807,-3.3807,-3.3807,-3.3807,-3.3807,-3.3807,-3.3807,-3.3183,-3.2192,-3.188,-3.1531,-3.0797,-3.0687,-3.0485,-3.0008,-3.0008,-3.0044,-3.0008,-2.9996,-3.0228,-3.0595,-3.0687,-3.0925,-3.1268,-3.1403,-3.1452,-3.1843,-3.1898,-3.232,-3.2889,-3.3109,-3.3311,-3.366,-3.3807,-3.3807,-3.3807,-3.3788,-3.3807,-3.3807,-3.3807,-3.3807,-3.3807,-3.3807,-3.3807,-3.3807,-3.3807,-3.3807,-3.3807,-3.3807,-3.3807,-3.3807,-3.3807,-3.3421,-3.3054,-3.2748,-3.2399,-3.1311,-3.0155,-2.9886,-2.9482,-2.9078,-2.8987,-2.8987,-2.8987,-2.8987,-2.8987,-2.8987,-2.8987,-2.8987,-2.8987,-2.8975,-2.8964,-2.8899,-2.8929,-4.9413,-4.9192,-4.7569,-4.6849,-4.6599,-4.585,-4.5302,-4.5159,-4.5322,-4.5283,-4.5096,-4.5052,-4.5171,-4.5466,-4.514,-4.5033,-4.5052,-4.5052,-4.4896,-4.4751,-4.467,-4.4842,-4.5283,-4.4943,-4.4619,-4.425,-4.3315,-4.2188,-4.107,-4.0241,-3.9473,-3.8872,-3.8707,-3.8358,-3.7749,-3.689,-3.6009,-3.5243,-3.4472,-3.3972,-3.3862,-3.3807,-3.3807,-3.3807,-3.3807,-3.3807,-3.3807,-3.377,-3.344,-3.2766,-3.2729,-3.232,-3.1641,-3.1525,-3.1397,-3.1256,-3.1146,-3.1182,-3.1323,-3.1164,-3.1378,-3.1476,-3.1513,-3.1586,-3.1801,-3.1929,-3.2137,-3.2687,-3.2711,-3.3054,-3.3513,-3.3752,-3.3733,-3.3807,-3.3807,-3.3807,-3.3807,-3.3807,-3.3807,-3.3807,-3.3807,-3.3807,-3.3807,-3.3807,-3.3807,-3.3807,-3.3807,-3.3807,-3.3807,-3.3807,-3.3807,-3.3807,-3.3807,-3.3807,-3.3495,-3.3201,-3.2839,-3.2179,-3.0742,-3.0044,-2.961,-2.9262,-2.9078,-2.8987,-2.8987,-2.8987,-2.8987,-2.8987,-2.8987,-2.8987,-2.8987,-2.8952,-2.8917,-2.8815,-2.8773,-4.9557,-4.8808,-4.7529,-4.662,-4.5944,-4.5173,-4.4788,-4.4707,-4.4781,-4.4825,-4.4707,-4.4714,-4.4776,-4.4849,-4.4776,-4.4714,-4.4695,-4.4682,-4.4663,-4.458,-4.4266,-4.4406,-4.4713,-4.4593,-4.4433,-4.4017,-4.3233,-4.222,-4.1172,-4.0341,-3.9496,-3.8817,-3.8689,-3.8615,-3.8322,-3.7547,-3.685,-3.6028,-3.5151,-3.4362,-3.388,-3.3807,-3.3807,-3.3807,-3.3807,-3.3807,-3.3807,-3.3807,-3.3715,-3.3587,-3.3476,-3.3091,-3.2491,-3.2357,-3.2118,-3.1696,-3.1513,-3.1476,-3.1439,-3.158,-3.1715,-3.2265,-3.2375,-3.2614,-3.3256,-3.3183,-3.3293,-3.355,-3.355,-3.3587,-3.3752,-3.3807,-3.3807,-3.3807,-3.3807,-3.3807,-3.3807,-3.3807,-3.3807,-3.3807,-3.3807,-3.3807,-3.3807,-3.3807,-3.3807,-3.3807,-3.3807,-3.3807,-3.3807,-3.3807,-3.3807,-3.3807,-3.3807,-3.3807,-3.3715,-3.3421,-3.3109,-3.2711,-3.1482,-3.0283,-2.9849,-2.9464,-2.928,-2.9115,-2.8987,-2.8987,-2.8987,-2.8987,-2.8987,-2.8987,-2.8964,-2.8863,-2.8761,-2.867,-2.854,-4.9567,-4.9034,-4.8007,-4.7094,-4.6302,-4.5491,-4.4845,-4.443,-4.4527,-4.4487,-4.435,-4.4323,-4.4414,-4.4567,-4.4419,-4.4337,-4.4261,-4.4136,-4.408,-4.402,-4.3852,-4.3881,-4.402,-4.4091,-4.4001,-4.3865,-4.3444,-4.2426,-4.1307,-4.0616,-3.99,-3.8799,-3.8707,-3.8689,-3.8579,-3.7933,-3.7088,-3.6266,-3.5445,-3.4619,-3.3954,-3.3807,-3.3807,-3.3807,-3.3807,-3.3807,-3.3807,-3.3807,-3.3807,-3.3807,-3.3807,-3.3642,-3.3275,-3.3183,-3.2926,-3.2651,-3.2522,-3.2522,-3.254,-3.254,-3.2742,-3.3091,-3.3164,-3.3385,-3.3697,-3.3807,-3.3807,-3.3807,-3.3788,-3.3807,-3.3807,-3.3807,-3.3807,-3.3807,-3.3807,-3.3807,-3.3807,-3.3807,-3.3807,-3.3807,-3.3807,-3.3807,-3.3807,-3.3807,-3.3807,-3.3807,-3.3807,-3.3807,-3.3807,-3.3807,-3.3807,-3.3807,-3.3807,-3.3807,-3.3807,-3.3623,-3.3311,-3.2871,-3.2142,-3.1005,-3.0216,-2.9849,-2.9482,-2.9262,-2.8987,-2.8987,-2.8987,-2.8987,-2.8964,-2.8982,-2.8917,-2.8749,-2.8577,-2.8458,-2.8316,-4.9401,-4.9326,-4.8405,-4.7582,-4.6788,-4.5904,-4.4923,-4.4057,-4.428,-4.418,-4.3971,-4.3943,-4.4091,-4.428,-4.4061,-4.3924,-4.3865,-4.3693,-4.3631,-4.3597,-4.358,-4.358,-4.3614,-4.3612,-4.3693,-4.3884,-4.3605,-4.2597,-4.1479,-4.0985,-4.0139,-3.8964,-3.8707,-3.8707,-3.8524,-3.8083,-3.7401,-3.6615,-3.5775,-3.4931,-3.4156,-3.3935,-3.3807,-3.3807,-3.3807,-3.3807,-3.3807,-3.3807,-3.3807,-3.3807,-3.3807,-3.3807,-3.3807,-3.3807,-3.3807,-3.3752,-3.3605,-3.3532,-3.3495,-3.3623,-3.3678,-3.3807,-3.377,-3.377,-3.3807,-3.3807,-3.3807,-3.3807,-3.3807,-3.3807,-3.3807,-3.3807,-3.3807,-3.3807,-3.3807,-3.3807,-3.3807,-3.3807,-3.3807,-3.3807,-3.3807,-3.3807,-3.3807,-3.3807,-3.3807,-3.3807,-3.3807,-3.3807,-3.3807,-3.3807,-3.3807,-3.3807,-3.3807,-3.3807,-3.3807,-3.3788,-3.3495,-3.317,-3.2619,-3.1805,-3.0809,-3.0379,-2.9983,-2.9257,-2.8987,-2.897,-2.8881,-2.8785,-2.8785,-2.8893,-2.8718,-2.8399,-2.8277,-2.8246,-2.8043,-4.9013,-4.8905,-4.777,-4.6835,-4.6041,-4.523,-4.4455,-4.3689,-4.3695,-4.3646,-4.3614,-4.358,-4.3646,-4.3679,-4.3646,-4.358,-4.3614,-4.3531,-4.3479,-4.3479,-4.3479,-4.3479,-4.3479,-4.3496,-4.3529,-4.3565,-4.3441,-4.2635,-4.1444,-4.1022,-4.023,-3.9038,-3.8707,-3.8707,-3.8689,-3.8505,-3.7991,-3.718,-3.6431,-3.5661,-3.4766,-3.4119,-3.3807,-3.3807,-3.3807,-3.3807,-3.3807,-3.3807,-3.3807,-3.3807,-3.3807,-3.3807,-3.3807,-3.3807,-3.3807,-3.3807,-3.3807,-3.3807,-3.3807,-3.3807,-3.3807,-3.3807,-3.3807,-3.3807,-3.3807,-3.3807,-3.3807,-3.3807,-3.3807,-3.3807,-3.3807,-3.3807,-3.3807,-3.3807,-3.3807,-3.3807,-3.3807,-3.3807,-3.3807,-3.3807,-3.3807,-3.3807,-3.3807,-3.3807,-3.3807,-3.3807,-3.3807,-3.3807,-3.3807,-3.3807,-3.3807,-3.3807,-3.3807,-3.3807,-3.3807,-3.3807,-3.3697,-3.3486,-3.3038,-3.2546,-3.1699,-3.1111,-3.0499,-2.9668,-2.9071,-2.8852,-2.8754,-2.8558,-2.8438,-2.8391,-2.8188,-2.801,-2.7894,-2.7791,-2.7599,-4.8586,-4.8531,-4.796,-4.7021,-4.5957,-4.5498,-4.4599,-4.3571,-4.3479,-4.3479,-4.3479,-4.3479,-4.3479,-4.3479,-4.3479,-4.3479,-4.3479,-4.3479,-4.3479,-4.3479,-4.3479,-4.3479,-4.3479,-4.3479,-4.3479,-4.3496,-4.3423,-4.2671,-4.1242,-4.1113,-4.0212,-3.9074,-3.8707,-3.8707,-3.8707,-3.867,-3.8248,-3.7584,-3.707,-3.6266,-3.5078,-3.4229,-3.3862,-3.3807,-3.3807,-3.3807,-3.3807,-3.3807,-3.3807,-3.3807,-3.3807,-3.3807,-3.3807,-3.3807,-3.3807,-3.3807,-3.3807,-3.3807,-3.3807,-3.3807,-3.3807,-3.3807,-3.3807,-3.3807,-3.3807,-3.3807,-3.3807,-3.3807,-3.3807,-3.3807,-3.3807,-3.3807,-3.3807,-3.3807,-3.3807,-3.3807,-3.3807,-3.3807,-3.378,-3.378,-3.378,-3.378,-3.3807,-3.3807,-3.3807,-3.3807,-3.3793,-3.3766,-3.3739,-3.368,-3.3638,-3.3721,-3.3721,-3.3707,-3.3707,-3.3726,-3.3638,-3.3465,-3.3277,-3.2784,-3.2281,-3.1534,-3.0739,-2.9919,-2.943,-2.8999,-2.842,-2.8179,-2.8041,-2.7926,-2.7883,-2.7765,-2.7517,-2.7303,-2.7194,-4.8324,-4.8268,-4.8122,-4.7241,-4.5993,-4.57,-4.4819,-4.3698,-4.3479,-4.3479,-4.3479,-4.3479,-4.3479,-4.3479,-4.3479,-4.3479,-4.3479,-4.3479,-4.3479,-4.3479,-4.3479,-4.3479,-4.3479,-4.3479,-4.3479,-4.3479,-4.3461,-4.2653,-4.1389,-4.1113,-4.0159,-3.9129,-3.8707,-3.8707,-3.8707,-3.8707,-3.8212,-3.7933,-3.7492,-3.6633,-3.5243,-3.4399,-3.3935,-3.3825,-3.3807,-3.3807,-3.3807,-3.3807,-3.3807,-3.3807,-3.3807,-3.3807,-3.3807,-3.3807,-3.3807,-3.3807,-3.3807,-3.3807,-3.3807,-3.3807,-3.3807,-3.3807,-3.3807,-3.3807,-3.3807,-3.3807,-3.3807,-3.3788,-3.3694,-3.3739,-3.3766,-3.3689,-3.3721,-3.3807,-3.3807,-3.3807,-3.3748,-3.3707,-3.3592,-3.3606,-3.368,-3.3707,-3.3707,-3.378,-3.3766,-3.355,-3.3522,-3.3346,-3.3317,-3.3317,-3.3332,-3.3536,-3.3592,-3.3611,-3.3597,-3.3583,-3.3404,-3.3174,-3.3028,-3.2703,-3.2248,-3.1726,-3.0993,-3.0286,-2.9798,-2.9309,-2.8564,-2.7912,-2.7817,-2.7772,-2.7707,-2.75,-2.7178,-2.7052,-2.6971,-4.8324,-4.8233,-4.7535,-4.6709,-4.5828,-4.5168,-4.436,-4.3552,-4.3479,-4.3479,-4.3479,-4.3479,-4.3479,-4.3479,-4.3479,-4.3479,-4.3479,-4.3479,-4.3479,-4.3479,-4.3479,-4.3479,-4.3479,-4.3479,-4.3479,-4.3479,-4.3479,-4.2561,-4.1517,-4.1187,-4.0306,-3.9111,-3.8762,-3.8707,-3.8707,-3.8707,-3.8652,-3.8414,-3.786,-3.6743,-3.5389,-3.4931,-3.4435,-3.4064,-3.3825,-3.3807,-3.3807,-3.3807,-3.3807,-3.3807,-3.3807,-3.3807,-3.3807,-3.3807,-3.3807,-3.3807,-3.3807,-3.3807,-3.3807,-3.3807,-3.3807,-3.3807,-3.3807,-3.3807,-3.3807,-3.3807,-3.3807,-3.3775,-3.3536,-3.3522,-3.368,-3.3476,-3.3522,-3.3592,-3.3652,-3.368,-3.368,-3.3328,-3.3255,-3.3258,-3.324,-3.3447,-3.3578,-3.3666,-3.3694,-3.3465,-3.3211,-3.3027,-3.2919,-3.2934,-3.2965,-3.3166,-3.324,-3.324,-3.3258,-3.3258,-3.3151,-3.2887,-3.2677,-3.2512,-3.2169,-3.1756,-3.1376,-3.0716,-3.0246,-2.966,-2.897,-2.838,-2.7886,-2.7596,-2.754,-2.7208,-2.6808,-2.6758,-2.6808,-4.7608,-4.7571,-4.7241,-4.636,-4.5259,-4.4856,-4.4232,-4.3608,-4.3479,-4.3479,-4.3479,-4.3479,-4.3479,-4.3479,-4.3479,-4.3479,-4.3479,-4.3479,-4.3479,-4.3479,-4.3479,-4.3479,-4.3479,-4.3479,-4.3479,-4.3479,-4.3387,-4.2965,-4.1974,-4.1205,-4.0435,-3.9496,-3.8927,-3.8707,-3.8707,-3.8707,-3.8689,-3.845,-3.7918,-3.7165,-3.6376,-3.5536,-3.4839,-3.4454,-3.4064,-3.388,-3.3807,-3.3807,-3.3807,-3.3807,-3.3807,-3.3807,-3.3807,-3.3807,-3.3807,-3.3807,-3.3807,-3.3807,-3.3807,-3.3807,-3.3807,-3.3807,-3.3807,-3.3807,-3.3807,-3.3807,-3.3807,-3.3807,-3.3634,-3.362,-3.3634,-3.3419,-3.3361,-3.3361,-3.3299,-3.3196,-3.3151,-3.2983,-3.2811,-3.2811,-3.2811,-3.295,-3.3103,-3.3225,-3.3181,-3.2934,-3.2775,-3.2681,-3.2632,-3.2665,-3.2697,-3.2761,-3.2793,-3.2775,-3.2793,-3.2793,-3.2777,-3.2533,-3.223,-3.2092,-3.2004,-3.1669,-3.1314,-3.1148,-3.0844,-3.0195,-2.945,-2.892,-2.8459,-2.7913,-2.7351,-2.7165,-2.6962,-2.6725,-2.6741,-4.6672,-4.6507,-4.6489,-4.5792,-4.4691,-4.4489,-4.4048,-4.3534,-4.3479,-4.3479,-4.3479,-4.3479,-4.3479,-4.3479,-4.3479,-4.3479,-4.3479,-4.3479,-4.3479,-4.3479,-4.3479,-4.3479,-4.3479,-4.3479,-4.3479,-4.3479,-4.3479,-4.3149,-4.2525,-4.1625,-4.0689,-3.9898,-3.9056,-3.8762,-3.8707,-3.8707,-3.8707,-3.8634,-3.8175,-3.7698,-3.7221,-3.6303,-3.5536,-3.4968,-3.4454,-3.4009,-3.3844,-3.3807,-3.3807,-3.3807,-3.3807,-3.3807,-3.3807,-3.3807,-3.3807,-3.3807,-3.3807,-3.3807,-3.3807,-3.3807,-3.3807,-3.3807,-3.3807,-3.3807,-3.3807,-3.3788,-3.3689,-3.3638,-3.3578,-3.3518,-3.3433,-3.3136,-3.3045,-3.2887,-3.2777,-3.2616,-3.2467,-3.2401,-3.235,-3.2315,-3.2281,-3.2196,-3.2383,-3.2631,-3.2598,-3.2383,-3.2298,-3.2282,-3.2248,-3.223,-3.2282,-3.2282,-3.2315,-3.2315,-3.2315,-3.2333,-3.2281,-3.2179,-3.1879,-3.1715,-3.164,-3.1507,-3.1268,-3.1181,-3.119,-3.0891,-3.0258,-2.9641,-2.9042,-2.845,-2.7909,-2.752,-2.7232,-2.6945,-2.6708,-4.5553,-4.4856,-4.4893,-4.4819,-4.4599,-4.3901,-4.3552,-4.3479,-4.3479,-4.3479,-4.3479,-4.3479,-4.3479,-4.3479,-4.3479,-4.3479,-4.3479,-4.3479,-4.3479,-4.3479,-4.3479,-4.3479,-4.3479,-4.3479,-4.3479,-4.3479,-4.3479,-4.3442,-4.3057,-4.1901,-4.0873,-3.99,-3.9148,-3.8836,-3.8707,-3.8707,-3.8707,-3.8689,-3.8487,-3.8138,-3.7768,-3.7144,-3.6523,-3.5389,-3.4968,-3.4601,-3.3899,-3.3917,-3.3844,-3.3844,-3.3807,-3.3807,-3.3807,-3.3807,-3.3807,-3.3807,-3.3721,-3.3707,-3.3726,-3.378,-3.3807,-3.3807,-3.378,-3.3739,-3.3694,-3.3753,-3.3606,-3.3288,-3.3225,-3.306,-3.2825,-3.2567,-3.2568,-3.2467,-3.2332,-3.223,-3.2074,-3.1933,-3.1879,-3.1844,-3.1807,-3.1751,-3.1732,-3.2003,-3.2092,-3.1897,-3.1843,-3.1842,-3.1657,-3.1601,-3.1695,-3.1751,-3.1825,-3.1861,-3.1861,-3.1843,-3.1824,-3.1732,-3.1507,-3.1389,-3.131,-3.119,-3.119,-3.119,-3.119,-3.114,-3.1038,-3.0395,-2.9736,-2.9025,-2.8501,-2.818,-2.7672,-2.7249,-2.6945,-4.4984,-4.4672,-4.4195,-4.3956,-4.3938,-4.3626,-4.3479,-4.3479,-4.3479,-4.3479,-4.3479,-4.3479,-4.3479,-4.3479,-4.3479,-4.3479,-4.3479,-4.3479,-4.3479,-4.3479,-4.3479,-4.3479,-4.3479,-4.3479,-4.3479,-4.3479,-4.3479,-4.3479,-4.3314,-4.2268,-4.1497,-4.0543,-3.9386,-3.8854,-3.8707,-3.8707,-3.8707,-3.8707,-3.8707,-3.8469,-3.8267,-3.7694,-3.718,-3.667,-3.5936,-3.5389,-3.4711,-3.4564,-3.4247,-3.3972,-3.3899,-3.3908,-3.3918,-3.3899,-3.3867,-3.3826,-3.3682,-3.3582,-3.3571,-3.3679,-3.3807,-3.3753,-3.3611,-3.3437,-3.339,-3.3211,-3.2981,-3.2809,-3.2811,-3.2665,-3.2567,-3.2299,-3.2092,-3.2004,-3.1915,-3.1824,-3.1836,-3.1774,-3.1836,-3.1975,-3.1658,-3.1372,-3.137,-3.1389,-3.143,-3.143,-3.1411,-3.1391,-3.1271,-3.119,-3.1351,-3.1413,-3.1507,-3.1526,-3.1526,-3.1449,-3.1389,-3.131,-3.119,-3.119,-3.119,-3.119,-3.119,-3.119,-3.119,-3.1157,-3.1089,-3.0937,-3.0463,-2.977,-2.9296,-2.8922,-2.8331,-2.7638,-2.7266,-4.4342,-4.4268,-4.3736,-4.3479,-4.3479,-4.3479,-4.3479,-4.3479,-4.3479,-4.3479,-4.3479,-4.3479,-4.3479,-4.3479,-4.3479,-4.3479,-4.3479,-4.3479,-4.3479,-4.3479,-4.3479,-4.3479,-4.3479,-4.3479,-4.3479,-4.3479,-4.3479,-4.3479,-4.3442,-4.2671,-4.1827,-4.0855,-3.9808,-3.9148,-3.8707,-3.8707,-3.8707,-3.8707,-3.8707,-3.8707,-3.8579,-3.8193,-3.7639,-3.7437,-3.6868,-3.6248,-3.5642,-3.5371,-3.5183,-3.4797,-3.454,-3.4377,-3.4284,-3.4171,-3.4094,-3.3973,-3.3851,-3.3647,-3.3656,-3.3394,-3.3459,-3.3255,-3.3136,-3.3014,-3.2905,-3.2682,-3.2583,-3.2368,-3.2401,-3.2418,-3.2318,-3.1914,-3.1768,-3.1695,-3.1526,-3.1462,-3.1784,-3.1873,-3.2021,-3.217,-3.1958,-3.2026,-3.1927,-3.1981,-3.156,-3.1497,-3.1293,-3.1293,-3.1252,-3.119,-3.121,-3.1252,-3.1271,-3.1252,-3.121,-3.1252,-3.131,-3.1271,-3.119,-3.119,-3.119,-3.119,-3.119,-3.119,-3.119,-3.119,-3.114,-3.1038,-3.0835,-3.0531,-3.0038,-2.9531,-2.8738,-2.8027,-2.7604,-4.3552,-4.3516,-4.3497,-4.3479,-4.3479,-4.3479,-4.3479,-4.3479,-4.3479,-4.3479,-4.3479,-4.3479,-4.3479,-4.3479,-4.3479,-4.3479,-4.3479,-4.3479,-4.3479,-4.3479,-4.3479,-4.3479,-4.3479,-4.3479,-4.3479,-4.3479,-4.3479,-4.3479,-4.3479,-4.2873,-4.2047,-4.1038,-4.0029,-3.9239,-3.8744,-3.8707,-3.8707,-3.8707,-3.8707,-3.8707,-3.867,-3.856,-3.8175,-3.7804,-3.7566,-3.7055,-3.6296,-3.6098,-3.5868,-3.5457,-3.5137,-3.5027,-3.5031,-3.4702,-3.4567,-3.4551,-3.4535,-3.45,-3.45,-3.3297,-3.2921,-3.302,-3.3165,-3.296,-3.2695,-3.2542,-3.2546,-3.2486,-3.2458,-3.2193,-3.187,-3.1663,-3.1724,-3.175,-3.1639,-3.1698,-3.2087,-3.2273,-3.2493,-3.2611,-3.3,-3.3254,-3.3017,-3.2733,-3.2056,-3.1687,-3.1328,-3.119,-3.1224,-3.119,-3.119,-3.119,-3.119,-3.119,-3.119,-3.119,-3.121,-3.119,-3.119,-3.119,-3.119,-3.119,-3.119,-3.119,-3.119,-3.119,-3.119,-3.1173,-3.0987,-3.0801,-3.0497,-2.9956,-2.9144,-2.8569,-2.828,-4.3479,-4.3479,-4.3479,-4.3479,-4.3479,-4.3479,-4.3479,-4.3479,-4.3479,-4.3479,-4.3479,-4.3479,-4.3479,-4.3479,-4.3479,-4.3479,-4.3479,-4.3479,-4.3479,-4.3479,-4.3479,-4.3479,-4.3479,-4.3479,-4.3479,-4.3479,-4.3479,-4.3479,-4.3479,-4.3094,-4.2249,-4.1203,-3.9818,-3.9038,-3.8762,-3.8707,-3.8707,-3.8707,-3.8707,-3.8707,-3.8692,-3.8658,-3.8496,-3.8166,-3.8151,-3.7606,-3.6676,-3.659,-3.6276,-3.5686,-3.5293,-3.5189,-3.5118,-3.4817,-3.4746,-3.4656,-3.4546,-3.4148,-3.3919,-3.3326,-3.346,-3.3612,-3.3545,-3.3416,-3.3519,-3.3233,-3.3054,-3.2906,-3.2889,-3.2767,-3.2842,-3.2805,-3.2832,-3.2846,-3.2814,-3.2831,-3.3017,-3.3034,-3.3102,-3.3136,-3.3372,-3.3541,-3.3457,-3.3406,-3.2882,-3.2341,-3.2036,-3.1478,-3.1343,-3.1241,-3.119,-3.119,-3.119,-3.119,-3.119,-3.119,-3.119,-3.119,-3.119,-3.119,-3.119,-3.119,-3.119,-3.119,-3.119,-3.119,-3.119,-3.119,-3.119,-3.1021,-3.0768,-3.048,-2.9871,-2.9482,-2.9296,-4.3479,-4.3479,-4.3479,-4.3479,-4.3479,-4.3479,-4.3479,-4.3479,-4.3479,-4.3479,-4.3479,-4.3479,-4.3479,-4.3479,-4.3479,-4.3479,-4.3479,-4.3479,-4.3479,-4.3479,-4.3479,-4.3479,-4.3479,-4.3479,-4.3479,-4.3479,-4.3479,-4.3479,-4.3479,-4.3479,-4.2441,-4.0804,-3.9272,-3.8452,-3.8267,-3.835,-3.8707,-3.8643,-3.8562,-3.8366,-3.8318,-3.8234,-3.8117,-3.8064,-3.7976,-3.7693,-3.7109,-3.6719,-3.6488,-3.5703,-3.5359,-3.5266,-3.5228,-3.5112,-3.5053,-3.4894,-3.4806,-3.4503,-3.4347,-3.4299,-3.4542,-3.4832,-3.4347,-3.3902,-3.3845,-3.3472,-3.3362,-3.333,-3.3457,-3.344,-3.3457,-3.3491,-3.3525,-3.3487,-3.3487,-3.3508,-3.3778,-3.3778,-3.3947,-3.3931,-3.4049,-3.4066,-3.4015,-3.3897,-3.3728,-3.3237,-3.278,-3.2188,-3.1613,-3.1478,-3.136,-3.1292,-3.1258,-3.1241,-3.1224,-3.119,-3.119,-3.119,-3.119,-3.119,-3.119,-3.119,-3.119,-3.119,-3.119,-3.119,-3.119,-3.119,-3.119,-3.119,-3.1106,-3.0818,-3.0514,-3.0243,-2.9973,-4.3479,-4.3479,-4.3479,-4.3479,-4.3479,-4.3479,-4.3479,-4.3479,-4.3479,-4.3479,-4.3479,-4.3479,-4.3479,-4.3479,-4.3479,-4.3479,-4.3479,-4.3479,-4.3479,-4.3479,-4.3479,-4.3479,-4.3462,-4.3427,-4.3321,-4.3375,-4.3303,-4.3051,-4.3338,-4.2704,-4.1669,-4.0348,-3.8688,-3.7918,-3.7755,-3.8016,-3.8385,-3.8269,-3.8083,-3.7911,-3.7878,-3.7578,-3.7506,-3.7487,-3.7415,-3.7306,-3.6997,-3.6886,-3.6901,-3.6619,-3.6449,-3.6336,-3.6155,-3.5859,-3.5677,-3.5577,-3.5514,-3.5407,-3.5318,-3.5245,-3.5318,-3.5296,-3.4436,-3.3783,-3.3719,-3.3922,-3.3986,-3.3931,-3.3964,-3.3778,-3.3677,-3.3728,-3.3778,-3.3778,-3.3795,-3.4032,-3.4438,-3.4641,-3.4878,-3.5013,-3.5177,-3.5194,-3.5025,-3.4895,-3.4455,-3.4218,-3.3761,-3.3237,-3.2645,-3.1985,-3.1816,-3.1515,-3.1427,-3.1309,-3.1275,-3.1241,-3.119,-3.119,-3.119,-3.119,-3.119,-3.119,-3.119,-3.119,-3.119,-3.119,-3.119,-3.119,-3.119,-3.119,-3.119,-3.1123,-3.0818,-3.0565,-3.0294,-4.3479,-4.3479,-4.3479,-4.3479,-4.3479,-4.3479,-4.3479,-4.3479,-4.3479,-4.3479,-4.3479,-4.3479,-4.3479,-4.3479,-4.3479,-4.3479,-4.3479,-4.3479,-4.3479,-4.3444,-4.3321,-4.3444,-4.3339,-4.3105,-4.2976,-4.2789,-4.2599,-4.2408,-4.2022,-4.1504,-4.0734,-3.9553,-3.8144,-3.7462,-3.7285,-3.7487,-3.7578,-3.7614,-3.7433,-3.7415,-3.7378,-3.7155,-3.7078,-3.7039,-3.7057,-3.6941,-3.6704,-3.6623,-3.6519,-3.6118,-3.5963,-3.5849,-3.5805,-3.5689,-3.56,-3.56,-3.5605,-3.5583,-3.5616,-3.5616,-3.5616,-3.5616,-3.5076,-3.5092,-3.4974,-3.4822,-3.481,-3.4709,-3.4636,-3.4568,-3.4551,-3.4568,-3.4568,-3.4568,-3.4568,-3.4759,-3.5098,-3.5165,-3.5368,-3.5419,-3.56,-3.56,-3.5515,-3.543,-3.5064,-3.4974,-3.4742,-3.4201,-3.3592,-3.2916,-3.2391,-3.207,-3.1935,-3.1918,-3.1461,-3.1345,-3.1241,-3.119,-3.1207,-3.1207,-3.119,-3.119,-3.119,-3.119,-3.119,-3.119,-3.119,-3.119,-3.119,-3.119,-3.119,-3.119,-3.1123,-3.0852,-3.0717,-4.3479,-4.3479,-4.3479,-4.3479,-4.3479,-4.3479,-4.3479,-4.3479,-4.3479,-4.3479,-4.3479,-4.3479,-4.3479,-4.3479,-4.3497,-4.3392,-4.3142,-4.3105,-4.3014,-4.2697,-4.2884,-4.2753,-4.2657,-4.2541,-4.2402,-4.2183,-4.2059,-4.194,-4.1343,-4.0335,-3.9471,-3.9065,-3.7657,-3.6901,-3.6606,-3.6525,-3.6542,-3.6664,-3.6744,-3.6843,-3.6825,-3.6706,-3.6565,-3.6623,-3.6623,-3.6416,-3.6182,-3.6118,-3.5898,-3.5644,-3.5639,-3.56,-3.5622,-3.56,-3.5616,-3.5616,-3.5616,-3.5616,-3.5616,-3.5616,-3.5616,-3.5616,-3.5616,-3.5549,-3.5515,-3.538,-3.5414,-3.5397,-3.5481,-3.5549,-3.5566,-3.5583,-3.5566,-3.5549,-3.5549,-3.5549,-3.5583,-3.5583,-3.56,-3.5583,-3.5616,-3.5616,-3.56,-3.5616,-3.5583,-3.5397,-3.5278,-3.5064,-3.4404,-3.366,-3.3169,-3.278,-3.2696,-3.2628,-3.2138,-3.1752,-3.1735,-3.1596,-3.1275,-3.1275,-3.1224,-3.119,-3.119,-3.119,-3.119,-3.119,-3.119,-3.119,-3.119,-3.119,-3.119,-3.119,-3.119,-3.1106,-3.1038,-4.3479,-4.3479,-4.3479,-4.3479,-4.3479,-4.3479,-4.3479,-4.3479,-4.3479,-4.3479,-4.3479,-4.3479,-4.3479,-4.3462,-4.3392,-4.3124,-4.2846,-4.2693,-4.2404,-4.1832,-4.2041,-4.2083,-4.2041,-4.175,-4.1746,-4.1725,-4.156,-4.1203,-4.1006,-3.995,-3.8816,-3.8495,-3.7097,-3.6203,-3.5924,-3.5876,-3.592,-3.5968,-3.6165,-3.6333,-3.6207,-3.5941,-3.5616,-3.5689,-3.5734,-3.5667,-3.5667,-3.5622,-3.5616,-3.5616,-3.5616,-3.5616,-3.5616,-3.5616,-3.5616,-3.5616,-3.5616,-3.5616,-3.5616,-3.5616,-3.5616,-3.5616,-3.5616,-3.5616,-3.5616,-3.5616,-3.5616,-3.5616,-3.5616,-3.5616,-3.5616,-3.5616,-3.5616,-3.5616,-3.5616,-3.5616,-3.5616,-3.5616,-3.5616,-3.5616,-3.5616,-3.5616,-3.5616,-3.5616,-3.5616,-3.5566,-3.5532,-3.5464,-3.5143,-3.4382,-3.3964,-3.3541,-3.3474,-3.3355,-3.2949,-3.2594,-3.2446,-3.2192,-3.1765,-3.1512,-3.1616,-3.1427,-3.119,-3.119,-3.119,-3.119,-3.119,-3.119,-3.119,-3.119,-3.119,-3.119,-3.119,-3.119,-3.119,-4.3479,-4.3479,-4.3479,-4.3479,-4.3479,-4.3479,-4.3479,-4.3479,-4.3479,-4.3479,-4.3479,-4.3497,-4.3462,-4.341,-4.3014,-4.2732,-4.2578,-4.2142,-4.1958,-4.1746,-4.1682,-4.1552,-4.1639,-4.1268,-4.1173,-4.1024,-4.0763,-4.035,-3.9812,-3.8894,-3.7963,-3.7291,-3.628,-3.5756,-3.5622,-3.5616,-3.5622,-3.5605,-3.5739,-3.5898,-3.5827,-3.5761,-3.5616,-3.5616,-3.5616,-3.5616,-3.5616,-3.5616,-3.5616,-3.5616,-3.5616,-3.5616,-3.5616,-3.5616,-3.5616,-3.5616,-3.5616,-3.5616,-3.5616,-3.5616,-3.5616,-3.5616,-3.5616,-3.5616,-3.5616,-3.5616,-3.5616,-3.5616,-3.5616,-3.5616,-3.5616,-3.5616,-3.5616,-3.5616,-3.5616,-3.5616,-3.5616,-3.5616,-3.5616,-3.5616,-3.5616,-3.5616,-3.5616,-3.5616,-3.5616,-3.56,-3.56,-3.5566,-3.5549,-3.5092,-3.4726,-3.4387,-3.4269,-3.4083,-3.3744,-3.3406,-3.3203,-3.2919,-3.251,-3.2256,-3.2022,-3.1718,-3.1427,-3.1258,-3.119,-3.119,-3.119,-3.119,-3.119,-3.119,-3.119,-3.119,-3.119,-3.119,-3.119,-4.3479,-4.3479,-4.3479,-4.3479,-4.3479,-4.3479,-4.3479,-4.3479,-4.3479,-4.3479,-4.3444,-4.3268,-4.3142,-4.3069,-4.2559,-4.2101,-4.1958,-4.1578,-4.1196,-4.1099,-4.1127,-4.0984,-4.0844,-4.075,-4.0642,-4.0458,-4.0252,-3.9773,-3.892,-3.8268,-3.7587,-3.6755,-3.6045,-3.5616,-3.5616,-3.5616,-3.5616,-3.56,-3.5616,-3.5616,-3.5616,-3.5616,-3.5616,-3.5616,-3.5616,-3.5616,-3.5616,-3.5616,-3.5616,-3.5616,-3.5616,-3.5616,-3.5616,-3.5616,-3.5616,-3.5616,-3.5616,-3.5616,-3.5616,-3.5616,-3.5616,-3.5616,-3.5616,-3.5616,-3.5616,-3.5616,-3.5616,-3.5616,-3.5616,-3.5616,-3.5616,-3.5616,-3.5616,-3.5616,-3.5616,-3.5616,-3.5616,-3.5616,-3.5616,-3.5616,-3.5616,-3.5616,-3.5616,-3.5616,-3.5616,-3.5616,-3.5616,-3.5616,-3.5616,-3.5616,-3.5295,-3.5098,-3.4912,-3.4912,-3.4737,-3.4315,-3.3914,-3.3592,-3.3254,-3.273,-3.2344,-3.1989,-3.1684,-3.1461,-3.1275,-3.119,-3.119,-3.119,-3.119,-3.119,-3.119,-3.119,-3.1171,-3.1095,-3.0958,-4.3479,-4.3479,-4.3479,-4.3479,-4.3479,-4.3479,-4.3479,-4.3479,-4.3479,-4.3444,-4.3268,-4.2789,-4.2635,-4.25,-4.1958,-4.1424,-4.1041,-4.092,-4.0546,-4.0353,-4.0254,-4.0385,-4.036,-4.0171,-4.0204,-4.0204,-4.0104,-3.9486,-3.8717,-3.8125,-3.7483,-3.6688,-3.6113,-3.5616,-3.5616,-3.5616,-3.5616,-3.5616,-3.5616,-3.5616,-3.5616,-3.5616,-3.5616,-3.5616,-3.5616,-3.5616,-3.5616,-3.5616,-3.5616,-3.5616,-3.5616,-3.5616,-3.5616,-3.5616,-3.5616,-3.5616,-3.5616,-3.5616,-3.5616,-3.5616,-3.5616,-3.5616,-3.5616,-3.5616,-3.5616,-3.5616,-3.5616,-3.5616,-3.5616,-3.5616,-3.5616,-3.5616,-3.5616,-3.5616,-3.5616,-3.5616,-3.5616,-3.5616,-3.5616,-3.5616,-3.5616,-3.5616,-3.5616,-3.5616,-3.5616,-3.5616,-3.5616,-3.5616,-3.5616,-3.5616,-3.5464,-3.5397,-3.5312,-3.5363,-3.543,-3.5109,-3.4573,-3.4404,-3.4032,-3.3288,-3.2696,-3.2527,-3.2171,-3.1613,-3.1444,-3.1427,-3.1258,-3.119,-3.119,-3.119,-3.119,-3.1151,-3.0878,-3.0797,-3.0617,-4.3479,-4.3479,-4.3479,-4.3479,-4.3479,-4.3479,-4.3479,-4.3479,-4.3497,-4.3286,-4.2808,-4.2324,-4.2183,-4.2634,-4.1512,-4.0926,-4.078,-4.0504,-4.0311,-4.0121,-4.0113,-4.0113,-4.0113,-4.0113,-4.0113,-4.0113,-3.996,-3.9292,-3.8531,-3.8024,-3.7172,-3.5955,-3.5859,-3.5616,-3.5616,-3.5616,-3.5616,-3.5616,-3.5616,-3.5616,-3.5616,-3.5616,-3.5616,-3.5616,-3.5616,-3.5616,-3.5616,-3.5616,-3.5616,-3.5616,-3.5684,-3.5735,-3.5853,-3.5904,-3.5904,-3.5988,-3.5955,-3.5921,-3.5971,-3.5853,-3.5836,-3.5769,-3.5735,-3.5616,-3.5616,-3.5616,-3.5616,-3.5616,-3.5616,-3.5616,-3.5616,-3.5616,-3.5616,-3.5616,-3.5616,-3.5616,-3.5616,-3.5616,-3.5616,-3.5616,-3.5616,-3.5616,-3.5616,-3.5616,-3.5616,-3.5616,-3.5616,-3.5616,-3.5616,-3.5616,-3.5616,-3.5616,-3.5616,-3.56,-3.5566,-3.5532,-3.5177,-3.5081,-3.4793,-3.4049,-3.3525,-3.3271,-3.2865,-3.2273,-3.1918,-3.1853,-3.163,-3.1326,-3.119,-3.119,-3.119,-3.1095,-3.0777,-3.0393,-3.0166]},{"header":{"parameterUnit":"m.s-1","parameterCategory":1,"la1":31.0,"la2":29.5877,"lo1":-88.7671,"lo2":-86.6584,"dy":0.0162,"dx":0.0185,"nx":115,"ny":88,"refTime":"2023-07-24T06:00:00:Z","depth":0,"parameterNumber":3,"parameterNumberName":"V-component_of_WINDS"},"data":[0.0,0.0,0.0,0.0,0.0,0.0,0.0,0.0,0.0,0.0,0.0,0.0,0.0,0.0,0.0,0.0,0.0,0.0,0.0,0.0,0.0,0.0,0.0,0.0,0.0,0.0,0.0,0.0,0.0,0.0,0.0,0.0,0.0,0.0,0.0,0.0,0.0,0.0,0.0,0.0,0.0,0.0,0.0,0.0,0.0,0.0,0.0,0.0,0.0,0.0,0.0,0.0,0.0,0.0,0.0,0.0,0.0,0.0,0.0,0.0,0.0,0.0,0.0,0.0,0.0,0.0,0.0,0.0,0.0,0.0,0.0,0.0,0.0,0.0,0.0,0.0,0.0,0.0,0.0,0.0,0.0,0.0,0.0,0.0,0.0,0.0,0.0,0.0,0.0,0.0,0.0,0.0,0.0,0.0,0.0,0.0,0.0,0.0,0.0,0.0,0.0,0.0,0.0,0.0,0.0,0.0,0.0,0.0,0.0,0.0,0.0,0.0,0.0,0.0,0.0,0.0,0.0,0.0,0.0,0.0,0.0,0.0,0.0,0.0,0.0,0.0,0.0,0.0,0.0,0.0,0.0,0.0,0.0,0.0,0.0,0.0,0.0,0.0,0.0,0.0,0.0,0.0,0.0,0.0,0.0,0.0,0.0,0.0,0.0,0.0,0.0,0.0,0.0,0.0,0.0,0.0,0.0,0.0,0.0,0.0,0.0,0.0,0.0,0.0,0.0,0.0,0.0,0.0,0.0,0.0,0.0,0.0,0.0,0.0,0.0,0.0,0.0,0.0,0.0,0.0,0.0,0.0,0.0,0.0,0.0,0.0,0.0,0.0,0.0,0.0,0.0,0.0,0.0,0.0,0.0,0.0,0.0,0.0,0.0,0.0,0.0,0.0,0.0,0.0,0.0,0.0,0.0,0.0,0.0,0.0,0.0,0.0,0.0,0.0,0.0,0.0,0.0,0.0,0.0,0.0,0.0,0.0,0.0,0.0,0.0,0.0,0.0,0.0,0.0,0.0,0.0,0.0,0.0,0.0,0.0,0.0,0.0,0.0,0.0,0.0,0.0,0.0,0.0,0.0,0.0,0.0,0.0,0.0,0.0,0.0,0.0,0.0,0.0,0.0,0.0,0.0,0.0,0.0,0.0,0.0,0.0,0.0,0.0,0.0,0.0,0.0,0.0,0.0,0.0,0.0,0.0,0.0,0.0,0.0,0.0,0.0,0.0,0.0,0.0,0.0,0.0,0.0,0.0,0.0,0.0,0.0,0.0,0.0,0.0,0.0,0.0,0.0,0.0,0.0,0.0,0.0,0.0,0.0,0.0,0.0,0.0,0.0,0.0,0.0,0.0,0.0,0.0,0.0,0.0,0.0,0.0,0.0,0.0,0.0,0.0,0.0,0.0,0.0,0.0,0.0,0.0,0.0,0.0,0.0,0.0,0.0,0.0,0.0,0.0,0.0,0.0,0.0,0.0,0.0,0.0,0.0,0.0,0.0,0.0,0.0,0.0,0.0,0.0,0.0,0.0,0.0,0.0,0.0,0.0,0.0,0.0,0.0,0.0,0.0,0.0,0.0,0.0,0.0,0.0,0.0,0.0,0.0,0.0,0.0,0.0,0.0,0.0,0.0,0.0,0.0,0.0,0.0,0.0,0.0,0.0,0.0,0.0,0.0,0.0,0.0,0.0,0.0,0.0,0.0,0.0,0.0,0.0,0.0,0.0,0.0,0.0,0.0,0.0,0.0,0.0,0.0,0.0,0.0,0.0,0.0,0.0,0.0,0.0,0.0,0.0,0.0,0.0,0.0,0.0,0.0,0.0,0.0,0.0,0.0,0.0,0.0,0.0,0.0,0.0,0.0,0.0,0.0,0.0,0.0,0.0,0.0,0.0,0.0,0.0,0.0,0.0,0.0,0.0,0.0,0.0,0.0,0.0,0.0,0.0,0.0,0.0,0.0,0.0,0.0,0.0,0.0,0.0,0.0,0.0,0.0,0.0,0.0,0.0,0.0,0.0,0.0,0.0,0.0,0.0,0.0,0.0,0.0,0.0,0.0,0.0,0.0,0.0,0.0,0.0,0.0,0.0,0.0,0.0,0.0,0.0,0.0,0.0,0.0,0.0,0.0,0.0,0.0,0.0,0.0,0.0,0.0,0.0,0.0,0.0,0.0,0.0,0.0,0.0,0.0,0.0,0.0,0.0,0.0,0.0,0.0,0.0,0.0,0.0,0.0,0.0,0.0,0.0,0.0,0.0,0.0,0.0,0.0,0.0,0.0,0.0,0.0,0.0,0.0,0.0,0.0,0.0,0.0,0.0,0.0,0.0,0.0,0.0,0.0,0.0,0.0,0.0,0.0,0.0,0.0,0.0,0.0,0.0,0.0,0.0,0.0,0.0,0.0,0.0,0.0,0.0,0.0,0.0,0.0,0.0,0.0,0.0,0.0,0.0,0.0,0.0,0.0,0.0,0.0,0.0,0.0,0.0,0.0,0.0,0.0,0.0,0.0,0.0,0.0,0.0,0.0,0.0,0.0,0.0,0.0,0.0,0.0,0.0,0.0,0.0,0.0,0.0,0.0,0.0,0.0,0.0,0.0,0.0,0.0,0.0,0.0,0.0,0.0,0.0,0.0,0.0,0.0,0.0,0.0,0.0,0.0,0.0,0.0,0.0,0.0,0.0,0.0,0.0,0.0,0.0,0.0,0.0,0.0,0.0,0.0,0.0,0.0,0.0,0.0,0.0,0.0,0.0,0.0,0.0,0.0,0.0,0.0,0.0,0.0,0.0,0.0,0.0,0.0,0.0,0.0,0.0,0.0,0.0,0.0,0.0,0.0,0.0,0.0,0.0,0.0,0.0,0.0,0.0,0.0,0.0,0.0,0.0,0.0,0.0,0.0,0.0,0.0,0.0,0.0,0.0,0.0,0.0,0.0,0.0,0.0,0.0,0.0,0.0,0.0,0.0,0.0,0.0,0.0,0.0,0.0,0.0,0.0,0.0,0.0,0.0,0.0,0.0,0.0,0.0,0.0,0.0,0.0,0.0,0.0,0.0,0.0,0.0,0.0,0.0,0.0,0.0,0.0,0.0,0.0,0.0,0.0,0.0,0.0,0.0,0.0,0.0,0.0,0.0,0.0,0.0,0.0,0.0,0.0,0.0,0.0,0.0,0.0,0.0,0.0,0.0,0.0,0.0,0.0,0.0,0.0,0.0,0.0,0.0,0.0,0.0,0.0,0.0,0.0,0.0,0.0,0.0,0.0,0.0,0.0,0.0,0.0,0.0,0.0,0.0,0.0,0.0,0.0,0.0,0.0,0.0,0.0,0.0,0.0,0.0,0.0,0.0,0.0,0.0,0.0,0.0,0.0,0.0,0.0,0.0,0.0,0.0,0.0,0.0,0.0,0.0,0.0,0.0,0.0,0.0,0.0,0.0,0.0,0.0,0.0,0.0,0.0,0.0,0.0,0.0,0.0,0.0,0.0,0.0,0.0,0.0,0.0,0.0,0.0,0.0,0.0,0.0,0.0,0.0,0.0,0.0,0.0,0.0,0.0,0.0,0.0,0.0,0.0,0.0,0.0,0.0,0.0,0.0,0.0,0.0,0.0,0.0,0.0,0.0,0.0,0.0,0.0,0.0,0.0,0.0,0.0,0.0,0.0,0.0,0.0,0.0,0.0,0.0,0.0,0.0,0.0,0.0,0.0,0.0,0.0,0.0,0.0,0.0,0.0,0.0,0.0,0.0,0.0,0.0,0.0,0.0,0.0,0.0,0.0,0.0,0.0,0.0,0.0,0.0,0.0,0.0,0.0,0.0,0.0,0.0,0.0,0.0,0.0,0.0,0.0,0.0,0.0,0.0,0.0,0.0,0.0,0.0,0.0,0.0,0.0,0.0,0.0,0.0,0.0,0.0,0.0,0.0,0.0,0.0,0.0,0.0,0.0,0.0,0.0,0.0,0.0,0.0,0.0,0.0,0.0,0.0,0.0,0.0,0.0,0.0,0.0,0.0,0.0,0.0,0.0,0.0,0.0,0.0,0.0,0.0,0.0,0.0,0.0,0.0,0.0,0.0,0.0,0.0,0.0,0.0,0.0,0.0,0.0,0.0,0.0,0.0,0.0,0.0,0.0,0.0,0.0,0.0,0.0,0.0,0.0,0.0,0.0,0.0,0.0,0.0,0.0,0.0,0.0,0.0,0.0,0.0,0.0,0.0,0.0,0.0,0.0,0.0,0.0,0.0,0.0,0.0,0.0,0.0,0.0,0.0,0.0,0.0,0.0,0.0,0.0,0.0,0.0,0.0,0.0,0.0,0.0,0.0,0.0,0.0,0.0,0.0,0.0,0.0,0.0,0.0,0.0,0.0,0.0,0.0,0.0,0.0,0.0,0.0,0.0,0.0,0.0,0.0,0.0,0.0,0.0,0.0,0.0,0.0,0.0,0.0,0.0,0.0,0.0,0.0,0.0,0.0,0.0,0.0,0.0,0.0,0.0,0.0,0.0,0.0,0.0,0.0,0.0,0.0,0.0,0.0,0.0,0.0,0.0,0.0,0.0,0.0,0.0,0.0,0.0,0.0,0.0,0.0,0.0,0.0,0.0,0.0,0.0,0.0,0.0,0.0,0.0,0.0,0.0,0.0,0.0,0.0,0.0,0.0,0.0,0.0,0.0,0.0,0.0,0.0,0.0,0.0,0.0,0.0,0.0,0.0,0.0,0.0,0.0,0.0,0.0,0.0,0.0,0.0,0.0,0.0,0.0,0.0,0.0,0.0,0.0,0.0,0.0,0.0,0.0,0.0,0.0,0.0,0.0,0.0,0.0,0.0,0.0,0.0,0.0,0.0,0.0,0.0,0.0,0.0,0.0,0.0,0.0,0.0,0.0,0.0,0.0,0.0,0.0,0.0,0.0,0.0,0.0,0.0,0.0,0.0,0.0,0.0,0.0,0.0,0.0,0.0,0.0,0.0,0.0,0.0,0.0,0.0,0.0,0.0,0.0,0.0,0.0,0.0,0.0,0.0,0.0,0.0,0.0,0.0,0.0,0.0,0.0,0.0,0.0,0.0,0.0,0.0,0.0,0.0,0.0,0.0,0.0,0.0,0.0,0.0,0.0,0.0,0.0,0.0,0.0,0.0,0.0,0.0,0.0,0.0,0.0,0.0,0.0,0.0,0.0,0.0,0.0,0.0,0.0,0.0,0.0,0.0,0.0,0.0,0.0,0.0,0.0,0.0,0.0,0.0,0.0,0.0,0.0,0.0,0.0,0.0,0.0,0.0,0.0,0.0,0.0,0.0,0.0,0.0,0.0,0.0,0.0,0.0,0.0,0.0,0.0,0.0,0.0,0.0,0.0,0.0,0.0,0.0,0.0,0.0,0.0,0.0,0.0,0.0,0.0,0.0,0.0,0.0,0.0,0.0,0.0,0.0,0.0,0.0,0.0,0.0,0.0,0.0,0.0,0.0,0.0,0.0,0.0,0.0,0.0,0.0,0.0,0.0,0.0,0.0,0.0,0.0,0.0,0.0,0.0,0.0,0.0,0.0,0.0,0.0,0.0,0.0,0.0,0.0,0.0,0.0,0.0,0.0,0.0,0.0,0.0,0.0,0.0,0.0,0.0,0.0,0.0,0.0,0.0,0.0,0.0,0.0,0.0,0.0,0.0,0.0,0.0,0.0,0.0,0.0,0.0,0.0,0.0,0.0,0.0,0.0,0.0,0.0,0.0,0.0,0.0,0.0,0.0,0.0,0.0,0.0,0.0,0.0,0.0,0.0,0.0,0.0,0.0,0.0,0.0,0.0,0.0,0.0,0.0,0.0,0.0,0.0,0.0,0.0,0.0,0.0,0.0,0.0,0.0,0.0,0.0,0.0,0.0,0.0,0.0,0.0,0.0,0.0,0.0,0.0,0.0,0.0,0.0,0.0,0.0,0.0,0.0,0.0,0.0,0.0,0.0,0.0,0.0,0.0,0.0,0.0,0.0,0.0,0.0,0.0,0.0,0.0,0.0,0.0,0.0,0.0,0.0,0.0,0.0,0.0,0.0,0.0,0.0,0.0,0.0,0.0,0.0,0.0,0.0,0.0,0.0,0.0,0.0,0.0,0.0,0.0,0.0,0.0,0.0,0.0,0.0,0.0,0.0,0.0,0.0,0.0,0.0,0.0,0.0,0.0,0.0,0.0,0.0,0.0,0.0,0.0,0.0,0.0,0.0,0.0,0.0,0.0,0.0,0.0,0.0,0.0,0.0,0.0,0.0,0.0,0.0,0.0,0.0,0.0,0.0,0.0,0.0,0.0,0.0,0.0,0.0,0.0,0.0,0.0,0.0,0.0,0.0,0.0,0.0,0.0,0.0,0.0,0.0,0.0,0.0,0.0,0.0,0.0,0.0,0.0,0.0,0.0,0.0,0.0,0.0,0.0,0.0,0.0,0.0,0.0,0.0,0.0,0.0,0.0,0.0,0.0,0.0,0.0,0.0,0.0,0.0,0.0,0.0,0.0,0.0,0.0,0.0,0.0,0.0,0.0,0.0,0.0,0.0,0.0,0.0,0.0,0.0,0.0,0.0,0.0,0.0,0.0,0.0,0.0,0.0,0.0,0.0,0.0,0.0,0.0,0.0,0.0,0.0,0.0,0.0,0.0,0.0,0.0,0.0,0.0,0.0,0.0,0.0,0.0,0.0,0.0,0.0,0.0,0.0,0.0,0.0,0.0,0.0,0.0,0.0,0.0,0.0,0.0,0.0,0.0,0.0,0.0,0.0,0.0,0.0,0.0,0.0,0.0,0.0,0.0,0.0,0.0,0.0,0.0,0.0,0.0,0.0,0.0,0.0,0.0,0.0,0.0,0.0,0.0,0.0,0.0,0.0,0.0,0.0,0.0,0.0,0.0,0.0,0.0,0.0,0.0,0.0,0.0,0.0,0.0,0.0,0.0,0.0,0.0,0.0,0.0,0.0,0.0,0.0,0.0,0.0,0.0,0.0,0.0,0.0,0.0,0.0,0.0,0.0,0.0,0.0,0.0,0.0,0.0,0.0,0.0,0.0,0.0,0.0,0.0,0.0,0.0,0.0,0.0,0.0,0.0,0.0,0.0,0.0,0.0,0.0,0.0,0.0,0.0,0.0,0.0,0.0,0.0,0.0,0.0,0.0,0.0,0.0,0.0,0.0,0.0,0.0,0.0,0.0,0.0,0.0,0.0,0.0,0.0,0.0,0.0,0.0,0.0,0.0,0.0,0.0,0.0,0.0,0.0,0.0,0.0,0.0,0.0,0.0,0.0,0.0,0.0,0.0,0.0,0.0,0.0,0.0,0.0,0.0,0.0,0.0,0.0,0.0,0.0,0.0,0.0,0.0,0.0,0.0,0.0,0.0,0.0,0.0,0.0,0.0,0.0,0.0,0.0,0.0,0.0,0.0,0.0,0.0,0.0,0.0,0.0,0.0,0.0,0.0,0.0,0.0,0.0,0.0,0.0,0.0,0.0,0.0,0.0,0.0,0.0,0.0,0.0,0.0,0.0,0.0,0.0,0.0,0.0,0.0,0.0,0.0,0.0,0.0,0.0,0.0,0.0,0.0,0.0,0.0,0.0,0.0,0.0,0.0,0.0,0.0,0.0,0.0,0.0,0.0,0.0,0.0,0.0,0.0,0.0,0.0,0.0,0.0,0.0,0.0,0.0,0.0,0.0,0.0,0.0,0.0,0.0,0.0,0.0,0.0,0.0,0.0,0.0,0.0,0.0,0.0,0.0,0.0,0.0,0.0,0.0,0.0,0.0,0.0,0.0,0.0,0.0,0.0,0.0,0.0,0.0,0.0,0.0,0.0,0.0,0.0,0.0,0.0,0.0,0.0,0.0,0.0,0.0,0.0,0.0,0.0,0.0,0.0,0.0,0.0,0.0,0.0,0.0,0.0,0.0,0.0,0.0,0.0,0.0,0.0,0.0,0.0,0.0,0.0,0.0,0.0,0.0,0.0,0.0,0.0,0.0,0.0,0.0,0.0,0.0,0.0,0.0,0.0,0.0,0.0,0.0,0.0,0.0,0.0,0.0,0.0,0.0,0.0,0.0,0.0,0.0,0.0,0.0,0.0,0.0,0.0,0.0,0.0,0.0,0.0,0.0,0.0,0.0,0.0,0.0,0.0,0.0,0.0,0.0,0.0,0.0,0.0,0.0,0.0,0.0,0.0,0.0,0.0,0.0,0.0,0.0,0.0,0.0,0.0,0.0,0.0,0.0,0.0,0.0,0.0,0.0,0.0,0.0,0.0,0.0,0.0,0.0,0.0,0.0,0.0,0.0,0.0,0.0,0.0,0.0,0.0,0.0,0.0,0.0,0.0,0.0,0.0,0.0,0.0,0.0,0.0,0.0,0.0,0.0,0.0,0.0,0.0,0.0,0.0,0.0,0.0,0.0,0.0,0.0,0.0,0.0,0.0,0.0,0.0,0.0,0.0,0.0,0.0,0.0,0.0,0.0,0.0,0.0,0.0,0.0,0.0,0.0,0.0,0.0,0.0,0.0,0.0,0.0,0.0,0.0,0.0,0.0,0.0,0.0,0.0,0.0,0.0,0.0,0.0,0.0,0.0,0.0,0.0,0.0,0.0,0.0,0.0,0.0,0.0,0.0,0.0,0.0,0.0,0.0,0.0,0.0,0.0,0.0,0.0,0.0,0.0,0.0,0.0,0.0,0.0,0.0,0.0,0.0,0.0,0.0,0.0,0.0,0.0,0.0,0.0,0.0,0.0,0.0,0.0,0.0,0.0,0.0,0.0,0.0,0.0,0.0,0.0,0.0,0.0,0.0,0.0,0.0,0.0,0.0,0.0,0.0,0.0,0.0,0.0,0.0,0.0,0.0,0.0,0.0,0.0,0.0,0.0,0.0,0.0,0.0,0.0,0.0,0.0,0.0,0.0,0.0,0.0,0.0,0.0,0.0,0.0,0.0,0.0,0.0,0.0,0.0,0.0,0.0,0.0,0.0,0.0,0.0,0.0,0.0,0.0,0.0,0.0,0.0,0.0,0.0,0.0,0.0,0.0,0.0,0.0,0.0,0.0,0.0,0.0,0.0,0.0,0.0,0.0,0.0,0.0,0.0,0.0,0.0,0.0,0.0,0.0,0.0,0.0,0.0,0.0,0.0,0.0,0.0,0.0,0.0,0.0,0.0,0.0,0.0,0.0,0.0,0.0,0.0,0.0,0.0,0.0,0.0,0.0,0.0,0.0,0.0,0.0,0.0,0.0,0.0,0.0,0.0,0.0,0.0,0.0,0.0,0.0,0.0,0.0,0.0,0.0,0.0,0.0,0.0,0.0,0.0,0.0,0.0,0.0,0.0,0.0,0.0,0.0,0.0,0.0,0.0,0.0,0.0,0.0,0.0,0.0,0.0,0.0,0.0,0.0,0.0,0.0,0.0,0.0,0.0,0.0,0.0,0.0,0.0,0.0,0.0,0.0,0.0,0.0,0.0,0.0,0.0,0.0,0.0,0.0,0.0,0.0,0.0,0.0,0.0,0.0,0.0,0.0,0.0,0.0,0.0,0.0,0.0,0.0,0.0,0.0,0.0,0.0,0.0,0.0,0.0,0.0,0.0,0.0,0.0,0.0,0.0,0.0,0.0,0.0,0.0,0.0,0.0,0.0,0.0,0.0,0.0,0.0,0.0,0.0,0.0,0.0,0.0,0.0,0.0,0.0,0.0,0.0,0.0,0.0,0.0,0.0,0.0,0.0,0.0,0.0,0.0,0.0,0.0,0.0,0.0,0.0,0.0,0.0,0.0,0.0,0.0,0.0,0.0,0.0,0.0,0.0,0.0,0.0,0.0,0.0,0.0,0.0,0.0,0.0,0.0,0.0,0.0,0.0,0.0,0.0,0.0,0.0,0.0,0.0,0.0,0.0,0.0,0.0,0.0,0.0,0.0,0.0,0.0,0.0,0.0,0.0,0.0,0.0,0.0,0.0,0.0,0.0,0.0,0.0,0.0,0.0,0.0,0.0,0.0,0.0,0.0,0.0,0.0,0.0,0.0,0.0,0.0,0.0,0.0,0.0,0.0,0.0,0.0,0.0,0.0,0.0,0.0,0.0,0.0,0.0,0.0,0.0,0.0,0.0,0.0,0.0,0.0,0.0,0.0,0.0,0.0,0.0,0.0,0.0,0.0,0.0,0.0,0.0,0.0,0.0,0.0,0.0,0.0,0.0,0.0,0.0,0.0,0.0,0.0,0.0,0.0,0.0,0.0,0.0,0.0,0.0,0.0,0.0,0.0,0.0,0.0,0.0,0.0,0.0,0.0,0.0,0.0,0.0,0.0,0.0,0.0,0.0,0.0,0.0,0.0,0.0,0.0,0.0,0.0,0.0,0.0,0.0,0.0,0.0,0.0,0.0,0.0,0.0,0.0,0.0,0.0,0.0,0.0,0.0,0.0,0.0,0.0,0.0,0.0,0.0,0.0,0.0,0.0,0.0,0.0,0.0,0.0,0.0,0.0,0.0,0.0,0.0,0.0,0.0,0.0,0.0,0.0,0.0,0.0,0.0,0.0,0.0,0.0,0.0,0.0,0.0,0.0,0.0,0.0,0.0,0.0,0.0,0.0,0.0,0.0,0.0,0.0,0.0,0.0,0.0,0.0,0.0,0.0,0.0,0.0,0.0,0.0,0.0,0.0,0.0,0.0,0.0,0.0,0.0,0.0,0.0,0.0,0.0,0.0,0.0,0.0,0.0,0.0,0.0,0.0,0.0,0.0,0.0,0.0,0.0,0.0,0.0,0.0,0.0,0.0,0.0,0.0,0.0,0.0,0.0,0.0,0.0,0.0,0.0,0.0,0.0,0.0,0.0,0.0,0.0,0.0,0.0,0.0,0.0,0.0,0.0,0.0,0.0,0.0,0.0,0.0,0.0,0.0,0.0,0.0,0.0,0.0,0.0,0.0,0.0,0.0,0.0,0.0,0.0,0.0,0.0,0.0,0.0,0.0,0.0,0.0,0.0,0.0,0.0,0.0,0.0,0.0,0.0,0.0,0.0,0.0,0.0,0.0,0.0,0.0,0.0,0.0,0.0,0.0,0.0,0.0,0.0,0.0,0.0,0.0,0.0,0.0,0.0,0.0,0.0,0.0,0.0,0.0,0.0,0.0,0.0,0.0,0.0,0.0,0.0,0.0,0.0,0.0,0.0,0.0,0.0,0.0,0.0,0.0,0.0,0.0,0.0,0.0,0.0,0.0,0.0,0.0,0.0,0.0,0.0,0.0,0.0,0.0,0.0,0.0,0.0,0.0,0.0,0.0,0.0,0.0,0.0,0.0,0.0,0.0,0.0,0.0,0.0,0.0,0.0,0.0,0.0,0.0,0.0,0.0,0.0,0.0,0.0,0.0,0.0,0.0,0.0,0.0,0.0,0.0,0.0,0.0,0.0,0.0,0.0,0.0,0.0,0.0,0.0,0.0,0.0,0.0,0.0,0.0,0.0,0.0,0.0,0.0,0.0,0.0,0.0,0.0,0.0,0.0,0.0,0.0,0.0,0.0,0.0,0.0,0.0,0.0,0.0,0.0,0.0,0.0,0.0,0.0,0.0,0.0,0.0,0.0,0.0,0.0,0.0,0.0,0.0,0.0,0.0,0.0,0.0,0.0,0.0,0.0,0.0,0.0,0.0,0.0,0.0,0.0,0.0,0.0,0.0,0.0,0.0,0.0,0.0,0.0,0.0,0.0,0.0,0.0,0.0,0.0,0.0,0.0,0.0,0.0,0.0,0.0,0.0,0.0,0.0,0.0,0.0,0.0,0.0,0.0,0.0,0.0,0.0,0.0,0.0,0.0,0.0,0.0,0.0,0.0,0.0,0.0,0.0,0.0,0.0,0.0,0.0,0.0,0.0,0.0,0.0,0.0,0.0,0.0,0.0,0.0,0.0,0.0,0.0,0.0,0.0,0.0,0.0,0.0,0.0,0.0,0.0,0.0,0.0,0.0,0.0,0.0,0.0,0.0,0.0,0.0,0.0,0.0,0.0,0.0,0.0,0.0,0.0,0.0,0.0,0.0,0.0,0.0,0.0,0.0,0.0,0.0,0.0,0.0,0.0,0.0,0.0,0.0,0.0,0.0,0.0,0.0,0.0,0.0,0.0,0.0,0.0,0.0,0.0,0.0,0.0,0.0,0.0,0.0,0.0,0.0,0.0,0.0,0.0,0.0,0.0,0.0,0.0,0.0,0.0,0.0,0.0,0.0,0.0,0.0,0.0,0.0,0.0,0.0,0.0,0.0,0.0,0.0,0.0,0.0,0.0,0.0,0.0,0.0,0.0,0.0,0.0,0.0,0.0,0.0,0.0,0.0,0.0,0.0,0.0,0.0,0.0,0.0,0.0,0.0,0.0,0.0,0.0,0.0,0.0,0.0,0.0,0.0,0.0,0.0,0.0,0.0,0.0,0.0,0.0,0.0,0.0,0.0,0.0,0.0,0.0,0.0,0.0,0.0,0.0,0.0,0.0,0.0,0.0,0.0,0.0,0.0,0.0,0.0,0.0,0.0,0.0,0.0,0.0,0.0,0.0,0.0,0.0,0.0,0.0,0.0,0.0,0.0,0.0,0.0,0.0,0.0,0.0,0.0,0.0,0.0,0.0,0.0,0.0,0.0,0.0,0.0,0.0,0.0637,0.0,0.0,0.0,0.0,0.0,0.0,0.0,0.0,0.0,0.0,0.0,0.0,0.0,0.0,0.0,0.0,0.0,0.0,0.0,0.0,0.0,0.0,0.0,0.0,0.0,0.0,0.0,0.0,0.0,0.0,0.0,0.0,0.0,0.0,0.0,0.0,0.0,0.0,0.0,0.0,0.0,0.0,0.0,0.0,0.0,0.0,0.0,0.0,0.0,0.0,0.0,0.0,0.0,0.0,0.0,0.0,0.0,0.0,0.0,0.0,0.0,0.0,0.0,0.0,0.0,0.0,0.0,0.0,0.0,0.0,0.0,0.0,0.0,0.0,0.0,0.0,0.0,0.0,0.0,0.0,0.0,0.0,0.0,0.0,0.0,0.0,0.0,0.0,0.0,0.0,0.0,0.0,0.0,0.0,0.0,0.0,0.0,0.0,0.0,0.0,0.0,0.0,0.0,0.0,0.0,0.0,0.0,0.0,0.0,0.0,0.0,0.0,0.0,0.0,0.0,0.0,0.0,0.0,0.0,0.0,0.0,0.0,0.0,0.0,0.0,0.0,0.0,0.0,0.0,0.0,0.0,0.0,0.0,0.0,0.0,0.0,0.0,0.0,0.0,0.0,0.0,0.0,0.0,0.0,0.0,0.0,0.0,0.0,0.0,0.0,0.0,0.0,0.0,0.0,0.0,0.0,0.0,0.0,0.0,0.0,0.0,0.0,0.0,0.0,0.0,0.0,0.0,0.0,0.0,0.0,0.0,0.0,0.0,0.0,0.0,0.0,0.0,0.0,0.0,0.0,0.003,0.014,0.0,0.0,0.0,0.0,0.0,0.0,0.0,0.0,0.0,0.0,0.0,0.0,0.0,0.0,0.0,0.0,0.0,0.0,0.0,0.0,0.0,0.0,0.0,0.0,0.0,0.0,0.0,0.0,0.0,0.0,0.0,0.0,0.0,0.0,0.0,0.0,0.0,0.0,0.0,0.0,0.0,0.0,0.0,0.0,0.0,0.0,0.0,0.0,0.1579,0.0,0.0,0.0,0.0,0.0,0.0,0.0,0.0,0.0,0.0,0.0,0.0,0.0,0.0,0.0,0.0,0.0,0.0,0.0,0.0,0.0,0.0,0.0,0.0,0.0,0.0,0.0,0.0,0.0,0.0,0.0,0.0,0.0,0.0,0.0,0.0,0.0,0.0,0.0,0.0,0.0,0.0,0.0,0.0,0.0,0.0,0.0,0.0,0.0,0.0,0.0,0.0,0.0,0.0,0.0,0.0,0.0,0.0,0.0,0.0,0.0,0.0,0.0,0.0,0.0239,0.0728,0.0,0.0,0.0,0.0,0.0,0.0,0.0,0.0,0.0,0.0,0.0,0.0,0.0,0.0,0.0,0.0,0.0,0.0,0.0,0.0,0.0,0.0,0.0,0.0,0.0,0.0,0.0,0.0,0.0,0.0,0.0,0.0,0.0,0.0,0.0,0.0,0.0,0.0,0.0,0.0,0.0,0.0,0.0,0.0,0.0,0.0,0.0,0.0,0.0,0.2327,0.0,0.0,0.0,0.0,0.0,0.0,0.0,0.0,0.0,0.0,0.0,0.0,0.0,0.0,0.0,0.0,0.0,0.0,0.0,0.0,0.0,0.0,0.0,0.0,0.0,0.0,0.0,0.0,0.0,0.0,0.0,0.0,0.0,0.0,0.0,0.0,0.0,0.0,0.0,0.0,0.0,0.0,0.0,0.0,0.0,0.0,0.0,0.0,0.0,0.0,0.0,0.0,0.0,0.0,0.0,0.0,0.0,0.0,0.0,0.0,0.0202,0.0638,0.054,0.0837,0.0,0.0,0.0,0.0,0.0,0.0,0.0,0.0,0.0,0.0,0.0,0.0,0.0,0.0,0.0,0.0,0.0,0.0,0.0,0.0,0.0,0.0,0.0,0.0,0.0,0.0,0.0,0.0,0.0,0.0,0.0,0.0,0.0,0.0,0.0,0.0,0.0,0.0,0.0,0.0,0.0,0.0,0.0,0.0,0.0,0.0,0.0,0.0,0.0,0.2054,0.2581,0.0,0.0,0.0,0.0,0.0,0.0,0.0,0.0,0.0,0.0,0.0,0.0,0.0,0.0,0.0,0.0,0.0,0.0,0.0,0.0,0.0,0.0,0.0,0.0,0.0,0.0,0.0,0.0,0.0,0.0,0.0,0.0,0.0,0.0,0.0,0.0,0.0,0.0,0.0,0.0,0.0,0.0,0.0,0.0,0.0,0.0,0.0,0.0,0.0,0.0,0.0,0.0,0.0,0.0,0.0,0.0168,0.0418,0.0381,0.0034,0.0168,0.0605,0.1272,0.1035,0.1355,0.0,0.0,0.0,0.0,0.0,0.0,0.0,0.0,0.0,0.0,0.0,0.0,0.0,0.0,0.0,0.0,0.0,0.0,0.0,0.0,0.0,0.0,0.0,0.0,0.0,0.0,0.0,0.0,0.0,0.0,0.0,0.0,0.0,0.0,0.0,0.0,0.0,0.0,0.0,0.0,0.0,0.0,0.0,0.0,0.0,0.0,0.0,0.0,0.1827,0.2387,0.0,0.0,0.0,0.0,0.0,0.0,0.0,0.0,0.0,0.0,0.0,0.0,0.0,0.0,0.0,0.0,0.0,0.0,0.0,0.0,0.0,0.0,0.0,0.0,0.0,0.0,0.0,0.0,0.0,0.0,0.0,0.0,0.0,0.0,0.0,0.0,0.0,0.0,0.0,0.0,0.0,0.0,0.0,0.0,0.0,0.0,0.0,0.0,0.0,0.0,0.0,0.0,0.0,0.0,0.0,0.0,0.0866,0.1847,0.1617,0.0134,0.0773,0.1206,0.1305,0.1054,0.1575,0.0,0.0,0.0,0.0,0.0,0.0,0.0,0.0,0.0,0.0,0.0,0.0,0.0,0.0,0.0,0.0,0.0,0.0,0.0,0.0,0.0,0.0,0.0,0.0,0.0,0.0,0.0,0.0,0.0,0.0,0.0,0.0,0.0,0.0,0.0,0.0,0.0,0.0,0.0,0.0,0.0,0.0,0.0,0.0,0.0,0.0,0.0,0.2091,0.2157,0.3088,0.0,0.0,0.0,0.0,0.0,0.0,0.0,0.0,0.0,0.0,0.0,0.0,0.0,0.0,0.0,0.0,0.0,0.0,0.0,0.0,0.0,0.0,0.0,0.0,0.0,0.0,0.0,0.0,0.0,0.0,0.0,0.0,0.0,0.0,0.0,0.0,0.0,0.0,0.0,0.0,0.0,0.0,0.0,0.0,0.0,0.0,0.0,0.0,0.0,0.0,0.0,0.0,0.0,0.0,0.0,0.176,0.1651,0.234,0.2321,0.1575,0.1909,0.2342,0.2809,0.2387,0.2702,0.0,0.0,0.0,0.0,0.0,0.0,0.0,0.0,0.0,0.0,0.0,0.0,0.0,0.0,0.0,0.0,0.0,0.0,0.0,0.0,0.0,0.0,0.0,0.0,0.0,0.0,0.0,0.0,0.0,0.0,0.0,0.0,0.0,0.0,0.0,0.0,0.0,0.0,0.0,0.0,0.0,0.0,0.0,0.0,0.0,0.0,0.0,0.2129,0.2007,0.0,0.0,0.0,0.0,0.0,0.0,0.0,0.0,0.0,0.0,0.0,0.0,0.0,0.0,0.0,0.0,0.0,0.0,0.0,0.0,0.0,0.0,0.0,0.0,0.0,0.0,0.0,0.0,0.0,0.0,0.0,0.0,0.0,0.0,0.0,0.0,0.0,0.0,0.0,0.0,0.0,0.0,0.0,0.0,0.0,0.0,0.0,0.0,0.0,0.0,0.0,0.0,0.0,0.0,0.0,0.0,0.0,0.246,0.3061,0.3145,0.2711,0.2911,0.3345,0.3974,0.3482,0.0,0.0,0.0,0.0,0.0,0.0,0.0,0.0,0.0,0.0,0.0,0.0,0.0,0.0,0.0,0.0,0.0,0.0,0.0,0.0,0.0,0.0,0.0,0.0,0.0,0.0,0.0,0.0,0.0,0.0,0.0,0.0,0.0,0.0,0.0,0.0,0.0,0.0,0.0,0.0,0.0,0.0,0.0,0.0,0.0,0.0068,0.0,0.0,0.2201,0.2189,0.3266,0.3927,0.0,0.0,0.0,0.0,0.0,0.0,0.0,0.0,0.0,0.0,0.0,0.0,0.0,0.0,0.0,0.0,0.0,0.0,0.0,0.0,0.0,0.0,0.0,0.0,0.0,0.0,0.0,0.0,0.0,0.0,0.0,0.0,0.0,0.0,0.0,0.0,0.0,0.0,0.0,0.0,0.0,0.0,0.0,0.0,0.0,0.0,0.0,0.0,0.0,0.0,0.0,0.0,0.0,0.0,0.0,0.3107,0.4484,0.4386,0.2811,0.3513,0.3949,0.401,0.3723,0.3859,0.0,0.0,0.0,0.0,0.0,0.0,0.0,0.0,0.0,0.0,0.0,0.0,0.0,0.0,0.0,0.0,0.0,0.0,0.0,0.0,0.0,0.0,0.0,0.0,0.0,0.0,0.0,0.0,0.0,0.0,0.0,0.0,0.0,0.0,0.0,0.0,0.0,0.0,0.0,0.0,0.0,0.0,0.0,0.0,0.0231,0.0,0.0,0.2427,0.3088,0.3902,0.4255,0.3662,0.0,0.0,0.0,0.0,0.0,0.0,0.0,0.0,0.0,0.0,0.0,0.0,0.0,0.0,0.0,0.0,0.0,0.0,0.0,0.0,0.0,0.0,0.0,0.0,0.0,0.0,0.0,0.0,0.0,0.0,0.0,0.0,0.0,0.0,0.0,0.0,0.0,0.0,0.0,0.0,0.0,0.0,0.0,0.0,0.0,0.0,0.0,0.0,0.0,0.0,0.0,0.0,0.0,0.4098,0.399,0.4894,0.5057,0.4417,0.4688,0.4855,0.4855,0.4565,0.4417,0.0,0.0,0.0,0.0,0.0,0.0,0.0,0.0,0.0,0.0,0.0,0.0,0.0,0.0,0.0,0.0,0.0,0.0,0.0,0.0,0.0,0.0,0.0,0.0,0.0,0.0,0.0,0.0,0.0,0.0,0.0,0.0,0.0,0.0,0.0,0.0,0.0,0.0,0.0,0.0,0.0,0.0,0.0,0.0,0.0,0.0,0.1744,0.239,0.298,0.3695,0.3985,0.3392,0.3297,0.0,0.0,0.0,0.0,0.0,0.0,0.0,0.0,0.0,0.0,0.0,0.0,0.0,0.0,0.0,0.0,0.0,0.0,0.0,0.0,0.0,0.0,0.0,0.0,0.0,0.0,0.0,0.0,0.0,0.0,0.0,0.0,0.0,0.0,0.0,0.0,0.0,0.0,0.0,0.0,0.0,0.0,0.0,0.0,0.0,0.0,0.0,0.0,0.0,0.0,0.0,0.0,0.4491,0.4491,0.5085,0.5395,0.5395,0.5395,0.5395,0.5388,0.5162,0.4908,0.0,0.0,0.0,0.0,0.0,0.0,0.0,0.0,0.0,0.0,0.0,0.0,0.0,0.0,0.0,0.0,0.0,0.0,0.0,0.0,0.0,0.0,0.0,0.0,0.0,0.0,0.0,0.0,0.0382,0.0337,0.0217,0.0,0.0,0.0,0.0,0.0,0.0,0.0,0.0,0.0,0.0,0.0047,0.0194,0.0219,0.0511,0.1387,0.1956,0.2481,0.3029,0.3539,0.3741,0.3303,0.0,0.0,0.0,0.0,0.0,0.0,0.0,0.0,0.0,0.0,0.0,0.0,0.0,0.0,0.0,0.0,0.0,0.0,0.0,0.0,0.0,0.0,0.0,0.0,0.0,0.0,0.0,0.0,0.0,0.0,0.3084,0.0,0.0,0.0,0.0,0.0,0.0,0.0,0.0,0.0,0.0,0.0,0.0,0.0,0.0,0.0,0.0,0.0,0.0,0.0,0.0,0.0,0.0,0.4491,0.4498,0.5088,0.5395,0.5395,0.5395,0.5395,0.5395,0.5385,0.5242,0.4877,0.0,0.0,0.0,0.0,0.0,0.0,0.0,0.0,0.0,0.0,0.0,0.0,0.0,0.0,0.0,0.0,0.0,0.0,0.0,0.0,0.0,0.0,0.0,0.0,0.0,0.0,0.1274,0.1279,0.1099,0.0,0.0,0.0,0.0,0.0,0.0,0.0,0.0,0.0,0.0,0.0,0.0172,0.0614,0.0674,0.1081,0.2274,0.2451,0.2728,0.3472,0.3585,0.3607,0.0,0.0,0.0,0.0,0.0,0.0,0.0,0.0,0.0,0.0,0.0,0.0,0.0,0.0,0.0,0.0,0.0,0.0,0.0,0.0,0.0,0.0,0.0,0.0,0.0,0.0,0.0,0.3447,0.345,0.0,0.0,0.0,0.0,0.0,0.0,0.0,0.0,0.0,0.0,0.0,0.4337,0.4337,0.0,0.0,0.0,0.0,0.0,0.0,0.0,0.0,0.0,0.0,0.0,0.0,0.4491,0.4518,0.5085,0.5395,0.5395,0.5395,0.5395,0.5395,0.5395,0.5255,0.4897,0.0,0.0,0.0,0.0,0.0,0.0,0.0,0.0,0.0,0.0,0.0,0.0,0.0,0.0,0.0,0.0,0.0,0.0,0.0,0.0,0.0,0.0,0.0,0.0,0.0,0.1773,0.0,0.0,0.0,0.0,0.0,0.0,0.0,0.0,0.0,0.0,0.0,0.0301,0.1083,0.0772,0.052,0.0691,0.0694,0.1095,0.0,0.0,0.0,0.0,0.0,0.0,0.0,0.0,0.0,0.0,0.0,0.0,0.0,0.0,0.3235,0.3008,0.3137,0.3297,0.33,0.0,0.0,0.0,0.0,0.0,0.0,0.0,0.0,0.0,0.0,0.0,0.0,0.0,0.0,0.0,0.0,0.3843,0.0,0.0,0.0,0.0,0.0,0.0,0.0,0.0,0.4392,0.4535,0.4651,0.4619,0.4651,0.0,0.4542,0.4316,0.0,0.0,0.0,0.0,0.0,0.0,0.0,0.0,0.4491,0.4515,0.5085,0.5395,0.5395,0.5395,0.5395,0.5395,0.5395,0.5303,0.5077,0.4782,0.4531,0.0,0.0,0.0,0.0,0.0,0.0,0.0,0.0,0.0,0.0,0.0,0.0,0.0,0.0,0.0,0.0,0.0,0.0,0.0,0.0,0.0,0.0,0.0,0.2292,0.0,0.0,0.0,0.0,0.0,0.0,0.0,0.0,0.0,0.1386,0.0946,0.0861,0.1464,0.1049,0.0709,0.0706,0.0,0.0,0.0,0.0,0.0,0.0,0.0,0.3074,0.3024,0.308,0.3232,0.3377,0.3514,0.36,0.36,0.0,0.0,0.3337,0.3442,0.36,0.36,0.36,0.36,0.36,0.36,0.36,0.0,0.0,0.0,0.0,0.0,0.0,0.0,0.0,0.4498,0.4341,0.0,0.4375,0.0,0.0,0.0,0.0,0.0,0.4344,0.0,0.0,0.5085,0.5199,0.4914,0.4931,0.4901,0.4884,0.4672,0.4525,0.4518,0.4518,0.0,0.0,0.0,0.0,0.0,0.0,0.4522,0.4528,0.5095,0.5395,0.5395,0.5395,0.5395,0.5395,0.5395,0.5392,0.5382,0.5081,0.4925,0.4901,0.409,0.0,0.0,0.0,0.0,0.0,0.0,0.0,0.0,0.0,0.0,0.0,0.0,0.0,0.0,0.0,0.0,0.0,0.0,0.0,0.0,0.3111,0.0,0.0,0.0,0.0,0.0,0.0,0.0,0.0,0.0,0.0,0.1906,0.1792,0.1601,0.1179,0.0,0.0,0.0,0.0,0.103,0.1886,0.2023,0.2202,0.2696,0.2968,0.3236,0.3546,0.0,0.0,0.3987,0.3792,0.3648,0.3638,0.3856,0.3941,0.3689,0.3655,0.3658,0.3655,0.3668,0.3641,0.3634,0.3692,0.3675,0.4955,0.0,0.0,0.0,0.0,0.4497,0.4609,0.4789,0.4785,0.4712,0.4667,0.4752,0.0,0.0,0.0,0.0,0.0,0.0,0.4607,0.4792,0.4965,0.5111,0.5266,0.5269,0.5237,0.5262,0.5177,0.5136,0.5136,0.5136,0.4764,0.4029,0.0,0.0,0.0,0.0,0.4597,0.4796,0.5201,0.5395,0.5395,0.5395,0.5395,0.5395,0.5395,0.5395,0.5395,0.5313,0.5138,0.4894,0.4568,0.0,0.0,0.0,0.0,0.0,0.0,0.0,0.0,0.0,0.0,0.0,0.0,0.0,0.0,0.0,0.0,0.0,0.0,0.0,0.312,0.3296,0.3334,0.0,0.0,0.0,0.0,0.0,0.0,0.0,0.0,0.0,0.3034,0.1872,0.1178,0.0,0.0,0.0697,0.071,0.1129,0.1653,0.2071,0.0,0.0,0.0,0.3531,0.348,0.359,0.3826,0.3994,0.3994,0.4146,0.4261,0.4232,0.4307,0.4304,0.4262,0.4235,0.4228,0.4238,0.4235,0.4235,0.4261,0.4235,0.4228,0.5871,0.5586,0.5086,0.4935,0.4986,0.4986,0.5074,0.527,0.5267,0.5206,0.5104,0.522,0.5036,0.4668,0.461,0.0,0.0,0.0,0.487,0.5182,0.5121,0.5252,0.5474,0.5423,0.5395,0.5395,0.5395,0.5395,0.5392,0.5272,0.4914,0.4365,0.0,0.0,0.4202,0.4494,0.4735,0.4894,0.5242,0.5395,0.5395,0.5395,0.5395,0.5395,0.5395,0.5395,0.5395,0.5395,0.5313,0.5098,0.4836,0.4487,0.0,0.0,0.0,0.0,0.0,0.0,0.0,0.0,0.0,0.0,0.0,0.3046,0.0,0.0,0.0,0.0,0.33,0.3303,0.3283,0.3361,0.0,0.0,0.0,0.0,0.0,0.0,0.0,0.3075,0.3119,0.3214,0.3303,0.2305,0.1774,0.2356,0.1932,0.1507,0.1317,0.0,0.2196,0.2511,0.2853,0.331,0.3914,0.3921,0.3863,0.3948,0.407,0.4192,0.4202,0.4375,0.4484,0.4491,0.4491,0.4491,0.4491,0.4491,0.4491,0.4491,0.4491,0.4491,0.4491,0.4491,0.4491,0.6753,0.6658,0.5549,0.523,0.5477,0.5481,0.5589,0.5813,0.582,0.5696,0.5457,0.5681,0.5501,0.4951,0.484,0.0,0.4958,0.4992,0.5209,0.5599,0.5494,0.5504,0.5596,0.5498,0.5429,0.5429,0.5429,0.5433,0.5423,0.5118,0.4928,0.4935,0.4925,0.4765,0.4522,0.4741,0.4864,0.4921,0.5218,0.5368,0.5395,0.5395,0.5395,0.5395,0.5395,0.5395,0.5395,0.5395,0.5395,0.5382,0.4996,0.4692,0.4501,0.0,0.0,0.0,0.0,0.0,0.0,0.0,0.0,0.0,0.0,0.0,0.0,0.0,0.0,0.0,0.3607,0.0,0.3638,0.3358,0.0,0.0,0.0,0.3266,0.357,0.3621,0.3605,0.3604,0.0,0.0,0.3058,0.0,0.3117,0.3472,0.3157,0.2708,0.2302,0.2452,0.2756,0.3096,0.337,0.3662,0.4074,0.4206,0.4311,0.4477,0.4525,0.4522,0.4505,0.4508,0.4511,0.4491,0.4491,0.4491,0.4491,0.4491,0.4519,0.4598,0.4543,0.4491,0.4491,0.4491,0.4491,0.7258,0.7214,0.6664,0.6359,0.6248,0.6245,0.6118,0.5979,0.5939,0.5871,0.5705,0.5772,0.5725,0.5589,0.5552,0.5559,0.5593,0.5589,0.5647,0.5745,0.5711,0.5718,0.5749,0.5715,0.5698,0.5694,0.5698,0.5694,0.5688,0.5518,0.5311,0.5052,0.4941,0.4765,0.4532,0.4563,0.4716,0.4887,0.4989,0.5135,0.5385,0.5395,0.5395,0.5395,0.5395,0.5395,0.5395,0.5395,0.5395,0.5392,0.5289,0.5061,0.4653,0.4144,0.0,0.0,0.0,0.0,0.0,0.0,0.0,0.0,0.0,0.3025,0.2805,0.0,0.3151,0.0,0.3646,0.3917,0.3914,0.3826,0.0,0.0,0.3535,0.35,0.3597,0.3802,0.3826,0.3628,0.3609,0.3676,0.3881,0.3712,0.3821,0.442,0.3415,0.2603,0.2587,0.312,0.3512,0.3665,0.4132,0.4584,0.4662,0.4702,0.4732,0.4776,0.4806,0.4769,0.4657,0.4665,0.4631,0.4518,0.4491,0.4491,0.4522,0.4491,0.4736,0.5081,0.4842,0.4491,0.4491,0.4515,0.4491,0.7472,0.7458,0.7299,0.7129,0.6956,0.673,0.6481,0.6332,0.6329,0.6281,0.6203,0.6203,0.6166,0.6098,0.6034,0.5966,0.5901,0.5833,0.5837,0.5898,0.5833,0.5837,0.5898,0.5833,0.58,0.58,0.58,0.58,0.5796,0.5722,0.5596,0.543,0.5348,0.5162,0.4894,0.4652,0.4573,0.4711,0.485,0.5064,0.5382,0.5395,0.533,0.5169,0.5197,0.5132,0.4999,0.4993,0.4993,0.502,0.4993,0.4819,0.4504,0.407,0.3657,0.0,0.0,0.0,0.0,0.0,0.0,0.0,0.0,0.0,0.0,0.0,0.3324,0.0,0.3724,0.394,0.3836,0.3822,0.3832,0.3782,0.3775,0.3853,0.405,0.4219,0.4284,0.4189,0.4171,0.4257,0.4492,0.4387,0.4454,0.4917,0.4215,0.3648,0.3707,0.4098,0.4375,0.4385,0.4808,0.5091,0.4999,0.4982,0.4961,0.4931,0.4918,0.4891,0.4809,0.4792,0.4765,0.4713,0.4977,0.5201,0.5136,0.5426,0.5767,0.5841,0.5687,0.5445,0.5418,0.5445,0.5445,0.7655,0.7655,0.7634,0.7624,0.7587,0.7044,0.6793,0.6756,0.6756,0.6736,0.6702,0.6702,0.6627,0.6535,0.6412,0.6244,0.607,0.5979,0.5989,0.6067,0.5976,0.5976,0.604,0.5949,0.5878,0.5861,0.5861,0.5861,0.5857,0.584,0.581,0.5776,0.5755,0.5596,0.533,0.4815,0.4528,0.4522,0.4765,0.5043,0.5327,0.53,0.5153,0.4877,0.486,0.4735,0.4505,0.4491,0.4491,0.4491,0.4491,0.445,0.4301,0.3894,0.3592,0.0,0.3052,0.0,0.0,0.0,0.0,0.0,0.0,0.0,0.0,0.36,0.3614,0.3655,0.3842,0.3931,0.3737,0.3716,0.3802,0.4045,0.4082,0.427,0.4692,0.4721,0.4769,0.4874,0.4904,0.4918,0.4904,0.4928,0.4995,0.5106,0.5096,0.496,0.4975,0.5001,0.5075,0.5127,0.5306,0.5287,0.5189,0.5159,0.5093,0.4978,0.4999,0.4969,0.4921,0.4914,0.4908,0.4972,0.5543,0.6032,0.5889,0.6525,0.6997,0.6853,0.6812,0.6715,0.6544,0.648,0.6588,0.7907,0.7894,0.7821,0.777,0.775,0.7526,0.7288,0.7014,0.7014,0.6922,0.6705,0.6702,0.6685,0.6654,0.663,0.66,0.6569,0.6542,0.6546,0.6573,0.6546,0.6478,0.639,0.6399,0.6323,0.6218,0.6214,0.6211,0.6211,0.6047,0.5864,0.563,0.5542,0.5327,0.5013,0.0,0.0,0.0,0.4762,0.4948,0.4989,0.4788,0.4634,0.458,0.4576,0.0,0.4494,0.4491,0.4491,0.4491,0.4491,0.0,0.0,0.0,0.0,0.0,0.0,0.0,0.0,0.0,0.0,0.0,0.3524,0.3542,0.3593,0.36,0.3699,0.3886,0.3964,0.4097,0.4303,0.4324,0.4395,0.4538,0.4562,0.465,0.485,0.4877,0.4891,0.4914,0.4988,0.5059,0.5066,0.5196,0.5313,0.5334,0.5351,0.5341,0.5306,0.5291,0.5347,0.5354,0.5375,0.5385,0.5354,0.5344,0.5327,0.5313,0.531,0.5223,0.5086,0.5091,0.5043,0.4989,0.5631,0.6254,0.6177,0.6821,0.761,0.7835,0.7895,0.7638,0.6792,0.662,0.6588,0.7988,0.0,0.7957,0.7874,0.0,0.7848,0.7685,0.7468,0.7397,0.7241,0.7034,0.7031,0.699,0.6915,0.6844,0.6771,0.6765,0.6736,0.6702,0.6702,0.6702,0.6661,0.6583,0.6583,0.6549,0.6405,0.6405,0.6368,0.6296,0.6183,0.6067,0.5962,0.5876,0.5767,0.5586,0.5504,0.5247,0.4796,0.4844,0.4958,0.5156,0.5016,0.4866,0.4694,0.0,0.0,0.0,0.0,0.0,0.0,0.0,0.0,0.0,0.0,0.0,0.4229,0.389,0.374,0.3788,0.3795,0.386,0.403,0.404,0.3979,0.3809,0.3955,0.4102,0.4222,0.4236,0.4354,0.4573,0.46,0.4665,0.4782,0.4806,0.4863,0.4965,0.4992,0.5057,0.5128,0.5199,0.5243,0.5247,0.5341,0.5392,0.5395,0.5395,0.5395,0.5395,0.5395,0.5395,0.5395,0.5395,0.5395,0.5395,0.5395,0.5395,0.5395,0.5395,0.5361,0.526,0.5593,0.5849,0.5895,0.6818,0.769,0.7598,0.8182,0.8812,0.893,0.8941,0.8755,0.8019,0.7784,0.7696,0.7988,0.7988,0.7988,0.7988,0.7988,0.7988,0.7921,0.7838,0.0,0.0,0.0,0.7456,0.7339,0.7166,0.7028,0.6964,0.6953,0.6848,0.678,0.678,0.6776,0.6763,0.6742,0.6739,0.6661,0.6559,0.6555,0.6477,0.634,0.634,0.632,0.6303,0.63,0.63,0.6289,0.6105,0.575,0.5272,0.5039,0.5077,0.5344,0.5276,0.5087,0.4843,0.484,0.4721,0.4501,0.4491,0.4491,0.4491,0.4491,0.4598,0.478,0.4487,0.431,0.4359,0.4132,0.3995,0.409,0.41,0.4202,0.4474,0.4515,0.4416,0.4121,0.4348,0.4529,0.4525,0.4532,0.4593,0.4714,0.4731,0.4792,0.4942,0.4924,0.4982,0.5113,0.514,0.5216,0.5368,0.5385,0.5392,0.5388,0.5392,0.5395,0.5395,0.5395,0.5395,0.5395,0.5395,0.5395,0.5395,0.5395,0.5395,0.5395,0.5395,0.5395,0.5395,0.5395,0.5462,0.5686,0.6235,0.6687,0.6885,0.8248,0.8934,0.898,0.95,1.0057,0.9842,0.976,0.9653,0.9284,0.9024,0.8805,0.7988,0.7988,0.7988,0.7988,0.7988,0.7988,0.7978,0.7934,0.7719,0.7587,0.757,0.757,0.7553,0.7529,0.7422,0.7309,0.7299,0.7146,0.7034,0.0,0.7034,0.697,0.6856,0.6895,0.6817,0.6678,0.6668,0.659,0.6497,0.648,0.6422,0.6313,0.63,0.63,0.6286,0.6108,0.5952,0.5855,0.5339,0.509,0.5123,0.4789,0.4628,0.4559,0.4566,0.4535,0.4491,0.4498,0.4491,0.4491,0.4491,0.4939,0.5847,0.514,0.5013,0.5752,0.5073,0.4518,0.4464,0.4429,0.4443,0.4491,0.461,0.4614,0.4447,0.4464,0.4545,0.4668,0.4657,0.4721,0.4833,0.4857,0.4914,0.5049,0.5066,0.5162,0.5334,0.5354,0.5365,0.5388,0.5395,0.5395,0.5395,0.5395,0.5395,0.5395,0.5395,0.5395,0.5395,0.5395,0.5395,0.5395,0.5395,0.5395,0.5395,0.5395,0.5395,0.5395,0.5428,0.5719,0.6297,0.6687,0.7111,0.7697,0.871,0.9244,0.9287,0.9952,1.0261,1.0114,1.006,0.9893,0.9391,0.9198,0.9064,0.7988,0.7988,0.7988,0.7988,0.7988,0.7988,0.7988,0.7978,0.7899,0.7787,0.7719,0.7712,0.7672,0.7597,0.7526,0.7495,0.7489,0.7336,0.7265,0.7261,0.7136,0.7061,0.7004,0.7001,0.6927,0.6831,0.6782,0.6746,0.66,0.6555,0.6477,0.6412,0.634,0.63,0.6293,0.619,0.6156,0.6146,0.5718,0.5457,0.5379,0.5179,0.5064,0.4986,0.4982,0.4982,0.5013,0.4982,0.4982,0.4982,0.4979,0.5439,0.6387,0.6013,0.6146,0.6918,0.6592,0.6045,0.5459,0.4995,0.4711,0.4714,0.4772,0.4789,0.4718,0.4711,0.4741,0.4806,0.4813,0.4874,0.4985,0.5002,0.5091,0.524,0.5254,0.5317,0.5378,0.5395,0.5395,0.5395,0.5395,0.5395,0.5395,0.5395,0.5395,0.5395,0.5395,0.5395,0.5395,0.5395,0.5395,0.5395,0.5395,0.5395,0.5395,0.5395,0.5395,0.5395,0.5815,0.6203,0.6752,0.7307,0.8194,0.8646,0.9396,0.9913,1.0009,1.0301,1.0488,1.0452,1.0385,1.016,0.979,0.9457,0.9124,0.7988,0.7988,0.7988,0.7988,0.7988,0.7988,0.7988,0.7988,0.7988,0.7924,0.7872,0.7862,0.7801,0.7702,0.7665,0.7648,0.7628,0.7492,0.7424,0.7407,0.7265,0.719,0.7142,0.7115,0.7038,0.6943,0.6933,0.6902,0.6753,0.663,0.6576,0.6504,0.6371,0.63,0.63,0.63,0.63,0.6282,0.6064,0.582,0.5644,0.561,0.5549,0.5409,0.5392,0.5395,0.5395,0.5395,0.5395,0.5395,0.5395,0.5782,0.6621,0.6719,0.6989,0.7617,0.768,0.7333,0.6547,0.5691,0.5275,0.5487,0.5342,0.5238,0.5241,0.5274,0.5181,0.5006,0.4965,0.4995,0.5152,0.5182,0.5233,0.5378,0.5395,0.5388,0.5395,0.5395,0.5395,0.5395,0.5395,0.5395,0.5395,0.5395,0.5395,0.5395,0.5395,0.5395,0.5395,0.5528,0.5657,0.5428,0.5395,0.5524,0.5591,0.5491,0.5524,0.562,0.6203,0.6691,0.7144,0.8318,0.93,0.9524,1.0072,1.046,1.0555,1.0586,1.0579,1.0559,1.0553,1.0466,1.012,0.967,0.9204,0.7988,0.7988,0.7988,0.7988,0.7988,0.7988,0.7988,0.7988,0.7988,0.7982,0.7958,0.7971,0.7955,0.7934,0.7848,0.779,0.778,0.7645,0.7577,0.756,0.7421,0.7395,0.7378,0.721,0.7092,0.7071,0.7068,0.6994,0.6869,0.6839,0.6739,0.6525,0.6371,0.63,0.63,0.63,0.63,0.63,0.6272,0.6115,0.5796,0.5654,0.5552,0.5399,0.5395,0.5395,0.5395,0.5395,0.5395,0.5395,0.5395,0.5815,0.6588,0.6719,0.7021,0.7638,0.7716,0.7583,0.736,0.6584,0.6422,0.7106,0.6612,0.6268,0.6277,0.6442,0.6113,0.5431,0.5111,0.5179,0.5347,0.5365,0.5368,0.5385,0.5395,0.5395,0.5395,0.5395,0.5395,0.5395,0.5524,0.5395,0.5458,0.5458,0.5458,0.5524,0.5686,0.5719,0.5719,0.6075,0.6203,0.5653,0.5428,0.5719,0.6141,0.5848,0.5719,0.6264,0.6621,0.7046,0.773,0.8581,0.9498,1.0142,1.0428,1.0586,1.0586,1.0586,1.0586,1.0586,1.0573,1.0499,1.0174,0.9866,0.9472,0.7988,0.7988,0.7988,0.7988,0.7988,0.7988,0.7988,0.7988,0.7988,0.7988,0.7988,0.7988,0.7988,0.7985,0.7924,0.7897,0.7936,0.7746,0.7726,0.7712,0.7573,0.7508,0.737,0.7312,0.7234,0.7102,0.7095,0.7065,0.7007,0.6927,0.6776,0.6538,0.645,0.6385,0.6306,0.63,0.63,0.63,0.63,0.6152,0.5912,0.5789,0.5644,0.5539,0.5443,0.5395,0.5395,0.5395,0.5395,0.5395,0.5395,0.5782,0.6654,0.6719,0.7075,0.7798,0.7884,0.8106,0.8516,0.7756,0.7407,0.7783,0.7521,0.7342,0.7346,0.7427,0.7265,0.6819,0.5874,0.533,0.5418,0.5395,0.5395,0.5395,0.5395,0.5428,0.5395,0.5881,0.6009,0.5587,0.6305,0.647,0.5752,0.5848,0.6141,0.6268,0.6531,0.6793,0.6924,0.685,0.6527,0.6203,0.5752,0.5557,0.5881,0.5686,0.562,0.6009,0.6854,0.7665,0.8021,0.9224,1.0206,1.0561,1.0593,1.0586,1.0586,1.0586,1.0586,1.0586,1.0573,1.0499,1.0174,1.002,0.9753,0.7988,0.7988,0.7988,0.7988,0.7988,0.7988,0.7988,0.7988,0.7988,0.7988,0.7988,0.7988,0.7988,0.7988,0.7988,0.7988,0.7975,0.7877,0.7872,0.7858,0.7723,0.7597,0.7492,0.74,0.7312,0.7214,0.7115,0.7095,0.7082,0.6953,0.6814,0.6614,0.6555,0.646,0.6364,0.6327,0.63,0.63,0.63,0.6245,0.6088,0.5945,0.5776,0.5599,0.5518,0.544,0.5395,0.5395,0.5524,0.5752,0.5785,0.6141,0.7013,0.7274,0.7702,0.8226,0.8124,0.8388,0.9204,0.8484,0.8221,0.864,0.8517,0.835,0.8355,0.835,0.8221,0.7892,0.6826,0.6174,0.6112,0.6112,0.6112,0.6112,0.6112,0.6112,0.6207,0.6724,0.6822,0.6375,0.7181,0.7567,0.6535,0.6695,0.7046,0.7111,0.7372,0.7665,0.767,0.7242,0.7013,0.6785,0.6498,0.6371,0.5918,0.5848,0.5782,0.6371,0.7474,0.8355,0.8415,0.9716,1.0561,1.0593,1.0586,1.0586,1.0586,1.0586,1.0586,1.0586,1.0579,1.0533,1.0321,1.0241,1.0107,0.7988,0.7988,0.7988,0.7988,0.7988,0.7988,0.7988,0.7988,0.7988,0.7988,0.7988,0.7988,0.7988,0.7988,0.7988,0.7988,0.7988,0.7975,0.7965,0.7951,0.7868,0.7797,0.777,0.7555,0.7415,0.7378,0.7217,0.7105,0.7088,0.696,0.6883,0.6927,0.6702,0.6555,0.6629,0.6592,0.6338,0.6412,0.6412,0.6331,0.6304,0.6132,0.5957,0.5815,0.5617,0.5607,0.5486,0.5428,0.5818,0.6625,0.6654,0.7046,0.7859,0.8646,0.9075,0.9102,0.8452,0.8415,0.9107,0.8613,0.8737,1.0009,0.9626,0.9236,0.9236,0.9242,0.8941,0.8124,0.8027,0.7897,0.7859,0.767,0.767,0.767,0.7767,0.7735,0.78,0.78,0.7924,0.7787,0.7914,0.8038,0.7867,0.7892,0.7942,0.7844,0.7358,0.7064,0.7396,0.7679,0.76,0.7405,0.78,0.8522,0.7046,0.6658,0.7018,0.7474,0.8096,0.9145,0.953,0.9913,1.0333,1.0586,1.0586,1.0586,1.0586,1.0586,1.0586,1.0586,1.0586,1.0526,1.0466,1.0539,1.0425,0.7988,0.7988,0.7988,0.7988,0.7988,0.7988,0.7988,0.7988,0.7988,0.7988,0.7988,0.7988,0.7988,0.7988,0.7988,0.7988,0.7988,0.7988,0.7988,0.7985,0.7931,0.7857,0.7804,0.7695,0.7543,0.7426,0.7316,0.7234,0.7098,0.7041,0.7397,0.7916,0.7743,0.7894,0.8396,0.8335,0.7936,0.7326,0.7249,0.7253,0.7246,0.7186,0.7331,0.7771,0.689,0.6405,0.6372,0.6792,0.7214,0.7535,0.7535,0.7665,0.7994,0.8285,0.8748,0.9204,0.9005,0.9198,0.9945,0.9849,0.9907,1.046,1.0333,1.0104,1.0136,1.0142,0.9977,0.9709,0.9646,0.9678,0.9422,0.8705,0.7994,0.7994,0.8027,0.8059,0.8124,0.8452,0.8701,0.8386,0.8415,0.8722,0.9074,0.8829,0.8659,0.9158,0.883,0.8744,0.9167,0.9179,0.8673,0.8425,0.8388,0.8285,0.7767,0.754,0.7702,0.8059,0.8613,0.9107,0.953,1.0079,1.053,1.0586,1.0586,1.0586,1.0586,1.0586,1.0586,1.0586,1.0586,1.0586,1.0586,1.0586,1.0546,0.7988,0.7988,0.7988,0.7988,0.7988,0.7988,0.7988,0.7988,0.7988,0.7988,0.7988,0.7988,0.7988,0.7988,0.7988,0.7988,0.7988,0.7988,0.7988,0.7988,0.7988,0.7938,0.7892,0.7834,0.7709,0.7519,0.7456,0.7292,0.7197,0.7489,0.8083,0.8696,0.8844,0.9172,0.9647,0.9552,0.9033,0.8408,0.8275,0.8275,0.8275,0.8275,0.8552,0.8965,0.8416,0.7808,0.7419,0.7878,0.8261,0.8404,0.842,0.8549,0.8801,0.8581,0.8683,0.9204,0.9011,0.9268,1.0009,1.0168,1.0269,1.0555,1.0586,1.0586,1.0586,1.0586,1.0586,1.0586,1.0586,1.0586,1.039,0.9518,0.8833,0.8833,0.8839,0.8873,0.8978,0.9521,0.9679,0.9546,0.9639,0.9956,1.0315,0.9881,0.9904,1.0453,1.0065,1.0049,1.0422,1.0149,0.9506,0.9447,0.9273,0.9188,0.9002,0.9,0.8646,0.8844,0.9198,0.9492,0.969,1.0269,1.0561,1.0586,1.0586,1.0586,1.0586,1.0586,1.0586,1.0586,1.0586,1.0586,1.0586,1.0586,1.0553,0.7992,0.7988,0.7988,0.7988,0.7988,0.7988,0.7988,0.7988,0.7988,0.7988,0.7988,0.7988,0.7988,0.7988,0.7988,0.7988,0.7988,0.7988,0.7988,0.7988,0.7988,0.7985,0.7961,0.7843,0.7804,0.7733,0.7499,0.7337,0.7319,0.8233,0.8834,0.9191,1.0015,1.0285,1.0009,1.005,0.973,0.938,0.9296,0.9334,0.9296,0.9296,0.9399,0.9557,0.9997,0.9732,0.8578,0.8526,0.8848,0.9288,0.9306,0.9722,1.0168,0.9716,0.9338,0.9274,0.8613,0.8613,0.93,0.9492,0.9945,1.0428,1.0586,1.0586,1.0586,1.0586,1.0586,1.0586,1.0593,1.06,1.062,1.0474,1.0372,1.0575,1.0353,1.0419,1.0719,1.0936,1.1076,1.1165,1.1207,1.1347,1.1374,1.1067,1.1029,1.1121,1.0628,1.0176,1.0475,1.0339,1.0055,1.0001,1.0143,1.0285,1.0445,1.0536,0.9983,0.9658,1.004,1.0333,1.0238,1.0555,1.0555,1.0586,1.0586,1.0586,1.0586,1.0586,1.0586,1.0586,1.0586,1.0586,1.0586,1.0586,1.0586,0.8136,0.7992,0.7988,0.7988,0.7988,0.7988,0.7988,0.7988,0.7988,0.7988,0.7988,0.7988,0.7988,0.7988,0.7988,0.7988,0.7988,0.7988,0.7988,0.7988,0.7988,0.7988,0.7978,0.7938,0.7862,0.7665,0.7468,0.7743,0.8312,0.8759,0.9579,1.0995,1.1315,1.1694,1.2062,1.1948,1.1403,1.0449,1.034,1.034,1.034,1.034,1.0645,1.131,1.1605,1.1389,1.0822,1.0414,1.029,1.0425,1.0277,1.0339,1.0498,1.0364,1.0199,1.0174,0.9977,0.9875,1.0104,1.0174,1.0269,1.0555,1.0586,1.0586,1.0586,1.0586,1.0593,1.0593,1.0593,1.066,1.0834,1.0855,1.0862,1.0862,1.0855,1.0969,1.1256,1.1463,1.1623,1.173,1.1904,1.2011,1.1867,1.1565,1.1346,1.1778,1.1077,1.0545,1.1099,1.1089,1.1005,1.0957,1.1195,1.1156,1.0975,1.0834,1.0496,1.0168,1.0404,1.0593,1.0586,1.0586,1.0586,1.0586,1.0586,1.0586,1.0586,1.0586,1.0586,1.0586,1.0586,1.0586,1.0586,1.0586,1.0586,0.8214,0.8123,0.8015,0.7988,0.7988,0.7988,0.7988,0.7988,0.7988,0.7988,0.7988,0.7988,0.7988,0.7988,0.7988,0.7988,0.7988,0.7988,0.7988,0.7988,0.7988,0.7988,0.7988,0.7988,0.821,0.835,0.8216,0.868,0.9693,1.0047,1.0913,1.2074,1.2554,1.2798,1.316,1.3013,1.2375,1.149,1.1354,1.1354,1.1354,1.1354,1.165,1.2187,1.2305,1.2211,1.2004,1.157,1.1263,1.1136,1.0875,1.072,1.0606,1.0586,1.0586,1.0586,1.0586,1.0555,1.0586,1.0555,1.0586,1.0586,1.0586,1.0586,1.0586,1.0586,1.062,1.0734,1.076,1.0868,1.1089,1.1156,1.1196,1.135,1.1216,1.1296,1.1563,1.185,1.2011,1.2064,1.2178,1.2285,1.2114,1.1885,1.1576,1.2037,1.1621,1.1209,1.1847,1.1848,1.175,1.1602,1.1583,1.1436,1.1209,1.1049,1.0915,1.071,1.0616,1.0626,1.0586,1.0586,1.0586,1.0586,1.0586,1.0586,1.0586,1.0586,1.0586,1.0586,1.0586,1.0586,1.0586,1.0586,1.0586,0.8286,0.8303,0.8116,0.8002,0.7992,0.7988,0.7988,0.7988,0.7988,0.7988,0.7988,0.7988,0.7988,0.7988,0.7988,0.7988,0.7988,0.7988,0.7988,0.7988,0.7988,0.7988,0.7988,0.7988,0.8528,0.9455,0.932,0.9917,1.112,1.1657,1.237,1.2583,1.3425,1.376,1.336,1.322,1.2861,1.2326,1.2214,1.2187,1.2187,1.2224,1.2261,1.2305,1.2305,1.2291,1.2218,1.1984,1.1717,1.1436,1.1142,1.0895,1.0693,1.0613,1.064,1.0606,1.0586,1.0586,1.0586,1.0586,1.062,1.0653,1.066,1.0633,1.0713,1.076,1.0834,1.0989,1.1015,1.1136,1.1369,1.145,1.1577,1.1826,1.1663,1.1663,1.1864,1.2131,1.2231,1.2271,1.2305,1.2305,1.2305,1.2194,1.2224,1.2224,1.2198,1.2171,1.2164,1.2151,1.2124,1.2024,1.1897,1.173,1.151,1.1396,1.1263,1.0895,1.0762,1.0707,1.0613,1.0586,1.0586,1.0586,1.0586,1.0586,1.0586,1.0586,1.0586,1.0586,1.0586,1.0586,1.0586,1.0586,1.0586,0.8469,0.8272,0.8275,0.8143,0.7998,0.7988,0.7988,0.7988,0.7988,0.8038,0.8038,0.7988,0.8038,0.7988,0.8038,0.7988,0.8088,0.8038,0.7988,0.7988,0.7988,0.7988,0.7988,0.8035,0.8694,0.9675,0.9776,1.0337,1.2225,1.2431,1.2778,1.3603,1.3857,1.3908,1.352,1.3267,1.3019,1.2683,1.2392,1.2305,1.2305,1.2305,1.2305,1.2305,1.2305,1.2305,1.2305,1.2231,1.1931,1.1442,1.1335,1.1149,1.0948,1.0875,1.0834,1.0673,1.062,1.0606,1.0613,1.0613,1.07,1.0855,1.0908,1.0975,1.1149,1.1196,1.1236,1.1316,1.1316,1.143,1.1677,1.175,1.1926,1.2118,1.2064,1.2058,1.2158,1.2251,1.2305,1.2305,1.2305,1.2305,1.2305,1.2305,1.2305,1.2305,1.2305,1.2305,1.2305,1.2298,1.2225,1.2245,1.2151,1.2004,1.185,1.1772,1.1531,1.1082,1.0889,1.0827,1.07,1.0586,1.0586,1.0586,1.0586,1.0586,1.0586,1.0586,1.0586,1.0586,1.0586,1.0586,1.0586,1.0586,1.0586,0.8608,0.8442,0.8319,0.8218,0.813,0.8019,0.8287,0.8627,0.8233,0.8382,0.8726,0.8825,0.8531,0.8088,0.8577,0.8821,0.8825,0.8821,0.9164,0.9702,0.9752,0.9114,0.8577,0.892,1.0036,1.0644,1.0905,1.2078,1.3381,1.3374,1.3598,1.3932,1.4088,1.3935,1.3593,1.3353,1.3099,1.2784,1.2458,1.2305,1.2305,1.2305,1.2305,1.2305,1.2305,1.2305,1.2305,1.2305,1.2078,1.1717,1.1603,1.1476,1.1209,1.1169,1.1096,1.0922,1.0922,1.0935,1.0922,1.0955,1.1002,1.1136,1.1169,1.1256,1.1342,1.143,1.1409,1.159,1.161,1.1764,1.1971,1.2051,1.2124,1.2251,1.2305,1.2305,1.2305,1.2298,1.2305,1.2305,1.2305,1.2305,1.2305,1.2305,1.2305,1.2305,1.2305,1.2305,1.2305,1.2305,1.2305,1.2305,1.2305,1.2164,1.2031,1.196,1.1832,1.1396,1.0975,1.0914,1.0767,1.062,1.0586,1.0586,1.0586,1.0586,1.0586,1.0586,1.0586,1.0586,1.0586,1.0618,1.0649,1.0769,1.0744,0.8935,0.8951,0.8816,0.8736,0.8794,0.855,0.9217,0.9805,0.9118,0.9213,0.9998,1.0194,0.9653,0.8478,0.9801,1.019,1.0194,1.0194,1.0779,1.1365,1.1604,1.0921,0.9213,1.0583,1.1643,1.2116,1.3036,1.3759,1.4443,1.4498,1.4269,1.4148,1.4088,1.3961,1.3693,1.3427,1.3106,1.2871,1.2589,1.2365,1.2325,1.2305,1.2305,1.2305,1.2305,1.2305,1.2305,1.2291,1.2171,1.1966,1.1953,1.1764,1.1516,1.1435,1.1389,1.1376,1.1336,1.1349,1.1362,1.1343,1.1382,1.1456,1.147,1.1496,1.1535,1.1582,1.1697,1.1897,1.1946,1.2031,1.2198,1.2285,1.2278,1.2305,1.2305,1.2305,1.2305,1.2305,1.2305,1.2305,1.2305,1.2305,1.2305,1.2305,1.2305,1.2305,1.2305,1.2305,1.2305,1.2305,1.2305,1.2305,1.2305,1.2305,1.2191,1.2084,1.1993,1.1752,1.1189,1.0935,1.0814,1.0687,1.062,1.0586,1.0586,1.0586,1.0586,1.0586,1.0586,1.0586,1.0586,1.0681,1.0776,1.0989,1.1045,1.0534,1.0486,1.1356,1.1624,1.1508,1.121,1.1219,1.1458,1.1165,1.1072,1.1458,1.1512,1.1268,1.0974,1.1268,1.1512,1.1507,1.1556,1.1707,1.1945,1.306,1.2576,1.1356,1.1896,1.2479,1.3143,1.3372,1.3973,1.4681,1.4683,1.4376,1.4128,1.4082,1.4055,1.3948,1.362,1.3367,1.3113,1.2837,1.2549,1.2331,1.2305,1.2305,1.2305,1.2305,1.2305,1.2305,1.2305,1.2271,1.2225,1.2184,1.2044,1.1866,1.1777,1.169,1.1536,1.147,1.1456,1.1443,1.1455,1.1543,1.1744,1.1784,1.187,1.2104,1.2078,1.2118,1.2211,1.2211,1.2225,1.2285,1.2305,1.2305,1.2305,1.2305,1.2305,1.2305,1.2305,1.2305,1.2305,1.2305,1.2305,1.2305,1.2305,1.2305,1.2305,1.2305,1.2305,1.2305,1.2305,1.2305,1.2305,1.2305,1.2305,1.2271,1.2164,1.2051,1.1946,1.1497,1.1022,1.0901,1.076,1.0693,1.0633,1.0586,1.0586,1.0586,1.0586,1.0586,1.0586,1.0649,1.0863,1.1076,1.1257,1.1531,1.2072,1.2112,1.2583,1.2674,1.2461,1.2242,1.2384,1.2635,1.2139,1.2285,1.277,1.2866,1.2474,1.1994,1.2528,1.2818,1.3006,1.3494,1.374,1.3932,1.4513,1.4364,1.3932,1.3638,1.3926,1.4094,1.4378,1.4764,1.4882,1.4783,1.4522,1.4122,1.4088,1.4082,1.4041,1.376,1.3453,1.32,1.2945,1.2643,1.2358,1.2305,1.2305,1.2305,1.2305,1.2305,1.2305,1.2305,1.2305,1.2305,1.2305,1.2245,1.2111,1.2078,1.1984,1.1884,1.1837,1.1837,1.1844,1.1844,1.1917,1.2044,1.2071,1.2151,1.2265,1.2305,1.2305,1.2305,1.2298,1.2305,1.2305,1.2305,1.2305,1.2305,1.2305,1.2305,1.2305,1.2305,1.2305,1.2305,1.2305,1.2305,1.2305,1.2305,1.2305,1.2305,1.2305,1.2305,1.2305,1.2305,1.2305,1.2305,1.2305,1.2305,1.2305,1.2238,1.2124,1.1964,1.1739,1.1323,1.1035,1.0901,1.0767,1.0687,1.0586,1.0586,1.0586,1.0586,1.0649,1.0656,1.0776,1.1108,1.1437,1.1679,1.202,1.3642,1.3621,1.3652,1.3475,1.3196,1.3163,1.352,1.3944,1.3011,1.3349,1.4022,1.4172,1.3638,1.3011,1.3734,1.4166,1.4411,1.5045,1.5343,1.5439,1.5486,1.5486,1.5391,1.5337,1.5045,1.4418,1.5121,1.5451,1.5097,1.4968,1.4609,1.4182,1.4088,1.4088,1.4021,1.3861,1.3567,1.3327,1.3065,1.2757,1.2432,1.2351,1.2305,1.2305,1.2305,1.2305,1.2305,1.2305,1.2305,1.2305,1.2305,1.2305,1.2305,1.2305,1.2305,1.2285,1.2231,1.2204,1.2191,1.2238,1.2258,1.2305,1.2291,1.2291,1.2305,1.2305,1.2305,1.2305,1.2305,1.2305,1.2305,1.2305,1.2305,1.2305,1.2305,1.2305,1.2305,1.2305,1.2305,1.2305,1.2305,1.2305,1.2305,1.2305,1.2305,1.2305,1.2305,1.2305,1.2305,1.2305,1.2305,1.2305,1.2305,1.2305,1.2305,1.2298,1.2191,1.2114,1.1913,1.1694,1.1404,1.1548,1.1435,1.0757,1.0586,1.0688,1.087,1.1014,1.1014,1.0839,1.124,1.1872,1.2112,1.2135,1.2596,1.5043,1.5127,1.61,1.6298,1.5966,1.574,1.547,1.5471,1.5099,1.5242,1.5391,1.5486,1.5242,1.5146,1.5242,1.5486,1.5391,1.5683,1.5825,1.5825,1.5825,1.5825,1.5825,1.5778,1.5629,1.5588,1.5758,1.5518,1.5135,1.4981,1.4643,1.4208,1.4088,1.4088,1.4082,1.4015,1.3828,1.3487,1.326,1.2979,1.2697,1.2418,1.2305,1.2305,1.2305,1.2305,1.2305,1.2305,1.2305,1.2305,1.2305,1.2305,1.2305,1.2305,1.2305,1.2305,1.2305,1.2305,1.2305,1.2305,1.2305,1.2305,1.2305,1.2305,1.2305,1.2305,1.2305,1.2305,1.2305,1.2305,1.2305,1.2305,1.2305,1.2305,1.2305,1.2305,1.2305,1.2305,1.2305,1.2305,1.2305,1.2305,1.2305,1.2305,1.2305,1.2305,1.2305,1.2305,1.2305,1.2305,1.2305,1.2305,1.2305,1.2305,1.2305,1.2305,1.2265,1.2271,1.2188,1.2168,1.2089,1.2412,1.2207,1.1761,1.1305,1.122,1.1363,1.1538,1.1779,1.1942,1.2366,1.2765,1.297,1.3144,1.3498,1.6552,1.6592,1.716,1.7114,1.6727,1.656,1.6233,1.5858,1.5825,1.5825,1.5825,1.5825,1.5825,1.5825,1.5825,1.5825,1.5825,1.5825,1.5825,1.5825,1.5825,1.5825,1.5825,1.5825,1.5825,1.5778,1.5751,1.5531,1.5062,1.5015,1.4636,1.4222,1.4088,1.4088,1.4088,1.4075,1.3921,1.3633,1.3447,1.32,1.2811,1.2458,1.2325,1.2305,1.2305,1.2305,1.2305,1.2305,1.2305,1.2305,1.2305,1.2305,1.2305,1.2305,1.2305,1.2305,1.2305,1.2305,1.2305,1.2305,1.2305,1.2305,1.2305,1.2305,1.2305,1.2305,1.2305,1.2305,1.2305,1.2305,1.2305,1.2305,1.2305,1.2305,1.2305,1.2305,1.2305,1.2305,1.2378,1.2378,1.2378,1.2378,1.2305,1.2305,1.2305,1.2305,1.2342,1.2415,1.2489,1.2592,1.2703,1.2482,1.2482,1.2519,1.2519,1.2526,1.2703,1.272,1.2774,1.2749,1.296,1.3386,1.3406,1.3087,1.2644,1.2459,1.2174,1.2436,1.2742,1.2948,1.3039,1.3243,1.3795,1.4213,1.4421,1.7589,1.7628,1.7574,1.7194,1.674,1.6633,1.6313,1.5851,1.5825,1.5825,1.5825,1.5825,1.5825,1.5825,1.5825,1.5825,1.5825,1.5825,1.5825,1.5825,1.5825,1.5825,1.5825,1.5825,1.5825,1.5825,1.5818,1.5524,1.5115,1.5015,1.4666,1.4242,1.4088,1.4088,1.4088,1.4088,1.3908,1.376,1.36,1.3333,1.2871,1.2563,1.2351,1.2311,1.2305,1.2305,1.2305,1.2305,1.2305,1.2305,1.2305,1.2305,1.2305,1.2305,1.2305,1.2305,1.2305,1.2305,1.2305,1.2305,1.2305,1.2305,1.2305,1.2305,1.2305,1.2305,1.2305,1.2298,1.2556,1.2489,1.2415,1.2512,1.2482,1.2305,1.2305,1.2305,1.2409,1.2519,1.2769,1.2732,1.2592,1.2519,1.2519,1.2378,1.2415,1.2879,1.2952,1.3346,1.3419,1.3419,1.3382,1.2915,1.2769,1.2776,1.2813,1.2849,1.32,1.3614,1.3765,1.3882,1.4147,1.45,1.4411,1.4446,1.4735,1.4533,1.397,1.3388,1.3718,1.3809,1.3588,1.3786,1.4451,1.4726,1.4835,1.7589,1.7555,1.736,1.7058,1.668,1.644,1.6146,1.5852,1.5825,1.5825,1.5825,1.5825,1.5825,1.5825,1.5825,1.5825,1.5825,1.5825,1.5825,1.5825,1.5825,1.5825,1.5825,1.5825,1.5825,1.5825,1.5825,1.5491,1.5162,1.5042,1.472,1.4235,1.4108,1.4088,1.4088,1.4088,1.4068,1.3981,1.3733,1.3373,1.2924,1.2757,1.2576,1.2398,1.2311,1.2305,1.2305,1.2305,1.2305,1.2305,1.2305,1.2305,1.2305,1.2305,1.2305,1.2305,1.2305,1.2305,1.2305,1.2305,1.2305,1.2305,1.2305,1.2305,1.2305,1.2305,1.2305,1.2335,1.2915,1.2952,1.2592,1.3018,1.2952,1.2769,1.2666,1.2592,1.2592,1.3339,1.352,1.3564,1.3557,1.3091,1.2806,1.2629,1.2556,1.3098,1.3629,1.4019,1.4271,1.4235,1.4163,1.3738,1.3557,1.3557,1.3564,1.3564,1.3774,1.4343,1.472,1.4988,1.5215,1.5489,1.5858,1.599,1.6294,1.6146,1.5282,1.4852,1.4866,1.4789,1.4643,1.4849,1.5206,1.5294,1.5167,1.7387,1.7373,1.7253,1.6931,1.6473,1.6326,1.6099,1.5872,1.5825,1.5825,1.5825,1.5825,1.5825,1.5825,1.5825,1.5825,1.5825,1.5825,1.5825,1.5825,1.5825,1.5825,1.5825,1.5825,1.5825,1.5825,1.5792,1.5638,1.5277,1.5048,1.4767,1.4376,1.4168,1.4088,1.4088,1.4088,1.4082,1.3995,1.3801,1.3527,1.324,1.2978,1.2723,1.2583,1.2398,1.2331,1.2305,1.2305,1.2305,1.2305,1.2305,1.2305,1.2305,1.2305,1.2305,1.2305,1.2305,1.2305,1.2305,1.2305,1.2305,1.2305,1.2305,1.2305,1.2305,1.2305,1.2305,1.2305,1.2659,1.2696,1.2659,1.3164,1.331,1.331,1.3411,1.3665,1.3774,1.4171,1.4565,1.4565,1.4565,1.4199,1.3839,1.3593,1.3702,1.4235,1.455,1.4807,1.4914,1.4843,1.4772,1.4629,1.4557,1.455,1.4557,1.4557,1.4593,1.5084,1.572,1.5957,1.6175,1.6486,1.6782,1.7088,1.7273,1.6953,1.6324,1.6031,1.5856,1.5792,1.5791,1.5684,1.5566,1.5391,1.5323,1.7045,1.6985,1.6978,1.6723,1.6321,1.6248,1.6032,1.5845,1.5825,1.5825,1.5825,1.5825,1.5825,1.5825,1.5825,1.5825,1.5825,1.5825,1.5825,1.5825,1.5825,1.5825,1.5825,1.5825,1.5825,1.5825,1.5825,1.5705,1.5478,1.515,1.481,1.4472,1.4215,1.4108,1.4088,1.4088,1.4088,1.4062,1.3895,1.3721,1.3547,1.3213,1.2978,1.277,1.2583,1.2378,1.2318,1.2305,1.2305,1.2305,1.2305,1.2305,1.2305,1.2305,1.2305,1.2305,1.2305,1.2305,1.2305,1.2305,1.2305,1.2305,1.2305,1.2305,1.2305,1.2298,1.2512,1.2703,1.2806,1.2908,1.3127,1.381,1.4027,1.4343,1.4593,1.495,1.5269,1.5411,1.5517,1.5544,1.5614,1.5834,1.5403,1.4871,1.4942,1.5403,1.5579,1.5658,1.5728,1.5763,1.5658,1.5658,1.5544,1.5544,1.5544,1.5552,1.5614,1.5825,1.6463,1.6819,1.7001,1.7285,1.7556,1.7867,1.8008,1.7745,1.7119,1.6941,1.6768,1.6426,1.6113,1.5889,1.5723,1.5557,1.542,1.658,1.6326,1.6395,1.6368,1.6288,1.5979,1.5852,1.5825,1.5825,1.5825,1.5825,1.5825,1.5825,1.5825,1.5825,1.5825,1.5825,1.5825,1.5825,1.5825,1.5825,1.5825,1.5825,1.5825,1.5825,1.5825,1.5825,1.5812,1.5671,1.5251,1.4877,1.4522,1.4249,1.4135,1.4088,1.4088,1.4088,1.4082,1.4008,1.3881,1.37,1.3473,1.3293,1.2924,1.277,1.2636,1.2338,1.2345,1.2318,1.2318,1.2305,1.2305,1.2305,1.2305,1.2305,1.2305,1.2482,1.2519,1.2526,1.2378,1.2305,1.2305,1.2378,1.2489,1.2556,1.2452,1.2732,1.3491,1.3593,1.3991,1.4486,1.5057,1.51,1.5269,1.5508,1.5763,1.6079,1.6358,1.6463,1.6489,1.6602,1.6749,1.6828,1.6263,1.6044,1.6428,1.6532,1.6576,1.701,1.7113,1.6897,1.6749,1.6567,1.6498,1.6498,1.6532,1.6611,1.6828,1.7285,1.7579,1.7759,1.8008,1.8008,1.8008,1.8008,1.7978,1.792,1.7549,1.7168,1.6758,1.6455,1.6269,1.5977,1.5732,1.5557,1.6373,1.6259,1.6086,1.5999,1.5992,1.5879,1.5825,1.5825,1.5825,1.5825,1.5825,1.5825,1.5825,1.5825,1.5825,1.5825,1.5825,1.5825,1.5825,1.5825,1.5825,1.5825,1.5825,1.5825,1.5825,1.5825,1.5825,1.5825,1.5765,1.5384,1.5104,1.4756,1.4335,1.4142,1.4088,1.4088,1.4088,1.4088,1.4088,1.4001,1.3928,1.3673,1.3487,1.3347,1.308,1.2924,1.2677,1.2623,1.2465,1.2365,1.2338,1.2425,1.2513,1.2506,1.2536,1.2647,1.2972,1.3228,1.3097,1.276,1.2305,1.2452,1.2776,1.3171,1.3237,1.3629,1.4127,1.4522,1.4565,1.4843,1.5057,1.5666,1.6088,1.6219,1.6393,1.6611,1.6883,1.7162,1.7376,1.7406,1.7458,1.7569,1.7613,1.7579,1.7467,1.7467,1.7501,1.7535,1.7828,1.8008,1.7647,1.7457,1.7285,1.7251,1.7251,1.7432,1.7579,1.7759,1.8008,1.8008,1.8008,1.8008,1.8008,1.8008,1.8008,1.7988,1.7949,1.7861,1.7588,1.7187,1.6914,1.6741,1.6398,1.5957,1.5742,1.6139,1.6112,1.5919,1.5825,1.5825,1.5825,1.5825,1.5825,1.5825,1.5825,1.5825,1.5825,1.5825,1.5825,1.5825,1.5825,1.5825,1.5825,1.5825,1.5825,1.5825,1.5825,1.5825,1.5825,1.5825,1.5825,1.5825,1.5825,1.5812,1.5531,1.5224,1.487,1.4489,1.4249,1.4088,1.4088,1.4088,1.4088,1.4088,1.4088,1.4041,1.3901,1.3653,1.358,1.3373,1.3193,1.2973,1.2918,1.2806,1.2837,1.2914,1.3067,1.3203,1.3331,1.3473,1.3726,1.4022,1.4456,1.4286,1.3747,1.3222,1.352,1.381,1.4099,1.435,1.4851,1.5021,1.5525,1.5411,1.5419,1.5719,1.6437,1.6802,1.6897,1.7251,1.7529,1.7754,1.8033,1.8209,1.834,1.8358,1.8397,1.8294,1.8279,1.7992,1.7865,1.775,1.775,1.7862,1.8008,1.7974,1.7862,1.7828,1.7862,1.7974,1.7862,1.7759,1.7828,1.8008,1.8008,1.8008,1.8008,1.8008,1.8008,1.8008,1.8008,1.7978,1.792,1.7803,1.7627,1.7386,1.7093,1.6592,1.6182,1.5977,1.5852,1.5838,1.5832,1.5825,1.5825,1.5825,1.5825,1.5825,1.5825,1.5825,1.5825,1.5825,1.5825,1.5825,1.5825,1.5825,1.5825,1.5825,1.5825,1.5825,1.5825,1.5825,1.5825,1.5825,1.5825,1.5825,1.5825,1.5825,1.5825,1.5605,1.5304,1.4937,1.4569,1.4282,1.4102,1.4088,1.4088,1.4088,1.4088,1.4088,1.4075,1.4035,1.3895,1.3713,1.3626,1.3487,1.3571,1.3541,1.3544,1.3744,1.4285,1.4553,1.4645,1.536,1.5708,1.5837,1.6058,1.6271,1.6317,1.5571,1.522,1.5005,1.5158,1.5369,1.529,1.5478,1.5962,1.6776,1.6272,1.6492,1.6901,1.7326,1.754,1.7735,1.8129,1.8301,1.8525,1.8633,1.876,1.8828,1.9053,1.9199,1.9062,1.8851,1.8461,1.8202,1.8042,1.8008,1.8027,1.8008,1.8008,1.8008,1.8008,1.8008,1.8008,1.8008,1.7974,1.8008,1.8008,1.8008,1.8008,1.8008,1.8008,1.8008,1.8008,1.8008,1.8008,1.7998,1.7891,1.7783,1.7607,1.7295,1.6826,1.6494,1.6369,1.5825,1.5825,1.5825,1.5825,1.5825,1.5825,1.5825,1.5825,1.5825,1.5825,1.5825,1.5825,1.5825,1.5825,1.5825,1.5825,1.5825,1.5825,1.5825,1.5825,1.5825,1.5825,1.5825,1.5825,1.5825,1.5825,1.5825,1.5825,1.5825,1.5685,1.5378,1.4997,1.469,1.4208,1.4108,1.4088,1.4088,1.4088,1.4088,1.4088,1.413,1.4166,1.4154,1.4033,1.4074,1.4248,1.454,1.4598,1.4749,1.5102,1.576,1.5898,1.5958,1.656,1.6573,1.6716,1.6896,1.7729,1.8082,1.7907,1.7233,1.6759,1.6588,1.6889,1.6987,1.7624,1.804,1.8146,1.7811,1.8116,1.8581,1.8607,1.8718,1.8773,1.8945,1.8955,1.9062,1.9072,1.9111,1.9131,1.9268,1.9365,1.9316,1.9287,1.8984,1.8672,1.8496,1.8174,1.8096,1.8037,1.8008,1.8008,1.8008,1.8008,1.8008,1.8008,1.8008,1.8008,1.8008,1.8008,1.8008,1.8008,1.8008,1.8008,1.8008,1.8008,1.8008,1.8008,1.8008,1.791,1.7764,1.7598,1.7246,1.7021,1.6914,1.5825,1.5825,1.5825,1.5825,1.5825,1.5825,1.5825,1.5825,1.5825,1.5825,1.5825,1.5825,1.5825,1.5825,1.5825,1.5825,1.5825,1.5825,1.5825,1.5825,1.5825,1.5825,1.5825,1.5825,1.5825,1.5825,1.5825,1.5825,1.5825,1.5825,1.5763,1.551,1.4977,1.5147,1.4977,1.4817,1.4088,1.4208,1.437,1.4776,1.4901,1.5061,1.5304,1.533,1.5391,1.5517,1.5848,1.6061,1.6198,1.6696,1.7055,1.7248,1.7325,1.7602,1.7764,1.8116,1.841,1.9174,1.9531,1.9653,1.8901,1.8277,1.8359,1.836,1.8424,1.8697,1.8971,1.9146,1.9316,1.9307,1.9316,1.9336,1.9355,1.9382,1.9382,1.9346,1.9502,1.9502,1.96,1.959,1.9658,1.9668,1.9639,1.957,1.9473,1.9189,1.8926,1.8584,1.8252,1.8174,1.8105,1.8066,1.8047,1.8037,1.8027,1.8008,1.8008,1.8008,1.8008,1.8008,1.8008,1.8008,1.8008,1.8008,1.8008,1.8008,1.8008,1.8008,1.8008,1.8008,1.7959,1.7793,1.7617,1.7461,1.7305,1.5825,1.5825,1.5825,1.5825,1.5825,1.5825,1.5825,1.5825,1.5825,1.5825,1.5825,1.5825,1.5825,1.5825,1.5825,1.5825,1.5825,1.5825,1.5825,1.5825,1.5825,1.5825,1.5872,1.5967,1.6197,1.6109,1.6244,1.6741,1.6096,1.6339,1.6466,1.6455,1.6075,1.6193,1.6075,1.5553,1.4783,1.5026,1.5387,1.5703,1.5835,1.6437,1.665,1.669,1.6756,1.6952,1.7203,1.7347,1.7453,1.786,1.8422,1.8815,1.9325,2.0031,2.0391,2.0489,2.0401,2.0391,2.0391,2.04,2.0391,1.9716,1.9533,1.9455,1.937,1.9487,1.9572,1.959,1.9609,1.9502,1.9443,1.9473,1.9502,1.9502,1.9512,1.9648,1.9883,2.0,2.0137,2.0215,2.0361,2.037,2.0273,2.0146,1.9893,1.9756,1.9492,1.9189,1.8848,1.8467,1.8369,1.8149,1.8144,1.8076,1.8057,1.8037,1.8008,1.8008,1.8008,1.8008,1.8008,1.8008,1.8008,1.8008,1.8008,1.8008,1.8008,1.8008,1.8008,1.8008,1.8008,1.7969,1.7793,1.7646,1.749,1.5825,1.5825,1.5825,1.5825,1.5825,1.5825,1.5825,1.5825,1.5825,1.5825,1.5825,1.5825,1.5825,1.5825,1.5825,1.5825,1.5825,1.5825,1.5825,1.592,1.6197,1.592,1.615,1.6709,1.7037,1.7451,1.7809,1.811,1.8217,1.7939,1.7553,1.7765,1.7183,1.7221,1.709,1.669,1.6486,1.6404,1.6764,1.6805,1.6887,1.7326,1.7536,1.7617,1.7626,1.7868,1.835,1.851,1.8758,1.9559,1.9883,2.0128,2.0206,2.045,2.0605,2.0605,2.0557,2.0595,2.0615,2.0615,2.0615,2.0615,2.0302,2.0312,2.0243,2.0155,2.0098,2.0039,2.0048,2.0008,1.9999,2.0008,2.0008,2.0008,2.0008,2.0068,2.0264,2.0303,2.042,2.0449,2.0605,2.0605,2.0556,2.0507,2.0244,2.0243,2.0059,1.9746,1.9394,1.9004,1.8701,1.8516,1.8437,1.8428,1.8164,1.8052,1.8037,1.8008,1.8018,1.8018,1.8008,1.8008,1.8008,1.8008,1.8008,1.8008,1.8008,1.8008,1.8008,1.8008,1.8008,1.8008,1.7969,1.7812,1.7734,1.5825,1.5825,1.5825,1.5825,1.5825,1.5825,1.5825,1.5825,1.5825,1.5825,1.5825,1.5825,1.5825,1.5825,1.5832,1.6062,1.6615,1.6709,1.6889,1.7522,1.7163,1.7436,1.7669,1.7948,1.8272,1.8726,1.9001,1.9169,1.9389,1.8916,1.8458,1.8948,1.8316,1.8348,1.8501,1.8661,1.8669,1.843,1.827,1.8069,1.806,1.8301,1.8581,1.851,1.851,1.8957,1.9441,1.9559,2.0001,2.0527,2.0576,2.0605,2.0566,2.0605,2.0615,2.0615,2.0615,2.0615,2.0615,2.0615,2.0615,2.0615,2.0615,2.0576,2.0556,2.0478,2.0498,2.0488,2.0537,2.0576,2.0586,2.0595,2.0586,2.0576,2.0576,2.0576,2.0595,2.0595,2.0605,2.0595,2.0615,2.0615,2.0605,2.0615,2.0595,2.0488,2.0419,2.0244,1.9863,1.9434,1.915,1.8926,1.8877,1.8838,1.8555,1.8286,1.8276,1.8242,1.8057,1.8057,1.8027,1.8008,1.8008,1.8008,1.8008,1.8008,1.8008,1.8008,1.8008,1.8008,1.8008,1.8008,1.8008,1.7959,1.792,1.5825,1.5825,1.5825,1.5825,1.5825,1.5825,1.5825,1.5825,1.5825,1.5825,1.5825,1.5825,1.5825,1.5872,1.6062,1.6716,1.7311,1.7684,1.8218,1.9451,1.8993,1.8902,1.8993,1.9579,1.9633,1.9679,1.9935,2.0487,1.9779,1.9539,1.9671,2.0039,1.9466,1.9402,1.9913,2.004,1.9962,1.9835,1.9432,1.9116,1.9353,1.9923,2.0615,2.045,2.0372,2.0489,2.0489,2.0566,2.0615,2.0615,2.0615,2.0615,2.0615,2.0615,2.0615,2.0615,2.0615,2.0615,2.0615,2.0615,2.0615,2.0615,2.0615,2.0615,2.0615,2.0615,2.0615,2.0615,2.0615,2.0615,2.0615,2.0615,2.0615,2.0615,2.0615,2.0615,2.0615,2.0615,2.0615,2.0615,2.0615,2.0615,2.0615,2.0615,2.0615,2.0586,2.0566,2.0527,2.0341,1.9901,1.9609,1.9365,1.9326,1.9258,1.9023,1.8818,1.8685,1.8539,1.834,1.8193,1.8208,1.8144,1.8008,1.8008,1.8008,1.8008,1.8008,1.8008,1.8008,1.8008,1.8008,1.8008,1.8008,1.8008,1.8008,1.5825,1.5825,1.5825,1.5825,1.5825,1.5825,1.5825,1.5825,1.5825,1.5825,1.5825,1.5832,1.5872,1.6015,1.6943,1.7591,1.7909,1.8818,1.9177,1.9633,1.977,2.0042,1.9861,2.0576,2.0809,2.1186,2.156,2.1794,2.1392,2.1118,2.0827,2.0831,2.0318,2.0333,2.0566,2.0615,2.0566,2.0557,2.0323,2.0001,2.0167,2.0284,2.0615,2.0615,2.0615,2.0615,2.0615,2.0615,2.0615,2.0615,2.0615,2.0615,2.0615,2.0615,2.0615,2.0615,2.0615,2.0615,2.0615,2.0615,2.0615,2.0615,2.0615,2.0615,2.0615,2.0615,2.0615,2.0615,2.0615,2.0615,2.0615,2.0615,2.0615,2.0615,2.0615,2.0615,2.0615,2.0615,2.0615,2.0615,2.0615,2.0615,2.0615,2.0615,2.0615,2.0605,2.0605,2.0586,2.0576,2.0312,2.0049,1.9853,1.9785,1.9678,1.9482,1.9287,1.917,1.8958,1.8769,1.8623,1.8442,1.8266,1.8144,1.8047,1.8008,1.8008,1.8008,1.8008,1.8008,1.8008,1.8008,1.8008,1.8008,1.8008,1.8008,1.5825,1.5825,1.5825,1.5825,1.5825,1.5825,1.5825,1.5825,1.5825,1.5825,1.592,1.6339,1.6615,1.6803,1.7956,1.891,1.9177,1.9943,2.0764,2.0998,2.0899,2.1221,2.1489,2.1667,2.1952,2.2369,2.2658,2.279,2.2471,2.2038,2.1537,2.1221,2.081,2.0615,2.0615,2.0615,2.0615,2.0605,2.0615,2.0615,2.0615,2.0615,2.0615,2.0615,2.0615,2.0615,2.0615,2.0615,2.0615,2.0615,2.0615,2.0615,2.0615,2.0615,2.0615,2.0615,2.0615,2.0615,2.0615,2.0615,2.0615,2.0615,2.0615,2.0615,2.0615,2.0615,2.0615,2.0615,2.0615,2.0615,2.0615,2.0615,2.0615,2.0615,2.0615,2.0615,2.0615,2.0615,2.0615,2.0615,2.0615,2.0615,2.0615,2.0615,2.0615,2.0615,2.0615,2.0615,2.0615,2.0615,2.0429,2.0264,2.0156,2.0156,2.0106,1.9862,1.958,1.9394,1.9199,1.8896,1.8627,1.8422,1.8247,1.8164,1.8057,1.8008,1.8008,1.8008,1.8008,1.8008,1.8008,1.8008,1.8042,1.8134,1.8327,1.5825,1.5825,1.5825,1.5825,1.5825,1.5825,1.5825,1.5825,1.5825,1.592,1.6339,1.7451,1.7824,1.8095,1.9177,2.026,2.1025,2.1302,2.2129,2.2599,2.2775,2.2501,2.2545,2.296,2.2862,2.2862,2.3038,2.274,2.2353,2.2012,2.1641,2.1182,2.085,2.0615,2.0615,2.0615,2.0615,2.0615,2.0615,2.0615,2.0615,2.0615,2.0615,2.0615,2.0615,2.0615,2.0615,2.0615,2.0615,2.0615,2.0615,2.0615,2.0615,2.0615,2.0615,2.0615,2.0615,2.0615,2.0615,2.0615,2.0615,2.0615,2.0615,2.0615,2.0615,2.0615,2.0615,2.0615,2.0615,2.0615,2.0615,2.0615,2.0615,2.0615,2.0615,2.0615,2.0615,2.0615,2.0615,2.0615,2.0615,2.0615,2.0615,2.0615,2.0615,2.0615,2.0615,2.0615,2.0615,2.0615,2.0527,2.0488,2.0439,2.0468,2.0507,2.0321,1.9961,1.9863,1.9648,1.9219,1.8877,1.8779,1.8574,1.8252,1.8154,1.8144,1.8047,1.8008,1.8008,1.8008,1.8008,1.8076,1.8462,1.8596,1.8854,1.5825,1.5825,1.5825,1.5825,1.5825,1.5825,1.5825,1.5825,1.5832,1.6346,1.7404,1.8403,1.8726,1.7878,2.0079,2.1248,2.1569,2.2164,2.2633,2.3047,2.3101,2.3101,2.3101,2.3101,2.3101,2.3101,2.3013,2.2685,2.2246,2.1953,2.1515,2.0811,2.0703,2.0615,2.0615,2.0615,2.0615,2.0615,2.0615,2.0615,2.0615,2.0615,2.0615,2.0615,2.0615,2.0615,2.0615,2.0615,2.0615,2.0615,2.0654,2.0683,2.0752,2.0781,2.0781,2.083,2.0811,2.0791,2.082,2.0752,2.0742,2.0703,2.0683,2.0615,2.0615,2.0615,2.0615,2.0615,2.0615,2.0615,2.0615,2.0615,2.0615,2.0615,2.0615,2.0615,2.0615,2.0615,2.0615,2.0615,2.0615,2.0615,2.0615,2.0615,2.0615,2.0615,2.0615,2.0615,2.0615,2.0615,2.0615,2.0615,2.0615,2.0605,2.0586,2.0566,2.0361,2.0254,2.0088,1.9658,1.9355,1.9209,1.8975,1.8633,1.8428,1.8344,1.8262,1.8086,1.8008,1.8008,1.8008,1.8134,1.863,1.9177,1.9497]}]]